<?xml version='1.0' encoding='UTF-8'?><gpx version="1.1" creator="JPX - https://github.com/jenetics/jpx" xmlns="http://www.topografix.com/GPX/1/1"><trk><trkseg><trkpt lat="48.34450966704311" lon="-3.9872362865128763"><ele>175.0</ele><time>2026-04-19T13:54:12Z</time></trkpt><trkpt lat="48.34452597657878" lon="-3.987143860159323"><ele>175.0</ele><time>2026-04-19T13:54:27Z</time></trkpt><trkpt lat="48.34452551888191" lon="-3.987034696886788"><ele>175.0</ele><time>2026-04-19T13:54:30Z</time></trkpt><trkpt lat="48.34456613716516" lon="-3.9869506339398826"><ele>175.0</ele><time>2026-04-19T13:54:32Z</time></trkpt><trkpt lat="48.34453445117318" lon="-3.986812366958297"><ele>175.0</ele><time>2026-04-19T13:54:35Z</time></trkpt><trkpt lat="48.34451984034095" lon="-3.9867142399718936"><ele>175.0</ele><time>2026-04-19T13:54:44Z</time></trkpt><trkpt lat="48.344496169918436" lon="-3.9866146709245167"><ele>175.0</ele><time>2026-04-19T13:54:49Z</time></trkpt><trkpt lat="48.344439385430015" lon="-3.9865725947130475"><ele>175.16666666666669</ele><time>2026-04-19T13:54:56Z</time></trkpt><trkpt lat="48.34436744627287" lon="-3.9866060063507036"><ele>175.33333333333334</ele><time>2026-04-19T13:54:58Z</time></trkpt><trkpt lat="48.34429066166586" lon="-3.986554354913544"><ele>175.5</ele><time>2026-04-19T13:55:01Z</time></trkpt><trkpt lat="48.344195350902034" lon="-3.9865413739638176"><ele>175.66666666666666</ele><time>2026-04-19T13:55:03Z</time></trkpt><trkpt lat="48.344133072702235" lon="-3.9864387121039844"><ele>175.83333333333331</ele><time>2026-04-19T13:55:06Z</time></trkpt><trkpt lat="48.34408790531671" lon="-3.986363740201928"><ele>176.0</ele><time>2026-04-19T13:55:08Z</time></trkpt><trkpt lat="48.344015082820256" lon="-3.9863698712510365"><ele>176.0</ele><time>2026-04-19T13:55:14Z</time></trkpt><trkpt lat="48.34396065559997" lon="-3.9864258636090124"><ele>176.0</ele><time>2026-04-19T13:55:18Z</time></trkpt><trkpt lat="48.34390905178126" lon="-3.986508140005137"><ele>176.0</ele><time>2026-04-19T13:55:24Z</time></trkpt><trkpt lat="48.343966503939285" lon="-3.986407794248732"><ele>176.0</ele><time>2026-04-19T13:55:38Z</time></trkpt><trkpt lat="48.34401862791571" lon="-3.986337412289974"><ele>176.0</ele><time>2026-04-19T13:55:41Z</time></trkpt><trkpt lat="48.3439789520591" lon="-3.986231801707314"><ele>176.0</ele><time>2026-04-19T13:55:54Z</time></trkpt><trkpt lat="48.343902364756744" lon="-3.986126142162844"><ele>177.0</ele><time>2026-04-19T13:55:56Z</time></trkpt><trkpt lat="48.343879902665265" lon="-3.986006863212133"><ele>178.0</ele><time>2026-04-19T13:56:00Z</time></trkpt><trkpt lat="48.34379802312815" lon="-3.985935914827316"><ele>179.0</ele><time>2026-04-19T13:56:03Z</time></trkpt><trkpt lat="48.34372775955577" lon="-3.985931964379164"><ele>180.0</ele><time>2026-04-19T13:56:05Z</time></trkpt><trkpt lat="48.34367325636751" lon="-3.9858808921151154"><ele>181.0</ele><time>2026-04-19T13:56:11Z</time></trkpt><trkpt lat="48.343612269780664" lon="-3.9858454551627567"><ele>182.0</ele><time>2026-04-19T13:56:19Z</time></trkpt><trkpt lat="48.343529171129795" lon="-3.985804106722239"><ele>182.0</ele><time>2026-04-19T13:56:29Z</time></trkpt><trkpt lat="48.343450070173944" lon="-3.985696086975506"><ele>182.0</ele><time>2026-04-19T13:56:31Z</time></trkpt><trkpt lat="48.34336644840729" lon="-3.985624490030664"><ele>182.0</ele><time>2026-04-19T13:56:33Z</time></trkpt><trkpt lat="48.343305619976796" lon="-3.9855424300280076"><ele>182.0</ele><time>2026-04-19T13:56:36Z</time></trkpt><trkpt lat="48.343255408625204" lon="-3.9856049370303026"><ele>182.0</ele><time>2026-04-19T13:56:39Z</time></trkpt><trkpt lat="48.343186123469266" lon="-3.985594128780101"><ele>182.0</ele><time>2026-04-19T13:56:42Z</time></trkpt><trkpt lat="48.343117413900565" lon="-3.985546527130423"><ele>182.0</ele><time>2026-04-19T13:56:44Z</time></trkpt><trkpt lat="48.343087856355794" lon="-3.985444037353561"><ele>182.0</ele><time>2026-04-19T13:56:47Z</time></trkpt><trkpt lat="48.34304924086845" lon="-3.985349250596218"><ele>182.0</ele><time>2026-04-19T13:56:49Z</time></trkpt><trkpt lat="48.34300204371453" lon="-3.9852407864752224"><ele>182.0</ele><time>2026-04-19T13:56:52Z</time></trkpt><trkpt lat="48.342960989652475" lon="-3.9851106280483553"><ele>182.0</ele><time>2026-04-19T13:56:54Z</time></trkpt><trkpt lat="48.34291093813736" lon="-3.985021045093388"><ele>182.0</ele><time>2026-04-19T13:56:56Z</time></trkpt><trkpt lat="48.34288504089139" lon="-3.98489121236311"><ele>183.71428571428572</ele><time>2026-04-19T13:56:58Z</time></trkpt><trkpt lat="48.34283877448194" lon="-3.9848175534713834"><ele>185.42857142857144</ele><time>2026-04-19T13:56:59Z</time></trkpt><trkpt lat="48.342789317477646" lon="-3.984755458586018"><ele>187.14285714285714</ele><time>2026-04-19T13:57:00Z</time></trkpt><trkpt lat="48.34275034818753" lon="-3.984659120042901"><ele>188.85714285714286</ele><time>2026-04-19T13:57:02Z</time></trkpt><trkpt lat="48.34270461340106" lon="-3.9845934569740065"><ele>190.57142857142858</ele><time>2026-04-19T13:57:21Z</time></trkpt><trkpt lat="48.3426394165617" lon="-3.98461999394067"><ele>192.28571428571428</ele><time>2026-04-19T13:57:23Z</time></trkpt><trkpt lat="48.3425433491909" lon="-3.9845800845265575"><ele>194.0</ele><time>2026-04-19T13:57:25Z</time></trkpt><trkpt lat="48.3424927680549" lon="-3.9845044770106783"><ele>194.00000000000003</ele><time>2026-04-19T13:57:27Z</time></trkpt><trkpt lat="48.34243575365513" lon="-3.984401439399052"><ele>194.0</ele><time>2026-04-19T13:57:30Z</time></trkpt><trkpt lat="48.34236767195833" lon="-3.984309054541953"><ele>194.0</ele><time>2026-04-19T13:57:32Z</time></trkpt><trkpt lat="48.342359089008966" lon="-3.984207480387022"><ele>194.0</ele><time>2026-04-19T13:57:35Z</time></trkpt><trkpt lat="48.34240914932957" lon="-3.9841120790711813"><ele>194.00000000000003</ele><time>2026-04-19T13:57:40Z</time></trkpt><trkpt lat="48.34247291431906" lon="-3.9840525679975163"><ele>194.0</ele><time>2026-04-19T13:57:43Z</time></trkpt><trkpt lat="48.342501345890746" lon="-3.9839128848605245"><ele>193.33333333333334</ele><time>2026-04-19T13:57:47Z</time></trkpt><trkpt lat="48.34254193980899" lon="-3.9838223497862506"><ele>192.66666666666669</ele><time>2026-04-19T13:57:49Z</time></trkpt><trkpt lat="48.342557856082756" lon="-3.983704135641283"><ele>192.0</ele><time>2026-04-19T13:57:56Z</time></trkpt><trkpt lat="48.34259818134298" lon="-3.983598907937455"><ele>191.33333333333334</ele><time>2026-04-19T13:57:59Z</time></trkpt><trkpt lat="48.34260839544809" lon="-3.983495156008153"><ele>190.66666666666669</ele><time>2026-04-19T13:58:01Z</time></trkpt><trkpt lat="48.34258659288404" lon="-3.983367101235559"><ele>190.0</ele><time>2026-04-19T13:58:03Z</time></trkpt><trkpt lat="48.34257566915421" lon="-3.98320659795535"><ele>189.66666666666669</ele><time>2026-04-19T13:58:05Z</time></trkpt><trkpt lat="48.342562716913946" lon="-3.983091618069378"><ele>189.33333333333334</ele><time>2026-04-19T13:58:07Z</time></trkpt><trkpt lat="48.3424737252439" lon="-3.9829872353950195"><ele>189.0</ele><time>2026-04-19T13:58:09Z</time></trkpt><trkpt lat="48.34241355761914" lon="-3.9829040351764173"><ele>188.66666666666666</ele><time>2026-04-19T13:58:11Z</time></trkpt><trkpt lat="48.34240931901248" lon="-3.982809505785108"><ele>188.33333333333331</ele><time>2026-04-19T13:58:13Z</time></trkpt><trkpt lat="48.3423558395572" lon="-3.982726396197172"><ele>188.0</ele><time>2026-04-19T13:58:15Z</time></trkpt><trkpt lat="48.3423547083565" lon="-3.9826151652240767"><ele>187.66666666666666</ele><time>2026-04-19T13:58:17Z</time></trkpt><trkpt lat="48.34234471351381" lon="-3.9824738275759106"><ele>187.33333333333331</ele><time>2026-04-19T13:58:19Z</time></trkpt><trkpt lat="48.34228057159166" lon="-3.9824077807456524"><ele>187.0</ele><time>2026-04-19T13:58:25Z</time></trkpt><trkpt lat="48.342267919492045" lon="-3.9823047728739325"><ele>186.66666666666666</ele><time>2026-04-19T13:58:34Z</time></trkpt><trkpt lat="48.34229980559939" lon="-3.98216823564706"><ele>186.33333333333334</ele><time>2026-04-19T13:58:38Z</time></trkpt><trkpt lat="48.34231494732679" lon="-3.9820513809364906"><ele>186.0</ele><time>2026-04-19T13:58:40Z</time></trkpt><trkpt lat="48.3423478628303" lon="-3.9819622650865494"><ele>186.0</ele><time>2026-04-19T13:58:42Z</time></trkpt><trkpt lat="48.34234112090328" lon="-3.981825346082132"><ele>186.0</ele><time>2026-04-19T13:58:44Z</time></trkpt><trkpt lat="48.3423351193482" lon="-3.981677752186224"><ele>186.0</ele><time>2026-04-19T13:58:46Z</time></trkpt><trkpt lat="48.34230210844999" lon="-3.981572260676284"><ele>186.0</ele><time>2026-04-19T13:58:50Z</time></trkpt><trkpt lat="48.34229648808648" lon="-3.981462451239828"><ele>186.0</ele><time>2026-04-19T13:58:52Z</time></trkpt><trkpt lat="48.34233482588093" lon="-3.9813768368599662"><ele>186.0</ele><time>2026-04-19T13:58:54Z</time></trkpt><trkpt lat="48.342362386988064" lon="-3.9812612559237874"><ele>186.85714285714286</ele><time>2026-04-19T13:59:08Z</time></trkpt><trkpt lat="48.34233865352075" lon="-3.981171153512251"><ele>187.71428571428572</ele><time>2026-04-19T13:59:36Z</time></trkpt><trkpt lat="48.34234614239392" lon="-3.981068505998103"><ele>188.57142857142856</ele><time>2026-04-19T14:00:05Z</time></trkpt><trkpt lat="48.34241194488527" lon="-3.981040947107254"><ele>189.42857142857144</ele><time>2026-04-19T14:00:10Z</time></trkpt><trkpt lat="48.342417347923224" lon="-3.9809311251532056"><ele>190.28571428571428</ele><time>2026-04-19T14:00:14Z</time></trkpt><trkpt lat="48.34244265683948" lon="-3.98081678190883"><ele>191.14285714285714</ele><time>2026-04-19T14:00:16Z</time></trkpt><trkpt lat="48.342459662794745" lon="-3.9806971469519454"><ele>192.0</ele><time>2026-04-19T14:00:21Z</time></trkpt><trkpt lat="48.34246866212111" lon="-3.980587015230967"><ele>192.57142857142856</ele><time>2026-04-19T14:00:39Z</time></trkpt><trkpt lat="48.34241957772066" lon="-3.9805074950898964"><ele>193.14285714285714</ele><time>2026-04-19T14:00:42Z</time></trkpt><trkpt lat="48.34241994924514" lon="-3.980382593804429"><ele>193.71428571428572</ele><time>2026-04-19T14:00:45Z</time></trkpt><trkpt lat="48.34243179685205" lon="-3.98028447539972"><ele>194.28571428571428</ele><time>2026-04-19T14:00:49Z</time></trkpt><trkpt lat="48.342492605297146" lon="-3.980233692521582"><ele>194.85714285714286</ele><time>2026-04-19T14:00:52Z</time></trkpt><trkpt lat="48.34245237203958" lon="-3.980154208772179"><ele>195.42857142857142</ele><time>2026-04-19T14:01:04Z</time></trkpt><trkpt lat="48.342475270257" lon="-3.9800619795374317"><ele>196.0</ele><time>2026-04-19T14:01:15Z</time></trkpt><trkpt lat="48.34252709587673" lon="-3.980003710739735"><ele>196.57142857142858</ele><time>2026-04-19T14:01:19Z</time></trkpt><trkpt lat="48.342543918521635" lon="-3.979859747240585"><ele>197.14285714285714</ele><time>2026-04-19T14:01:22Z</time></trkpt><trkpt lat="48.34253762845597" lon="-3.979760230540492"><ele>197.71428571428572</ele><time>2026-04-19T14:01:24Z</time></trkpt><trkpt lat="48.342484437658165" lon="-3.979693038364679"><ele>198.28571428571428</ele><time>2026-04-19T14:01:33Z</time></trkpt><trkpt lat="48.34241484008459" lon="-3.9797183769038"><ele>198.85714285714286</ele><time>2026-04-19T14:01:39Z</time></trkpt><trkpt lat="48.34235126305582" lon="-3.9797227335234933"><ele>199.42857142857144</ele><time>2026-04-19T14:01:46Z</time></trkpt><trkpt lat="48.342288432285045" lon="-3.9797505241462137"><ele>200.0</ele><time>2026-04-19T14:01:48Z</time></trkpt><trkpt lat="48.34223125785968" lon="-3.9798240908297124"><ele>201.42857142857144</ele><time>2026-04-19T14:01:59Z</time></trkpt><trkpt lat="48.3421797260274" lon="-3.9798806272241247"><ele>202.85714285714286</ele><time>2026-04-19T14:02:03Z</time></trkpt><trkpt lat="48.34211594358462" lon="-3.9798682291112932"><ele>204.28571428571428</ele><time>2026-04-19T14:02:09Z</time></trkpt><trkpt lat="48.34203644209592" lon="-3.9798546145683673"><ele>205.71428571428572</ele><time>2026-04-19T14:02:11Z</time></trkpt><trkpt lat="48.34196974650479" lon="-3.9798841763415007"><ele>207.14285714285714</ele><time>2026-04-19T14:02:16Z</time></trkpt><trkpt lat="48.34188491602673" lon="-3.9799260725863945"><ele>208.57142857142858</ele><time>2026-04-19T14:02:18Z</time></trkpt><trkpt lat="48.34181480385606" lon="-3.979968431263464"><ele>210.0</ele><time>2026-04-19T14:02:33Z</time></trkpt><trkpt lat="48.34175390112249" lon="-3.9798919370639587"><ele>210.0</ele><time>2026-04-19T14:02:35Z</time></trkpt><trkpt lat="48.34167442940064" lon="-3.979856796751747"><ele>210.0</ele><time>2026-04-19T14:02:37Z</time></trkpt><trkpt lat="48.341645113912634" lon="-3.979767282014279"><ele>210.0</ele><time>2026-04-19T14:02:39Z</time></trkpt><trkpt lat="48.34160864629452" lon="-3.9796568241273875"><ele>210.0</ele><time>2026-04-19T14:02:41Z</time></trkpt><trkpt lat="48.341590286425465" lon="-3.9795463876070873"><ele>210.0</ele><time>2026-04-19T14:02:45Z</time></trkpt><trkpt lat="48.341601203034706" lon="-3.9794412233888248"><ele>210.0</ele><time>2026-04-19T14:02:47Z</time></trkpt><trkpt lat="48.34156729739934" lon="-3.9793472035134148"><ele>210.0</ele><time>2026-04-19T14:02:51Z</time></trkpt><trkpt lat="48.341503246774344" lon="-3.979275171954572"><ele>212.6</ele><time>2026-04-19T14:02:59Z</time></trkpt><trkpt lat="48.34152568129757" lon="-3.9791530002974427"><ele>215.2</ele><time>2026-04-19T14:03:03Z</time></trkpt><trkpt lat="48.341605184359494" lon="-3.979018236368078"><ele>217.8</ele><time>2026-04-19T14:03:05Z</time></trkpt><trkpt lat="48.34165860150796" lon="-3.9789154377988445"><ele>220.4</ele><time>2026-04-19T14:03:06Z</time></trkpt><trkpt lat="48.34171680195526" lon="-3.978791340304224"><ele>223.0</ele><time>2026-04-19T14:03:07Z</time></trkpt><trkpt lat="48.34177908271068" lon="-3.978671251572253"><ele>222.99999999999997</ele><time>2026-04-19T14:03:08Z</time></trkpt><trkpt lat="48.3418412750392" lon="-3.978563041325595"><ele>223.0</ele><time>2026-04-19T14:03:09Z</time></trkpt><trkpt lat="48.34188491827875" lon="-3.9784357086416176"><ele>223.0</ele><time>2026-04-19T14:03:10Z</time></trkpt><trkpt lat="48.34192064948414" lon="-3.978327262529077"><ele>223.0</ele><time>2026-04-19T14:03:11Z</time></trkpt><trkpt lat="48.34195650382666" lon="-3.9782015067774363"><ele>222.99999999999997</ele><time>2026-04-19T14:03:12Z</time></trkpt><trkpt lat="48.34197492197723" lon="-3.9780795392589163"><ele>223.0</ele><time>2026-04-19T14:03:13Z</time></trkpt><trkpt lat="48.34199560825086" lon="-3.9779845526407573"><ele>223.16666666666666</ele><time>2026-04-19T14:03:14Z</time></trkpt><trkpt lat="48.3420589337613" lon="-3.977830140483058"><ele>223.33333333333331</ele><time>2026-04-19T14:03:16Z</time></trkpt><trkpt lat="48.3421170545571" lon="-3.9777059174924694"><ele>223.5</ele><time>2026-04-19T14:03:18Z</time></trkpt><trkpt lat="48.34215570421301" lon="-3.9776060337168486"><ele>223.66666666666669</ele><time>2026-04-19T14:03:20Z</time></trkpt><trkpt lat="48.34222333661224" lon="-3.977593792112107"><ele>223.83333333333334</ele><time>2026-04-19T14:03:24Z</time></trkpt><trkpt lat="48.342297819282" lon="-3.9776139972196964"><ele>224.0</ele><time>2026-04-19T14:03:45Z</time></trkpt><trkpt lat="48.342248920722405" lon="-3.9776771237044484"><ele>224.00000000000003</ele><time>2026-04-19T14:03:55Z</time></trkpt><trkpt lat="48.34218130610157" lon="-3.9776166894268985"><ele>224.0</ele><time>2026-04-19T14:03:58Z</time></trkpt><trkpt lat="48.34209580296479" lon="-3.977597408986867"><ele>224.0</ele><time>2026-04-19T14:04:01Z</time></trkpt><trkpt lat="48.34201723204" lon="-3.9775830979754154"><ele>224.0</ele><time>2026-04-19T14:04:04Z</time></trkpt><trkpt lat="48.3419765848613" lon="-3.9774670082201022"><ele>224.00000000000003</ele><time>2026-04-19T14:04:27Z</time></trkpt><trkpt lat="48.34192457923431" lon="-3.9773702740711023"><ele>224.0</ele><time>2026-04-19T14:04:30Z</time></trkpt><trkpt lat="48.341942881605" lon="-3.977269122134669"><ele>224.6</ele><time>2026-04-19T14:04:37Z</time></trkpt><trkpt lat="48.34201808915784" lon="-3.977258515437164"><ele>225.2</ele><time>2026-04-19T14:04:40Z</time></trkpt><trkpt lat="48.342094039398816" lon="-3.9771919589724605"><ele>225.79999999999998</ele><time>2026-04-19T14:04:43Z</time></trkpt><trkpt lat="48.34207642263954" lon="-3.9770670551447154"><ele>226.39999999999998</ele><time>2026-04-19T14:04:45Z</time></trkpt><trkpt lat="48.342075838595164" lon="-3.976809741079609"><ele>227.0</ele><time>2026-04-19T14:04:48Z</time></trkpt><trkpt lat="48.34205757728338" lon="-3.9766649166894106"><ele>228.00000000000003</ele><time>2026-04-19T14:04:50Z</time></trkpt><trkpt lat="48.34208081682844" lon="-3.976538098344295"><ele>229.0</ele><time>2026-04-19T14:04:53Z</time></trkpt><trkpt lat="48.34214040180086" lon="-3.9764621798890074"><ele>230.0</ele><time>2026-04-19T14:05:09Z</time></trkpt><trkpt lat="48.34219008938628" lon="-3.9763909875937196"><ele>231.0</ele><time>2026-04-19T14:05:12Z</time></trkpt><trkpt lat="48.34226874733825" lon="-3.9764118849804344"><ele>232.00000000000003</ele><time>2026-04-19T14:05:16Z</time></trkpt><trkpt lat="48.342331352422946" lon="-3.97646828361608"><ele>233.0</ele><time>2026-04-19T14:05:20Z</time></trkpt><trkpt lat="48.342401874645624" lon="-3.9764285131075483"><ele>229.00000000000003</ele><time>2026-04-19T14:05:29Z</time></trkpt><trkpt lat="48.34247964363813" lon="-3.976407387292031"><ele>225.0</ele><time>2026-04-19T14:05:32Z</time></trkpt><trkpt lat="48.34256250090614" lon="-3.97631888001992"><ele>221.0</ele><time>2026-04-19T14:05:35Z</time></trkpt><trkpt lat="48.34259011843133" lon="-3.9762243699074133"><ele>217.0</ele><time>2026-04-19T14:05:37Z</time></trkpt><trkpt lat="48.34262094484003" lon="-3.976111255256813"><ele>213.00000000000003</ele><time>2026-04-19T14:05:46Z</time></trkpt><trkpt lat="48.34265182342529" lon="-3.9759731974359243"><ele>209.0</ele><time>2026-04-19T14:05:48Z</time></trkpt><trkpt lat="48.34269977143706" lon="-3.975862795405598"><ele>210.33333333333334</ele><time>2026-04-19T14:05:50Z</time></trkpt><trkpt lat="48.34268853675611" lon="-3.975736150749644"><ele>211.66666666666669</ele><time>2026-04-19T14:05:53Z</time></trkpt><trkpt lat="48.342721905154136" lon="-3.975597950085917"><ele>213.0</ele><time>2026-04-19T14:05:55Z</time></trkpt><trkpt lat="48.342772319490685" lon="-3.9754902300728294"><ele>214.33333333333331</ele><time>2026-04-19T14:05:57Z</time></trkpt><trkpt lat="48.34276904753808" lon="-3.9753758496796783"><ele>215.66666666666666</ele><time>2026-04-19T14:06:00Z</time></trkpt><trkpt lat="48.34280809497113" lon="-3.975300402972009"><ele>217.0</ele><time>2026-04-19T14:06:08Z</time></trkpt><trkpt lat="48.342873879986364" lon="-3.975262400347773"><ele>217.0</ele><time>2026-04-19T14:06:10Z</time></trkpt><trkpt lat="48.342882727960685" lon="-3.9751523582945394"><ele>217.0</ele><time>2026-04-19T14:06:13Z</time></trkpt><trkpt lat="48.34288475996895" lon="-3.9750522438879115"><ele>217.0</ele><time>2026-04-19T14:06:15Z</time></trkpt><trkpt lat="48.342819214693584" lon="-3.9750259079834285"><ele>217.0</ele><time>2026-04-19T14:06:19Z</time></trkpt><trkpt lat="48.342815398408845" lon="-3.9749258407098123"><ele>217.0</ele><time>2026-04-19T14:06:22Z</time></trkpt><trkpt lat="48.34277269859374" lon="-3.9748035403599404"><ele>217.0</ele><time>2026-04-19T14:06:25Z</time></trkpt><trkpt lat="48.34276008080738" lon="-3.9746919994769527"><ele>217.0</ele><time>2026-04-19T14:06:27Z</time></trkpt><trkpt lat="48.34272983464836" lon="-3.9745910462791993"><ele>217.83333333333331</ele><time>2026-04-19T14:06:30Z</time></trkpt><trkpt lat="48.34266533323507" lon="-3.974581009392165"><ele>218.66666666666666</ele><time>2026-04-19T14:06:40Z</time></trkpt><trkpt lat="48.34259902338706" lon="-3.974542473296799"><ele>219.5</ele><time>2026-04-19T14:06:56Z</time></trkpt><trkpt lat="48.342590313984516" lon="-3.974393739393614"><ele>220.33333333333331</ele><time>2026-04-19T14:07:06Z</time></trkpt><trkpt lat="48.34256859417788" lon="-3.974297563652253"><ele>221.16666666666666</ele><time>2026-04-19T14:07:08Z</time></trkpt><trkpt lat="48.34251384499097" lon="-3.9741990019362237"><ele>222.0</ele><time>2026-04-19T14:07:10Z</time></trkpt><trkpt lat="48.342522393924995" lon="-3.9741050454390225"><ele>222.0</ele><time>2026-04-19T14:07:11Z</time></trkpt><trkpt lat="48.34252679272951" lon="-3.973942141122124"><ele>222.0</ele><time>2026-04-19T14:07:13Z</time></trkpt><trkpt lat="48.342523824004616" lon="-3.973779704516439"><ele>222.0</ele><time>2026-04-19T14:07:15Z</time></trkpt><trkpt lat="48.342481874472604" lon="-3.9736847628122813"><ele>222.0</ele><time>2026-04-19T14:07:17Z</time></trkpt><trkpt lat="48.3424443265215" lon="-3.9736068065086836"><ele>222.0</ele><time>2026-04-19T14:07:19Z</time></trkpt><trkpt lat="48.342449750520196" lon="-3.9734827552396994"><ele>222.0</ele><time>2026-04-19T14:07:23Z</time></trkpt><trkpt lat="48.34241323773669" lon="-3.973380411387764"><ele>221.66666666666666</ele><time>2026-04-19T14:07:26Z</time></trkpt><trkpt lat="48.34239754387911" lon="-3.9732866549854893"><ele>221.33333333333331</ele><time>2026-04-19T14:07:29Z</time></trkpt><trkpt lat="48.34241738424764" lon="-3.973170576434322"><ele>221.0</ele><time>2026-04-19T14:07:33Z</time></trkpt><trkpt lat="48.34236233950235" lon="-3.9730985428705305"><ele>220.66666666666666</ele><time>2026-04-19T14:10:20Z</time></trkpt><trkpt lat="48.34233514059645" lon="-3.972969241607785"><ele>220.33333333333331</ele><time>2026-04-19T14:10:23Z</time></trkpt><trkpt lat="48.3423167842577" lon="-3.972793417196228"><ele>220.0</ele><time>2026-04-19T14:10:25Z</time></trkpt><trkpt lat="48.34228788854422" lon="-3.972698015261253"><ele>219.99999999999997</ele><time>2026-04-19T14:10:27Z</time></trkpt><trkpt lat="48.34230236780645" lon="-3.9725622286565243"><ele>220.0</ele><time>2026-04-19T14:10:29Z</time></trkpt><trkpt lat="48.34228538744426" lon="-3.9724421214270973"><ele>220.0</ele><time>2026-04-19T14:10:31Z</time></trkpt><trkpt lat="48.34224564599631" lon="-3.972367770260032"><ele>220.0</ele><time>2026-04-19T14:10:33Z</time></trkpt><trkpt lat="48.34218235345764" lon="-3.972276480545167"><ele>219.99999999999997</ele><time>2026-04-19T14:10:36Z</time></trkpt><trkpt lat="48.342126676188435" lon="-3.97220330615011"><ele>220.0</ele><time>2026-04-19T14:10:38Z</time></trkpt><trkpt lat="48.34207238234943" lon="-3.9721475598511677"><ele>219.99999999999997</ele><time>2026-04-19T14:10:40Z</time></trkpt><trkpt lat="48.342150700688954" lon="-3.9721434990674958"><ele>220.0</ele><time>2026-04-19T14:11:08.999Z</time></trkpt><trkpt lat="48.34221274046864" lon="-3.9721979959282128"><ele>220.0</ele><time>2026-04-19T14:11:11.999Z</time></trkpt><trkpt lat="48.342218230403105" lon="-3.972293933504367"><ele>220.0</ele><time>2026-04-19T14:11:21Z</time></trkpt><trkpt lat="48.342233453071124" lon="-3.9724144435509214"><ele>219.99999999999997</ele><time>2026-04-19T14:11:24Z</time></trkpt><trkpt lat="48.34226245120162" lon="-3.972504985611957"><ele>220.0</ele><time>2026-04-19T14:11:28Z</time></trkpt><trkpt lat="48.34227820319569" lon="-3.9726518263923714"><ele>219.83333333333331</ele><time>2026-04-19T14:11:31Z</time></trkpt><trkpt lat="48.34230308044028" lon="-3.972499626262824"><ele>219.66666666666666</ele><time>2026-04-19T14:11:37Z</time></trkpt><trkpt lat="48.342279492949494" lon="-3.9723817044871987"><ele>219.5</ele><time>2026-04-19T14:11:38Z</time></trkpt><trkpt lat="48.34226671409846" lon="-3.972234193651377"><ele>219.33333333333331</ele><time>2026-04-19T14:11:39Z</time></trkpt><trkpt lat="48.3422621567318" lon="-3.9720978501448125"><ele>219.16666666666666</ele><time>2026-04-19T14:11:40Z</time></trkpt><trkpt lat="48.34224357394285" lon="-3.971993430275118"><ele>219.0</ele><time>2026-04-19T14:11:41Z</time></trkpt><trkpt lat="48.34224031049145" lon="-3.971885488882185"><ele>219.0</ele><time>2026-04-19T14:11:43Z</time></trkpt><trkpt lat="48.3422308293217" lon="-3.9717773219113943"><ele>219.0</ele><time>2026-04-19T14:11:53Z</time></trkpt><trkpt lat="48.34225516591901" lon="-3.9716640760615856"><ele>219.0</ele><time>2026-04-19T14:11:55Z</time></trkpt><trkpt lat="48.34233132365737" lon="-3.9715875281039623"><ele>219.0</ele><time>2026-04-19T14:11:57Z</time></trkpt><trkpt lat="48.34240458015652" lon="-3.9715003022819118"><ele>219.0</ele><time>2026-04-19T14:11:59Z</time></trkpt><trkpt lat="48.342410972745576" lon="-3.9713971224479856"><ele>219.0</ele><time>2026-04-19T14:12:02Z</time></trkpt><trkpt lat="48.34239430482944" lon="-3.97129562183609"><ele>219.16666666666666</ele><time>2026-04-19T14:12:06Z</time></trkpt><trkpt lat="48.34232869104709" lon="-3.971232499585621"><ele>219.33333333333331</ele><time>2026-04-19T14:12:08Z</time></trkpt><trkpt lat="48.34229236408625" lon="-3.9711329632504238"><ele>219.5</ele><time>2026-04-19T14:12:11Z</time></trkpt><trkpt lat="48.34224746761649" lon="-3.9709839561843476"><ele>219.66666666666666</ele><time>2026-04-19T14:12:13Z</time></trkpt><trkpt lat="48.34219492135157" lon="-3.970914231794205"><ele>219.83333333333331</ele><time>2026-04-19T14:12:14Z</time></trkpt><trkpt lat="48.34214660898279" lon="-3.9708315338338105"><ele>220.0</ele><time>2026-04-19T14:12:15Z</time></trkpt><trkpt lat="48.342118942832684" lon="-3.9706861016173463"><ele>222.66666666666666</ele><time>2026-04-19T14:12:17Z</time></trkpt><trkpt lat="48.342120577803826" lon="-3.970578996904027"><ele>225.33333333333331</ele><time>2026-04-19T14:12:20Z</time></trkpt><trkpt lat="48.34208393941865" lon="-3.9704652176784534"><ele>228.0</ele><time>2026-04-19T14:12:22Z</time></trkpt><trkpt lat="48.34206738166899" lon="-3.9703567354077802"><ele>230.66666666666669</ele><time>2026-04-19T14:12:24Z</time></trkpt><trkpt lat="48.34201524016675" lon="-3.9701993995298306"><ele>233.33333333333334</ele><time>2026-04-19T14:12:26Z</time></trkpt><trkpt lat="48.34197301690351" lon="-3.9701258182967987"><ele>236.0</ele><time>2026-04-19T14:12:27Z</time></trkpt><trkpt lat="48.341962705347456" lon="-3.9699789609817526"><ele>236.16666666666669</ele><time>2026-04-19T14:12:30Z</time></trkpt><trkpt lat="48.34192676202789" lon="-3.969883305953851"><ele>236.33333333333334</ele><time>2026-04-19T14:12:32Z</time></trkpt><trkpt lat="48.34191701439795" lon="-3.9697710195904974"><ele>236.5</ele><time>2026-04-19T14:12:34Z</time></trkpt><trkpt lat="48.34191123729785" lon="-3.9696512506085617"><ele>236.66666666666669</ele><time>2026-04-19T14:12:37Z</time></trkpt><trkpt lat="48.34198077499403" lon="-3.969600982159675"><ele>236.83333333333334</ele><time>2026-04-19T14:12:44Z</time></trkpt><trkpt lat="48.342067778986326" lon="-3.969604831092011"><ele>237.0</ele><time>2026-04-19T14:12:48Z</time></trkpt><trkpt lat="48.34211533914395" lon="-3.9696670632457143"><ele>237.0</ele><time>2026-04-19T14:12:50Z</time></trkpt><trkpt lat="48.34219227768711" lon="-3.9696170031798723"><ele>237.0</ele><time>2026-04-19T14:12:53Z</time></trkpt><trkpt lat="48.342211300596624" lon="-3.969490402311214"><ele>237.0</ele><time>2026-04-19T14:12:56Z</time></trkpt><trkpt lat="48.34212582091215" lon="-3.9694649887460907"><ele>237.0</ele><time>2026-04-19T14:13:46Z</time></trkpt><trkpt lat="48.34205380138613" lon="-3.9694703034852834"><ele>237.0</ele><time>2026-04-19T14:13:47Z</time></trkpt><trkpt lat="48.341965393021866" lon="-3.96948098935912"><ele>237.0</ele><time>2026-04-19T14:13:48Z</time></trkpt><trkpt lat="48.34187468993725" lon="-3.9695050933296017"><ele>237.0</ele><time>2026-04-19T14:13:49Z</time></trkpt><trkpt lat="48.34178472725872" lon="-3.969527717234946"><ele>237.0</ele><time>2026-04-19T14:13:50Z</time></trkpt><trkpt lat="48.341681377125326" lon="-3.969556224497665"><ele>237.0</ele><time>2026-04-19T14:13:51Z</time></trkpt><trkpt lat="48.34160427409013" lon="-3.969597871540503"><ele>237.0</ele><time>2026-04-19T14:13:52Z</time></trkpt><trkpt lat="48.34154209024257" lon="-3.9696575592150998"><ele>237.0</ele><time>2026-04-19T14:13:53Z</time></trkpt><trkpt lat="48.34150395846879" lon="-3.9697485493570426"><ele>237.0</ele><time>2026-04-19T14:13:54Z</time></trkpt><trkpt lat="48.341483307529195" lon="-3.969877392691653"><ele>237.0</ele><time>2026-04-19T14:13:55Z</time></trkpt><trkpt lat="48.34148057264399" lon="-3.9700089990634484"><ele>237.0</ele><time>2026-04-19T14:13:56Z</time></trkpt><trkpt lat="48.34148203746455" lon="-3.970147373125059"><ele>237.0</ele><time>2026-04-19T14:13:57Z</time></trkpt><trkpt lat="48.34146289870461" lon="-3.970238102278679"><ele>237.0</ele><time>2026-04-19T14:13:58Z</time></trkpt><trkpt lat="48.341391048569484" lon="-3.9703105750004903"><ele>237.0</ele><time>2026-04-19T14:14:00Z</time></trkpt><trkpt lat="48.34124926600351" lon="-3.9702388394986916"><ele>241.5</ele><time>2026-04-19T14:14:02Z</time></trkpt><trkpt lat="48.34112015532467" lon="-3.970189705123033"><ele>246.0</ele><time>2026-04-19T14:14:03Z</time></trkpt><trkpt lat="48.34100220433276" lon="-3.970138491883505"><ele>250.5</ele><time>2026-04-19T14:14:04Z</time></trkpt><trkpt lat="48.34084941439538" lon="-3.970064341944123"><ele>255.0</ele><time>2026-04-19T14:14:05Z</time></trkpt><trkpt lat="48.34069911016327" lon="-3.969995233015379"><ele>261.0</ele><time>2026-04-19T14:14:06Z</time></trkpt><trkpt lat="48.34054193880481" lon="-3.9699313862601255"><ele>267.0</ele><time>2026-04-19T14:14:07Z</time></trkpt><trkpt lat="48.3403833982018" lon="-3.9698598286615496"><ele>273.0</ele><time>2026-04-19T14:14:08Z</time></trkpt><trkpt lat="48.34025805578441" lon="-3.969800091182269"><ele>273.0</ele><time>2026-04-19T14:14:09Z</time></trkpt><trkpt lat="48.340135190607484" lon="-3.9697429381750675"><ele>273.0</ele><time>2026-04-19T14:14:10Z</time></trkpt><trkpt lat="48.34002645384396" lon="-3.969696929644344"><ele>273.0</ele><time>2026-04-19T14:14:11Z</time></trkpt><trkpt lat="48.339921845161165" lon="-3.9696616560093534"><ele>273.0</ele><time>2026-04-19T14:14:12Z</time></trkpt><trkpt lat="48.33982143463593" lon="-3.9696428831253447"><ele>276.75</ele><time>2026-04-19T14:14:13Z</time></trkpt><trkpt lat="48.33969437573492" lon="-3.9696400787820374"><ele>280.5</ele><time>2026-04-19T14:14:14Z</time></trkpt><trkpt lat="48.33954972667545" lon="-3.9696441572925685"><ele>284.25</ele><time>2026-04-19T14:14:15Z</time></trkpt><trkpt lat="48.33939567401927" lon="-3.9696997540994867"><ele>288.0</ele><time>2026-04-19T14:14:16Z</time></trkpt><trkpt lat="48.33927866217697" lon="-3.9697303435854363"><ele>288.0</ele><time>2026-04-19T14:14:17Z</time></trkpt><trkpt lat="48.33912850406879" lon="-3.9697534530120877"><ele>288.0</ele><time>2026-04-19T14:14:18Z</time></trkpt><trkpt lat="48.33898709347191" lon="-3.969757776569827"><ele>288.0</ele><time>2026-04-19T14:14:19Z</time></trkpt><trkpt lat="48.33886984310895" lon="-3.9697577765639163"><ele>288.0</ele><time>2026-04-19T14:14:20Z</time></trkpt><trkpt lat="48.33874586258282" lon="-3.969762286684639"><ele>290.0</ele><time>2026-04-19T14:14:21Z</time></trkpt><trkpt lat="48.33862072699695" lon="-3.969759691163504"><ele>292.0</ele><time>2026-04-19T14:14:22Z</time></trkpt><trkpt lat="48.33849203932017" lon="-3.9697705708284206"><ele>294.0</ele><time>2026-04-19T14:14:23Z</time></trkpt><trkpt lat="48.33837307343438" lon="-3.969783414743438"><ele>296.0</ele><time>2026-04-19T14:14:24Z</time></trkpt><trkpt lat="48.33826484079316" lon="-3.969787957081193"><ele>296.0</ele><time>2026-04-19T14:14:25Z</time></trkpt><trkpt lat="48.33816718918332" lon="-3.9697937837798425"><ele>296.0</ele><time>2026-04-19T14:14:26Z</time></trkpt><trkpt lat="48.33807235783178" lon="-3.9698054922091663"><ele>296.0</ele><time>2026-04-19T14:14:27Z</time></trkpt><trkpt lat="48.33799233157791" lon="-3.969805648963327"><ele>296.0</ele><time>2026-04-19T14:14:28Z</time></trkpt><trkpt lat="48.33792788705912" lon="-3.9698017252801274"><ele>296.0</ele><time>2026-04-19T14:14:29Z</time></trkpt><trkpt lat="48.33780901026703" lon="-3.969808201878656"><ele>297.2</ele><time>2026-04-19T14:14:31Z</time></trkpt><trkpt lat="48.3377443097516" lon="-3.96981910841989"><ele>298.40000000000003</ele><time>2026-04-19T14:14:32Z</time></trkpt><trkpt lat="48.337671350606556" lon="-3.9698144797770514"><ele>299.6</ele><time>2026-04-19T14:14:33Z</time></trkpt><trkpt lat="48.337585237206326" lon="-3.9698067446748095"><ele>300.8</ele><time>2026-04-19T14:14:34Z</time></trkpt><trkpt lat="48.337477437791954" lon="-3.9698075929050067"><ele>302.0</ele><time>2026-04-19T14:14:35Z</time></trkpt><trkpt lat="48.33734850345116" lon="-3.969809309967063"><ele>303.25</ele><time>2026-04-19T14:14:36Z</time></trkpt><trkpt lat="48.33720384213898" lon="-3.9698154307445876"><ele>304.5</ele><time>2026-04-19T14:14:37Z</time></trkpt><trkpt lat="48.337059108520364" lon="-3.9698240565535814"><ele>305.75</ele><time>2026-04-19T14:14:38Z</time></trkpt><trkpt lat="48.33691205486213" lon="-3.969832551479337"><ele>307.0</ele><time>2026-04-19T14:14:39Z</time></trkpt><trkpt lat="48.33677618724692" lon="-3.9698382667030137"><ele>307.0</ele><time>2026-04-19T14:14:40Z</time></trkpt><trkpt lat="48.336658817333706" lon="-3.969841445963578"><ele>307.0</ele><time>2026-04-19T14:14:41Z</time></trkpt><trkpt lat="48.33655985608922" lon="-3.969848067379708"><ele>307.0</ele><time>2026-04-19T14:14:42Z</time></trkpt><trkpt lat="48.33646477599487" lon="-3.9698563754552656"><ele>307.0</ele><time>2026-04-19T14:14:42.999Z</time></trkpt><trkpt lat="48.33638864893082" lon="-3.969868888930559"><ele>307.0</ele><time>2026-04-19T14:14:43.999Z</time></trkpt><trkpt lat="48.33630673740117" lon="-3.969894744105162"><ele>307.0</ele><time>2026-04-19T14:14:44.999Z</time></trkpt><trkpt lat="48.336332800628334" lon="-3.9696405453871377"><ele>307.0</ele><time>2026-04-19T14:14:47.999Z</time></trkpt><trkpt lat="48.33637312063329" lon="-3.9694625288673797"><ele>307.0</ele><time>2026-04-19T14:14:48.999Z</time></trkpt><trkpt lat="48.33640088135998" lon="-3.9692385683517832"><ele>307.0</ele><time>2026-04-19T14:14:49.999Z</time></trkpt><trkpt lat="48.33641142005285" lon="-3.969009816477253"><ele>307.0</ele><time>2026-04-19T14:14:50.999Z</time></trkpt><trkpt lat="48.336414031095266" lon="-3.9687541645689843"><ele>307.0</ele><time>2026-04-19T14:14:51.999Z</time></trkpt><trkpt lat="48.336420697237685" lon="-3.968547766970927"><ele>307.0</ele><time>2026-04-19T14:14:52.999Z</time></trkpt><trkpt lat="48.336422697836994" lon="-3.968403822912901"><ele>307.0</ele><time>2026-04-19T14:14:53.999Z</time></trkpt><trkpt lat="48.336426671209296" lon="-3.9683045940252466"><ele>306.8</ele><time>2026-04-19T14:14:54.999Z</time></trkpt><trkpt lat="48.33642594446085" lon="-3.968202328580653"><ele>306.6</ele><time>2026-04-19T14:14:56.999Z</time></trkpt><trkpt lat="48.33644012585201" lon="-3.9680032842513535"><ele>306.40000000000003</ele><time>2026-04-19T14:14:58.999Z</time></trkpt><trkpt lat="48.336451132713826" lon="-3.9678319400344635"><ele>306.2</ele><time>2026-04-19T14:14:59.999Z</time></trkpt><trkpt lat="48.33646358263753" lon="-3.9676330744015127"><ele>306.0</ele><time>2026-04-19T14:15:00.999Z</time></trkpt><trkpt lat="48.33644327643522" lon="-3.967428508559877"><ele>305.25</ele><time>2026-04-19T14:15:01.999Z</time></trkpt><trkpt lat="48.33643547698775" lon="-3.96721643613808"><ele>304.5</ele><time>2026-04-19T14:15:02.999Z</time></trkpt><trkpt lat="48.336432802637766" lon="-3.9669923082635847"><ele>303.75</ele><time>2026-04-19T14:15:03.999Z</time></trkpt><trkpt lat="48.33641180263534" lon="-3.9667746762907368"><ele>303.0</ele><time>2026-04-19T14:15:04.999Z</time></trkpt><trkpt lat="48.33638387016427" lon="-3.966553168289093"><ele>303.0</ele><time>2026-04-19T14:15:05.999Z</time></trkpt><trkpt lat="48.33635081300343" lon="-3.9663229245882134"><ele>303.0</ele><time>2026-04-19T14:15:06.999Z</time></trkpt><trkpt lat="48.336299327797526" lon="-3.96609838225226"><ele>303.0</ele><time>2026-04-19T14:15:07.999Z</time></trkpt><trkpt lat="48.33626579691628" lon="-3.9658606449832456"><ele>303.75</ele><time>2026-04-19T14:15:08.999Z</time></trkpt><trkpt lat="48.336220907317774" lon="-3.9656406190345423"><ele>304.5</ele><time>2026-04-19T14:15:09.999Z</time></trkpt><trkpt lat="48.336152831947885" lon="-3.965462020841769"><ele>305.25</ele><time>2026-04-19T14:15:10.999Z</time></trkpt><trkpt lat="48.33609550523908" lon="-3.9652773198575684"><ele>306.0</ele><time>2026-04-19T14:15:11.999Z</time></trkpt><trkpt lat="48.336042317731135" lon="-3.9650882502791935"><ele>306.6</ele><time>2026-04-19T14:15:12.999Z</time></trkpt><trkpt lat="48.33598740855226" lon="-3.9649192562157283"><ele>307.20000000000005</ele><time>2026-04-19T14:15:13.999Z</time></trkpt><trkpt lat="48.335945718614695" lon="-3.9647586314379577"><ele>307.79999999999995</ele><time>2026-04-19T14:15:14.999Z</time></trkpt><trkpt lat="48.33593173097887" lon="-3.964640060934565"><ele>308.4</ele><time>2026-04-19T14:15:15.999Z</time></trkpt><trkpt lat="48.335949055808754" lon="-3.9645118969136437"><ele>309.0</ele><time>2026-04-19T14:15:16.999Z</time></trkpt><trkpt lat="48.33594876479814" lon="-3.964344467257375"><ele>310.6666666666667</ele><time>2026-04-19T14:15:17.999Z</time></trkpt><trkpt lat="48.335958949921995" lon="-3.9640900202632006"><ele>312.33333333333337</ele><time>2026-04-19T14:15:18.999Z</time></trkpt><trkpt lat="48.335965779305816" lon="-3.9638432516197044"><ele>314.0</ele><time>2026-04-19T14:15:19.999Z</time></trkpt><trkpt lat="48.33597513481314" lon="-3.963619134834025"><ele>314.0</ele><time>2026-04-19T14:15:20.999Z</time></trkpt><trkpt lat="48.335987262609365" lon="-3.9634055282479803"><ele>314.0</ele><time>2026-04-19T14:15:21.999Z</time></trkpt><trkpt lat="48.3359992497797" lon="-3.9631971355709017"><ele>314.0</ele><time>2026-04-19T14:15:22.999Z</time></trkpt><trkpt lat="48.336012859016336" lon="-3.9629981470992997"><ele>314.0</ele><time>2026-04-19T14:15:23.999Z</time></trkpt><trkpt lat="48.33603359753648" lon="-3.9628274559016416"><ele>315.5</ele><time>2026-04-19T14:15:24.999Z</time></trkpt><trkpt lat="48.33604417439692" lon="-3.9626829280883165"><ele>317.0</ele><time>2026-04-19T14:15:26Z</time></trkpt><trkpt lat="48.3360479424823" lon="-3.962552395054513"><ele>318.5</ele><time>2026-04-19T14:15:27Z</time></trkpt><trkpt lat="48.33604622094531" lon="-3.9624310510088327"><ele>320.0</ele><time>2026-04-19T14:15:28Z</time></trkpt><trkpt lat="48.33604747002834" lon="-3.962315935886789"><ele>321.5</ele><time>2026-04-19T14:15:29Z</time></trkpt><trkpt lat="48.33606259739877" lon="-3.962196167398932"><ele>323.0</ele><time>2026-04-19T14:15:30Z</time></trkpt><trkpt lat="48.33607821503999" lon="-3.962089646519588"><ele>323.79999999999995</ele><time>2026-04-19T14:15:31Z</time></trkpt><trkpt lat="48.33609710461799" lon="-3.9619579532272096"><ele>324.6</ele><time>2026-04-19T14:15:32Z</time></trkpt><trkpt lat="48.336124797272284" lon="-3.961807661545254"><ele>325.4</ele><time>2026-04-19T14:15:33Z</time></trkpt><trkpt lat="48.33615968397381" lon="-3.9616238360438047"><ele>326.20000000000005</ele><time>2026-04-19T14:15:34Z</time></trkpt><trkpt lat="48.33618920624176" lon="-3.9614473088614983"><ele>327.0</ele><time>2026-04-19T14:15:35Z</time></trkpt><trkpt lat="48.336223595170246" lon="-3.9612670672481616"><ele>327.25</ele><time>2026-04-19T14:15:36Z</time></trkpt><trkpt lat="48.3362663394592" lon="-3.9610881516516865"><ele>327.5</ele><time>2026-04-19T14:15:37Z</time></trkpt><trkpt lat="48.33631629813947" lon="-3.9608835904899125"><ele>327.75</ele><time>2026-04-19T14:15:38Z</time></trkpt><trkpt lat="48.336364400412045" lon="-3.9606996183742043"><ele>328.0</ele><time>2026-04-19T14:15:39Z</time></trkpt><trkpt lat="48.33640900434622" lon="-3.96054732020251"><ele>324.5</ele><time>2026-04-19T14:15:40Z</time></trkpt><trkpt lat="48.33643472694475" lon="-3.9603870732087687"><ele>321.0</ele><time>2026-04-19T14:15:41Z</time></trkpt><trkpt lat="48.33647254164408" lon="-3.960226604885522"><ele>317.5</ele><time>2026-04-19T14:15:42Z</time></trkpt><trkpt lat="48.33650565894818" lon="-3.9600597301346556"><ele>314.0</ele><time>2026-04-19T14:15:43Z</time></trkpt><trkpt lat="48.336554585881935" lon="-3.9598743316451306"><ele>314.0</ele><time>2026-04-19T14:15:44Z</time></trkpt><trkpt lat="48.33658321232836" lon="-3.959676335392116"><ele>314.0</ele><time>2026-04-19T14:15:45Z</time></trkpt><trkpt lat="48.33661438067967" lon="-3.9594961000201083"><ele>314.0</ele><time>2026-04-19T14:15:46Z</time></trkpt><trkpt lat="48.33664408302176" lon="-3.9593194972507177"><ele>314.0</ele><time>2026-04-19T14:15:47Z</time></trkpt><trkpt lat="48.33668100243289" lon="-3.9591283692667565"><ele>314.0</ele><time>2026-04-19T14:15:48Z</time></trkpt><trkpt lat="48.33671510952719" lon="-3.958944895268174"><ele>314.0</ele><time>2026-04-19T14:15:49Z</time></trkpt><trkpt lat="48.336751233701754" lon="-3.9587571395635734"><ele>314.0</ele><time>2026-04-19T14:15:50Z</time></trkpt><trkpt lat="48.33678148577283" lon="-3.9585717732819066"><ele>314.0</ele><time>2026-04-19T14:15:51Z</time></trkpt><trkpt lat="48.33681251599698" lon="-3.958375132496438"><ele>314.25</ele><time>2026-04-19T14:15:52Z</time></trkpt><trkpt lat="48.33683494845228" lon="-3.9581991431654986"><ele>314.5</ele><time>2026-04-19T14:15:53Z</time></trkpt><trkpt lat="48.33684219686247" lon="-3.958010678345405"><ele>314.75</ele><time>2026-04-19T14:15:54Z</time></trkpt><trkpt lat="48.33685539351823" lon="-3.957840810448667"><ele>315.0</ele><time>2026-04-19T14:15:55Z</time></trkpt><trkpt lat="48.33686311520116" lon="-3.9576850192595416"><ele>315.0</ele><time>2026-04-19T14:15:56Z</time></trkpt><trkpt lat="48.336868696386624" lon="-3.9575470955512966"><ele>315.0</ele><time>2026-04-19T14:15:57Z</time></trkpt><trkpt lat="48.3368744097645" lon="-3.957354787538665"><ele>315.0</ele><time>2026-04-19T14:15:58Z</time></trkpt><trkpt lat="48.336894989790345" lon="-3.9571770240223394"><ele>315.0</ele><time>2026-04-19T14:15:59Z</time></trkpt><trkpt lat="48.33690513093573" lon="-3.956945976026966"><ele>316.3333333333333</ele><time>2026-04-19T14:16:00Z</time></trkpt><trkpt lat="48.33690919976547" lon="-3.9566987933528326"><ele>317.66666666666663</ele><time>2026-04-19T14:16:01Z</time></trkpt><trkpt lat="48.33692374979412" lon="-3.9564539687996034"><ele>319.0</ele><time>2026-04-19T14:16:02Z</time></trkpt><trkpt lat="48.3369543158469" lon="-3.9562333800958305"><ele>319.0</ele><time>2026-04-19T14:16:03Z</time></trkpt><trkpt lat="48.33697334463609" lon="-3.956067195651988"><ele>319.0</ele><time>2026-04-19T14:16:04Z</time></trkpt><trkpt lat="48.33697156095072" lon="-3.9559090180774232"><ele>319.0</ele><time>2026-04-19T14:16:05Z</time></trkpt><trkpt lat="48.33698541197016" lon="-3.9557628693762483"><ele>319.0</ele><time>2026-04-19T14:16:06Z</time></trkpt><trkpt lat="48.33701038344368" lon="-3.955594840698244"><ele>319.0</ele><time>2026-04-19T14:16:07Z</time></trkpt><trkpt lat="48.33704619155939" lon="-3.9554448574488394"><ele>319.0</ele><time>2026-04-19T14:16:08Z</time></trkpt><trkpt lat="48.33707416490057" lon="-3.9552782980565815"><ele>319.0</ele><time>2026-04-19T14:16:09Z</time></trkpt><trkpt lat="48.33711984568442" lon="-3.955099552572381"><ele>319.0</ele><time>2026-04-19T14:16:10Z</time></trkpt><trkpt lat="48.33717322359665" lon="-3.954888401780767"><ele>319.0</ele><time>2026-04-19T14:16:11Z</time></trkpt><trkpt lat="48.3372174599034" lon="-3.9546946260666247"><ele>317.25</ele><time>2026-04-19T14:16:12Z</time></trkpt><trkpt lat="48.337254634182095" lon="-3.954512237054737"><ele>315.5</ele><time>2026-04-19T14:16:13Z</time></trkpt><trkpt lat="48.33729079961195" lon="-3.95433663549546"><ele>313.75</ele><time>2026-04-19T14:16:14Z</time></trkpt><trkpt lat="48.33732311738103" lon="-3.954162868393267"><ele>312.0</ele><time>2026-04-19T14:16:15Z</time></trkpt><trkpt lat="48.33733642695055" lon="-3.953994951068527"><ele>312.0</ele><time>2026-04-19T14:16:16Z</time></trkpt><trkpt lat="48.33734547070087" lon="-3.953791377025526"><ele>312.0</ele><time>2026-04-19T14:16:17Z</time></trkpt><trkpt lat="48.33735163887882" lon="-3.953627410507489"><ele>312.0</ele><time>2026-04-19T14:16:18Z</time></trkpt><trkpt lat="48.33735682976622" lon="-3.9535172061321617"><ele>312.0</ele><time>2026-04-19T14:16:19Z</time></trkpt><trkpt lat="48.33735595539466" lon="-3.953372284700992"><ele>312.0</ele><time>2026-04-19T14:16:21Z</time></trkpt><trkpt lat="48.33737392081716" lon="-3.9531795188568988"><ele>311.6</ele><time>2026-04-19T14:16:23Z</time></trkpt><trkpt lat="48.33739935707406" lon="-3.9530340664160097"><ele>311.2</ele><time>2026-04-19T14:16:24Z</time></trkpt><trkpt lat="48.33742117411437" lon="-3.9528779784823507"><ele>310.8</ele><time>2026-04-19T14:16:25Z</time></trkpt><trkpt lat="48.33745244905876" lon="-3.952705597879728"><ele>310.4</ele><time>2026-04-19T14:16:26Z</time></trkpt><trkpt lat="48.33748638003975" lon="-3.952528124687981"><ele>310.0</ele><time>2026-04-19T14:16:27Z</time></trkpt><trkpt lat="48.33753114443298" lon="-3.9523537982224144"><ele>310.0</ele><time>2026-04-19T14:16:28Z</time></trkpt><trkpt lat="48.33757403271478" lon="-3.9521890775209125"><ele>310.0</ele><time>2026-04-19T14:16:29Z</time></trkpt><trkpt lat="48.33760048700365" lon="-3.952011628038531"><ele>310.0</ele><time>2026-04-19T14:16:30Z</time></trkpt><trkpt lat="48.33760957089667" lon="-3.9518162180597463"><ele>310.0</ele><time>2026-04-19T14:16:31Z</time></trkpt><trkpt lat="48.337612857554724" lon="-3.9516325184639136"><ele>309.5</ele><time>2026-04-19T14:16:32Z</time></trkpt><trkpt lat="48.33763310750581" lon="-3.951451394873266"><ele>309.0</ele><time>2026-04-19T14:16:33Z</time></trkpt><trkpt lat="48.33768411481651" lon="-3.9512787001329426"><ele>308.5</ele><time>2026-04-19T14:16:34Z</time></trkpt><trkpt lat="48.33774092135005" lon="-3.9510994940145974"><ele>308.0</ele><time>2026-04-19T14:16:35Z</time></trkpt><trkpt lat="48.337777183166985" lon="-3.950918518156172"><ele>307.5</ele><time>2026-04-19T14:16:36Z</time></trkpt><trkpt lat="48.33782430189327" lon="-3.9507252353389792"><ele>307.0</ele><time>2026-04-19T14:16:37Z</time></trkpt><trkpt lat="48.337878032927385" lon="-3.950510305015621"><ele>306.5</ele><time>2026-04-19T14:16:38Z</time></trkpt><trkpt lat="48.337915189860965" lon="-3.950313797607877"><ele>306.0</ele><time>2026-04-19T14:16:39Z</time></trkpt><trkpt lat="48.33795322177743" lon="-3.9501237679941292"><ele>306.25</ele><time>2026-04-19T14:16:40Z</time></trkpt><trkpt lat="48.337988564616985" lon="-3.9499346248262532"><ele>306.5</ele><time>2026-04-19T14:16:41Z</time></trkpt><trkpt lat="48.33802135358945" lon="-3.9497530780028156"><ele>306.75</ele><time>2026-04-19T14:16:42Z</time></trkpt><trkpt lat="48.33806576204693" lon="-3.9495661628618284"><ele>307.0</ele><time>2026-04-19T14:16:43Z</time></trkpt><trkpt lat="48.33811330573617" lon="-3.9493591758005198"><ele>306.25</ele><time>2026-04-19T14:16:44Z</time></trkpt><trkpt lat="48.33815635299156" lon="-3.949155893436104"><ele>305.5</ele><time>2026-04-19T14:16:45Z</time></trkpt><trkpt lat="48.338210700766936" lon="-3.9489569214828832"><ele>304.75</ele><time>2026-04-19T14:16:46Z</time></trkpt><trkpt lat="48.338277079658624" lon="-3.9487802091413164"><ele>304.0</ele><time>2026-04-19T14:16:47Z</time></trkpt><trkpt lat="48.33834103586479" lon="-3.948608059000051"><ele>304.0</ele><time>2026-04-19T14:16:48Z</time></trkpt><trkpt lat="48.3383987009427" lon="-3.9484539933007303"><ele>304.0</ele><time>2026-04-19T14:16:49Z</time></trkpt><trkpt lat="48.33844636912684" lon="-3.9482883506738715"><ele>304.0</ele><time>2026-04-19T14:16:50Z</time></trkpt><trkpt lat="48.3384893810018" lon="-3.9481288751512285"><ele>304.0</ele><time>2026-04-19T14:16:51Z</time></trkpt><trkpt lat="48.33852936172683" lon="-3.9479734665199926"><ele>303.8</ele><time>2026-04-19T14:16:52Z</time></trkpt><trkpt lat="48.33857249587999" lon="-3.947838013320758"><ele>303.59999999999997</ele><time>2026-04-19T14:16:53Z</time></trkpt><trkpt lat="48.338615502823764" lon="-3.947703380146662"><ele>303.4</ele><time>2026-04-19T14:16:54Z</time></trkpt><trkpt lat="48.338638960902" lon="-3.9475822645210323"><ele>303.2</ele><time>2026-04-19T14:16:55Z</time></trkpt><trkpt lat="48.33856563304858" lon="-3.9474448175928623"><ele>303.0</ele><time>2026-04-19T14:16:57Z</time></trkpt><trkpt lat="48.3384919629117" lon="-3.947420471168138"><ele>303.0</ele><time>2026-04-19T14:16:58Z</time></trkpt><trkpt lat="48.338396801314715" lon="-3.947436386566242"><ele>303.0</ele><time>2026-04-19T14:16:59Z</time></trkpt><trkpt lat="48.338309464866505" lon="-3.9475101612029744"><ele>303.0</ele><time>2026-04-19T14:17:00Z</time></trkpt><trkpt lat="48.33820263398312" lon="-3.947582215299905"><ele>303.0</ele><time>2026-04-19T14:17:01Z</time></trkpt><trkpt lat="48.33809764695835" lon="-3.9476044917027253"><ele>303.0</ele><time>2026-04-19T14:17:02Z</time></trkpt><trkpt lat="48.33798055140402" lon="-3.947596607349802"><ele>303.75</ele><time>2026-04-19T14:17:03Z</time></trkpt><trkpt lat="48.33785513429614" lon="-3.94758830952587"><ele>304.5</ele><time>2026-04-19T14:17:04Z</time></trkpt><trkpt lat="48.33773850059825" lon="-3.947565594317315"><ele>305.25</ele><time>2026-04-19T14:17:05Z</time></trkpt><trkpt lat="48.337616234092025" lon="-3.9475444629877927"><ele>306.0</ele><time>2026-04-19T14:17:06Z</time></trkpt><trkpt lat="48.337495279613336" lon="-3.9475286487227343"><ele>306.0</ele><time>2026-04-19T14:17:07Z</time></trkpt><trkpt lat="48.337381970181184" lon="-3.9474923361190433"><ele>306.0</ele><time>2026-04-19T14:17:08Z</time></trkpt><trkpt lat="48.33724371302037" lon="-3.947430751053459"><ele>306.0</ele><time>2026-04-19T14:17:09Z</time></trkpt><trkpt lat="48.33708592396754" lon="-3.94738299022208"><ele>306.0</ele><time>2026-04-19T14:17:10Z</time></trkpt><trkpt lat="48.336903079215865" lon="-3.947358980363027"><ele>306.0</ele><time>2026-04-19T14:17:11Z</time></trkpt><trkpt lat="48.336774927542926" lon="-3.9473509498530834"><ele>306.0</ele><time>2026-04-19T14:17:12Z</time></trkpt><trkpt lat="48.33664838312675" lon="-3.9473563353804244"><ele>306.0</ele><time>2026-04-19T14:17:13Z</time></trkpt><trkpt lat="48.33649810193052" lon="-3.947290683506829"><ele>306.0</ele><time>2026-04-19T14:17:14Z</time></trkpt><trkpt lat="48.33636829617132" lon="-3.947265604793683"><ele>306.0</ele><time>2026-04-19T14:17:15Z</time></trkpt><trkpt lat="48.336222075898355" lon="-3.9472012709820623"><ele>306.0</ele><time>2026-04-19T14:17:16Z</time></trkpt><trkpt lat="48.336047038816226" lon="-3.94711400530298"><ele>306.0</ele><time>2026-04-19T14:17:17Z</time></trkpt><trkpt lat="48.33590533553088" lon="-3.94708212371763"><ele>306.0</ele><time>2026-04-19T14:17:18Z</time></trkpt><trkpt lat="48.33577498128619" lon="-3.9470259344504117"><ele>306.0</ele><time>2026-04-19T14:17:19Z</time></trkpt><trkpt lat="48.335664304265016" lon="-3.94696933835943"><ele>306.0</ele><time>2026-04-19T14:17:20Z</time></trkpt><trkpt lat="48.335582804209444" lon="-3.9469202142973856"><ele>306.0</ele><time>2026-04-19T14:17:21Z</time></trkpt><trkpt lat="48.335485251736955" lon="-3.946914054266596"><ele>306.0</ele><time>2026-04-19T14:17:22Z</time></trkpt><trkpt lat="48.335374311445364" lon="-3.9469539145354458"><ele>305.5</ele><time>2026-04-19T14:17:23Z</time></trkpt><trkpt lat="48.335272712643246" lon="-3.9469396500488876"><ele>305.0</ele><time>2026-04-19T14:17:24Z</time></trkpt><trkpt lat="48.33515210413784" lon="-3.946887123492028"><ele>304.5</ele><time>2026-04-19T14:17:25Z</time></trkpt><trkpt lat="48.33502761311624" lon="-3.9468104274840874"><ele>304.0</ele><time>2026-04-19T14:17:26Z</time></trkpt><trkpt lat="48.334894706259156" lon="-3.946758485888487"><ele>304.25</ele><time>2026-04-19T14:17:27Z</time></trkpt><trkpt lat="48.33478105881752" lon="-3.9467093517684013"><ele>304.5</ele><time>2026-04-19T14:17:28Z</time></trkpt><trkpt lat="48.33466273880968" lon="-3.9466599617697162"><ele>304.75</ele><time>2026-04-19T14:17:29Z</time></trkpt><trkpt lat="48.334550479174936" lon="-3.9466030491401454"><ele>305.0</ele><time>2026-04-19T14:17:30Z</time></trkpt><trkpt lat="48.334446287919455" lon="-3.946555429424268"><ele>303.2</ele><time>2026-04-19T14:17:31Z</time></trkpt><trkpt lat="48.334340654626004" lon="-3.9465283298540337"><ele>301.4</ele><time>2026-04-19T14:17:32Z</time></trkpt><trkpt lat="48.334245537674825" lon="-3.9465167142401234"><ele>299.6</ele><time>2026-04-19T14:17:33Z</time></trkpt><trkpt lat="48.33417911731921" lon="-3.9464995496269175"><ele>297.8</ele><time>2026-04-19T14:17:34Z</time></trkpt><trkpt lat="48.33411346732877" lon="-3.9464143646857415"><ele>296.0</ele><time>2026-04-19T14:17:35Z</time></trkpt><trkpt lat="48.33404155491926" lon="-3.946308844464695"><ele>296.0</ele><time>2026-04-19T14:17:36Z</time></trkpt><trkpt lat="48.333953768204324" lon="-3.946262072361079"><ele>296.0</ele><time>2026-04-19T14:17:37Z</time></trkpt><trkpt lat="48.33384774696324" lon="-3.9462654121621985"><ele>296.0</ele><time>2026-04-19T14:17:38Z</time></trkpt><trkpt lat="48.33372589049128" lon="-3.946263546963305"><ele>296.0</ele><time>2026-04-19T14:17:39Z</time></trkpt><trkpt lat="48.33360380101252" lon="-3.9462452436251536"><ele>296.0</ele><time>2026-04-19T14:17:40Z</time></trkpt><trkpt lat="48.33345338267958" lon="-3.9462141667494754"><ele>294.25</ele><time>2026-04-19T14:17:41Z</time></trkpt><trkpt lat="48.33330914281694" lon="-3.946190961282094"><ele>292.5</ele><time>2026-04-19T14:17:42Z</time></trkpt><trkpt lat="48.33317710361838" lon="-3.9461757474095394"><ele>290.75</ele><time>2026-04-19T14:17:43Z</time></trkpt><trkpt lat="48.33306063878195" lon="-3.9461570277448814"><ele>289.0</ele><time>2026-04-19T14:17:44Z</time></trkpt><trkpt lat="48.33294390255009" lon="-3.946149058456212"><ele>285.75</ele><time>2026-04-19T14:17:45Z</time></trkpt><trkpt lat="48.332815488239326" lon="-3.9461554457811627"><ele>282.5</ele><time>2026-04-19T14:17:46Z</time></trkpt><trkpt lat="48.332680391423466" lon="-3.9461823686478605"><ele>279.25</ele><time>2026-04-19T14:17:47Z</time></trkpt><trkpt lat="48.332560712837484" lon="-3.9462014706313053"><ele>276.0</ele><time>2026-04-19T14:17:48Z</time></trkpt><trkpt lat="48.33244883928339" lon="-3.946223149476011"><ele>276.0</ele><time>2026-04-19T14:17:49Z</time></trkpt><trkpt lat="48.332319710690676" lon="-3.946242703044662"><ele>276.0</ele><time>2026-04-19T14:17:50Z</time></trkpt><trkpt lat="48.332196251421706" lon="-3.9462100066019645"><ele>276.0</ele><time>2026-04-19T14:17:51Z</time></trkpt><trkpt lat="48.33207861250273" lon="-3.946173639119575"><ele>276.0</ele><time>2026-04-19T14:17:52Z</time></trkpt><trkpt lat="48.331959827755384" lon="-3.946165719316038"><ele>273.40000000000003</ele><time>2026-04-19T14:17:53Z</time></trkpt><trkpt lat="48.331844160880415" lon="-3.9461672308849813"><ele>270.8</ele><time>2026-04-19T14:17:54Z</time></trkpt><trkpt lat="48.33173644349308" lon="-3.9461392385863183"><ele>268.20000000000005</ele><time>2026-04-19T14:17:55Z</time></trkpt><trkpt lat="48.33164906617603" lon="-3.9460921120341683"><ele>265.6</ele><time>2026-04-19T14:17:56Z</time></trkpt><trkpt lat="48.33154937516361" lon="-3.946040105028468"><ele>263.0</ele><time>2026-04-19T14:17:57Z</time></trkpt><trkpt lat="48.331463976937975" lon="-3.9460608570378493"><ele>261.5</ele><time>2026-04-19T14:17:58Z</time></trkpt><trkpt lat="48.33138906035692" lon="-3.9461004799322232"><ele>260.0</ele><time>2026-04-19T14:17:59Z</time></trkpt><trkpt lat="48.33130861975234" lon="-3.94610062038175"><ele>258.5</ele><time>2026-04-19T14:18:01Z</time></trkpt><trkpt lat="48.331211676685236" lon="-3.9461276459541397"><ele>257.0</ele><time>2026-04-19T14:18:58Z</time></trkpt><trkpt lat="48.33115994480581" lon="-3.946210045957755"><ele>255.50000000000003</ele><time>2026-04-19T14:18:59Z</time></trkpt><trkpt lat="48.331091118079364" lon="-3.946280794468634"><ele>254.0</ele><time>2026-04-19T14:19:00Z</time></trkpt><trkpt lat="48.33098601877456" lon="-3.9463424347872857"><ele>254.0</ele><time>2026-04-19T14:19:01Z</time></trkpt><trkpt lat="48.330885696740076" lon="-3.9464138416483228"><ele>253.99999999999997</ele><time>2026-04-19T14:19:02Z</time></trkpt><trkpt lat="48.3307987815392" lon="-3.946489564740558"><ele>253.99999999999997</ele><time>2026-04-19T14:19:03Z</time></trkpt><trkpt lat="48.33071522852859" lon="-3.9465710091177346"><ele>254.0</ele><time>2026-04-19T14:19:04Z</time></trkpt><trkpt lat="48.33064125190204" lon="-3.946615324330807"><ele>254.0</ele><time>2026-04-19T14:19:05Z</time></trkpt><trkpt lat="48.33057023996334" lon="-3.9466676246184464"><ele>251.39999999999998</ele><time>2026-04-19T14:19:06Z</time></trkpt><trkpt lat="48.33042384446576" lon="-3.9467385966628536"><ele>248.79999999999998</ele><time>2026-04-19T14:19:08Z</time></trkpt><trkpt lat="48.33036618453342" lon="-3.9467773445415317"><ele>246.20000000000002</ele><time>2026-04-19T14:19:09Z</time></trkpt><trkpt lat="48.33032457225656" lon="-3.9468671396146107"><ele>243.60000000000002</ele><time>2026-04-19T14:19:10Z</time></trkpt><trkpt lat="48.330260457398765" lon="-3.9469618776363684"><ele>241.0</ele><time>2026-04-19T14:19:12Z</time></trkpt><trkpt lat="48.33016338735701" lon="-3.9470955683266618"><ele>241.0</ele><time>2026-04-19T14:19:19Z</time></trkpt><trkpt lat="48.33008119838279" lon="-3.947211081404214"><ele>241.00000000000003</ele><time>2026-04-19T14:19:20Z</time></trkpt><trkpt lat="48.33001432589997" lon="-3.9472747884181807"><ele>241.00000000000003</ele><time>2026-04-19T14:19:21Z</time></trkpt><trkpt lat="48.32990702290564" lon="-3.947390142533846"><ele>241.0</ele><time>2026-04-19T14:19:22Z</time></trkpt><trkpt lat="48.32984117762641" lon="-3.9474744791856726"><ele>241.0</ele><time>2026-04-19T14:19:23Z</time></trkpt><trkpt lat="48.32976788227349" lon="-3.9475534077085856"><ele>238.60000000000002</ele><time>2026-04-19T14:19:24Z</time></trkpt><trkpt lat="48.329685785741994" lon="-3.947646792245571"><ele>236.20000000000002</ele><time>2026-04-19T14:19:25Z</time></trkpt><trkpt lat="48.329582703964896" lon="-3.9477360148592986"><ele>233.79999999999998</ele><time>2026-04-19T14:19:26Z</time></trkpt><trkpt lat="48.329511642366846" lon="-3.947814988082963"><ele>231.39999999999998</ele><time>2026-04-19T14:19:27Z</time></trkpt><trkpt lat="48.32944362315113" lon="-3.9478827358966098"><ele>229.0</ele><time>2026-04-19T14:19:28Z</time></trkpt><trkpt lat="48.32936024008167" lon="-3.9479697285494537"><ele>229.0</ele><time>2026-04-19T14:19:29Z</time></trkpt><trkpt lat="48.32927856068749" lon="-3.9480602497943695"><ele>228.99999999999997</ele><time>2026-04-19T14:19:30Z</time></trkpt><trkpt lat="48.32919625224761" lon="-3.948130688442359"><ele>228.99999999999997</ele><time>2026-04-19T14:19:31Z</time></trkpt><trkpt lat="48.32910381042489" lon="-3.9481879828854263"><ele>229.0</ele><time>2026-04-19T14:19:32Z</time></trkpt><trkpt lat="48.32899902627126" lon="-3.9482497657538245"><ele>229.0</ele><time>2026-04-19T14:19:33Z</time></trkpt><trkpt lat="48.328918960524156" lon="-3.94832897356748"><ele>226.79999999999998</ele><time>2026-04-19T14:19:34Z</time></trkpt><trkpt lat="48.328848512368516" lon="-3.9484473261544304"><ele>224.59999999999997</ele><time>2026-04-19T14:19:35Z</time></trkpt><trkpt lat="48.328762067874216" lon="-3.9485260336877532"><ele>222.4</ele><time>2026-04-19T14:19:36Z</time></trkpt><trkpt lat="48.328658491852266" lon="-3.948619872282177"><ele>220.2</ele><time>2026-04-19T14:19:37Z</time></trkpt><trkpt lat="48.32856949979255" lon="-3.9487201705402604"><ele>218.0</ele><time>2026-04-19T14:19:38Z</time></trkpt><trkpt lat="48.328491037197786" lon="-3.948824620677034"><ele>218.0</ele><time>2026-04-19T14:19:39Z</time></trkpt><trkpt lat="48.32841734435365" lon="-3.9488917870820845"><ele>218.0</ele><time>2026-04-19T14:19:40Z</time></trkpt><trkpt lat="48.32833807179883" lon="-3.948953917374821"><ele>218.0</ele><time>2026-04-19T14:19:41Z</time></trkpt><trkpt lat="48.328248530461934" lon="-3.9489782157724314"><ele>218.0</ele><time>2026-04-19T14:19:42Z</time></trkpt><trkpt lat="48.328152670004236" lon="-3.9489779942990264"><ele>218.0</ele><time>2026-04-19T14:19:43Z</time></trkpt><trkpt lat="48.328039732506355" lon="-3.9489666568258874"><ele>217.2</ele><time>2026-04-19T14:19:44Z</time></trkpt><trkpt lat="48.327933911691176" lon="-3.9489521425358793"><ele>216.4</ele><time>2026-04-19T14:19:45Z</time></trkpt><trkpt lat="48.32783063120087" lon="-3.9489294343346613"><ele>215.59999999999997</ele><time>2026-04-19T14:19:46Z</time></trkpt><trkpt lat="48.32772690227667" lon="-3.948925496550712"><ele>214.79999999999998</ele><time>2026-04-19T14:19:47Z</time></trkpt><trkpt lat="48.327628489711444" lon="-3.9489127203012053"><ele>214.0</ele><time>2026-04-19T14:19:48Z</time></trkpt><trkpt lat="48.327549152983586" lon="-3.948889341932759"><ele>214.0</ele><time>2026-04-19T14:19:49Z</time></trkpt><trkpt lat="48.32748325006281" lon="-3.948824199256324"><ele>213.99999999999997</ele><time>2026-04-19T14:19:51Z</time></trkpt><trkpt lat="48.32747212473757" lon="-3.9486885053294443"><ele>213.99999999999997</ele><time>2026-04-19T14:19:56Z</time></trkpt><trkpt lat="48.327467454178176" lon="-3.9485374113570164"><ele>214.0</ele><time>2026-04-19T14:19:57Z</time></trkpt><trkpt lat="48.32743137461478" lon="-3.948380221571793"><ele>214.0</ele><time>2026-04-19T14:19:58Z</time></trkpt><trkpt lat="48.32737439160909" lon="-3.9481974486345943"><ele>211.5</ele><time>2026-04-19T14:19:59Z</time></trkpt><trkpt lat="48.32731273972515" lon="-3.948030947804239"><ele>209.0</ele><time>2026-04-19T14:20:00Z</time></trkpt><trkpt lat="48.3272456131846" lon="-3.9478773561269476"><ele>206.5</ele><time>2026-04-19T14:20:01Z</time></trkpt><trkpt lat="48.32717533703207" lon="-3.9477698939544323"><ele>204.0</ele><time>2026-04-19T14:20:02Z</time></trkpt><trkpt lat="48.32708798384637" lon="-3.9476913194260734"><ele>200.33333333333331</ele><time>2026-04-19T14:20:03Z</time></trkpt><trkpt lat="48.32696732610153" lon="-3.9476079124723067"><ele>196.66666666666666</ele><time>2026-04-19T14:20:04Z</time></trkpt><trkpt lat="48.326812547204376" lon="-3.9475338222752967"><ele>193.0</ele><time>2026-04-19T14:20:05Z</time></trkpt><trkpt lat="48.32664564137636" lon="-3.947421557392157"><ele>192.4</ele><time>2026-04-19T14:20:06Z</time></trkpt><trkpt lat="48.326520575777174" lon="-3.9473416428059847"><ele>191.8</ele><time>2026-04-19T14:20:07Z</time></trkpt><trkpt lat="48.32643883390993" lon="-3.9472994931883334"><ele>191.2</ele><time>2026-04-19T14:20:08Z</time></trkpt><trkpt lat="48.32634034188406" lon="-3.947327767751219"><ele>190.6</ele><time>2026-04-19T14:20:10Z</time></trkpt><trkpt lat="48.32628941618734" lon="-3.9474017254721807"><ele>190.0</ele><time>2026-04-19T14:20:11Z</time></trkpt><trkpt lat="48.3262136608797" lon="-3.9475265074604633"><ele>187.5</ele><time>2026-04-19T14:20:12Z</time></trkpt><trkpt lat="48.32611766437607" lon="-3.947633287568274"><ele>185.0</ele><time>2026-04-19T14:20:13Z</time></trkpt><trkpt lat="48.32597409618258" lon="-3.947707968702624"><ele>182.5</ele><time>2026-04-19T14:20:14Z</time></trkpt><trkpt lat="48.32581102201745" lon="-3.94775440705898"><ele>180.0</ele><time>2026-04-19T14:20:15Z</time></trkpt><trkpt lat="48.325621404092786" lon="-3.947767555705667"><ele>177.75</ele><time>2026-04-19T14:20:16Z</time></trkpt><trkpt lat="48.32545803983388" lon="-3.947809139603215"><ele>175.5</ele><time>2026-04-19T14:20:17Z</time></trkpt><trkpt lat="48.32535957112521" lon="-3.947826607808204"><ele>173.25</ele><time>2026-04-19T14:20:18Z</time></trkpt><trkpt lat="48.32526031116052" lon="-3.947843662240678"><ele>171.0</ele><time>2026-04-19T14:20:19Z</time></trkpt><trkpt lat="48.32514542227852" lon="-3.94779972657271"><ele>171.0</ele><time>2026-04-19T14:20:20Z</time></trkpt><trkpt lat="48.32503379491901" lon="-3.947688107223715"><ele>171.0</ele><time>2026-04-19T14:20:21Z</time></trkpt><trkpt lat="48.324968050831885" lon="-3.9475635479592173"><ele>171.0</ele><time>2026-04-19T14:20:22Z</time></trkpt><trkpt lat="48.32488205833614" lon="-3.947499670698424"><ele>171.0</ele><time>2026-04-19T14:20:23Z</time></trkpt><trkpt lat="48.324779473687485" lon="-3.9474842259806926"><ele>171.0</ele><time>2026-04-19T14:20:24Z</time></trkpt><trkpt lat="48.324677290919695" lon="-3.9475076987555657"><ele>169.33333333333334</ele><time>2026-04-19T14:20:25Z</time></trkpt><trkpt lat="48.32458608170323" lon="-3.947521799497124"><ele>167.66666666666666</ele><time>2026-04-19T14:20:26Z</time></trkpt><trkpt lat="48.32450819409329" lon="-3.947558771252902"><ele>166.0</ele><time>2026-04-19T14:20:27Z</time></trkpt><trkpt lat="48.32443630468118" lon="-3.9475851207209343"><ele>164.33333333333331</ele><time>2026-04-19T14:20:28Z</time></trkpt><trkpt lat="48.32436581112137" lon="-3.9476057299485756"><ele>162.66666666666666</ele><time>2026-04-19T14:20:29Z</time></trkpt><trkpt lat="48.32428398388824" lon="-3.947544809404044"><ele>161.0</ele><time>2026-04-19T14:20:31Z</time></trkpt><trkpt lat="48.32424403027955" lon="-3.9474405192777"><ele>160.71428571428572</ele><time>2026-04-19T14:20:34Z</time></trkpt><trkpt lat="48.32423805585234" lon="-3.9473447043185845"><ele>160.42857142857144</ele><time>2026-04-19T14:20:35Z</time></trkpt><trkpt lat="48.32422933123117" lon="-3.9472382131275303"><ele>160.14285714285714</ele><time>2026-04-19T14:20:36Z</time></trkpt><trkpt lat="48.32421691180861" lon="-3.947123311350437"><ele>159.85714285714286</ele><time>2026-04-19T14:20:37Z</time></trkpt><trkpt lat="48.32421706713009" lon="-3.9469994098323133"><ele>159.57142857142858</ele><time>2026-04-19T14:20:38Z</time></trkpt><trkpt lat="48.32419882370436" lon="-3.9468868131007686"><ele>159.28571428571428</ele><time>2026-04-19T14:20:39Z</time></trkpt><trkpt lat="48.32419433511672" lon="-3.946773672101107"><ele>159.0</ele><time>2026-04-19T14:20:40Z</time></trkpt><trkpt lat="48.32420619871802" lon="-3.9466533086622704"><ele>158.83333333333334</ele><time>2026-04-19T14:20:41Z</time></trkpt><trkpt lat="48.32419495781949" lon="-3.946540963403675"><ele>158.66666666666666</ele><time>2026-04-19T14:20:42Z</time></trkpt><trkpt lat="48.324188239095854" lon="-3.9464199127586133"><ele>158.5</ele><time>2026-04-19T14:20:43Z</time></trkpt><trkpt lat="48.3241819684996" lon="-3.9462985522861596"><ele>158.33333333333331</ele><time>2026-04-19T14:20:44Z</time></trkpt><trkpt lat="48.324171637154926" lon="-3.946177729437997"><ele>158.16666666666666</ele><time>2026-04-19T14:20:45Z</time></trkpt><trkpt lat="48.32415492255719" lon="-3.9460652886100616"><ele>158.0</ele><time>2026-04-19T14:20:46Z</time></trkpt><trkpt lat="48.324129272490204" lon="-3.9459442114898557"><ele>157.4</ele><time>2026-04-19T14:20:47Z</time></trkpt><trkpt lat="48.3240886948163" lon="-3.945821152795367"><ele>156.8</ele><time>2026-04-19T14:20:48Z</time></trkpt><trkpt lat="48.324045286767664" lon="-3.9457210151977904"><ele>156.2</ele><time>2026-04-19T14:20:49Z</time></trkpt><trkpt lat="48.32397739731903" lon="-3.9456004537855685"><ele>155.6</ele><time>2026-04-19T14:20:50Z</time></trkpt><trkpt lat="48.3239064353491" lon="-3.94549737727352"><ele>155.0</ele><time>2026-04-19T14:20:51Z</time></trkpt><trkpt lat="48.323842467748165" lon="-3.945400789011676"><ele>153.0</ele><time>2026-04-19T14:20:52Z</time></trkpt><trkpt lat="48.3237617666456" lon="-3.9453104945336843"><ele>151.0</ele><time>2026-04-19T14:20:53Z</time></trkpt><trkpt lat="48.32367713993685" lon="-3.945212861370542"><ele>149.0</ele><time>2026-04-19T14:20:54Z</time></trkpt><trkpt lat="48.323585333631605" lon="-3.945109345805124"><ele>147.0</ele><time>2026-04-19T14:20:55Z</time></trkpt><trkpt lat="48.323500594354925" lon="-3.944991200653481"><ele>145.0</ele><time>2026-04-19T14:20:56Z</time></trkpt><trkpt lat="48.323426361393295" lon="-3.9448378308070158"><ele>144.25</ele><time>2026-04-19T14:20:57Z</time></trkpt><trkpt lat="48.323363594385484" lon="-3.94466289420265"><ele>143.5</ele><time>2026-04-19T14:20:58Z</time></trkpt><trkpt lat="48.323306764794" lon="-3.9444698154393256"><ele>142.75</ele><time>2026-04-19T14:20:59Z</time></trkpt><trkpt lat="48.32326295219495" lon="-3.9442708488387574"><ele>142.0</ele><time>2026-04-19T14:21:00Z</time></trkpt><trkpt lat="48.3232137025612" lon="-3.944076715986383"><ele>141.25</ele><time>2026-04-19T14:21:01Z</time></trkpt><trkpt lat="48.32316662534252" lon="-3.9438804430870014"><ele>140.5</ele><time>2026-04-19T14:21:02Z</time></trkpt><trkpt lat="48.32313192390225" lon="-3.943699907804653"><ele>139.75</ele><time>2026-04-19T14:21:03Z</time></trkpt><trkpt lat="48.32309906682361" lon="-3.943528280672408"><ele>139.0</ele><time>2026-04-19T14:21:04Z</time></trkpt><trkpt lat="48.32306919763739" lon="-3.9433667984047296"><ele>139.2</ele><time>2026-04-19T14:21:05Z</time></trkpt><trkpt lat="48.32303853298087" lon="-3.9432240073790386"><ele>139.4</ele><time>2026-04-19T14:21:06Z</time></trkpt><trkpt lat="48.323009948416676" lon="-3.9431090731267"><ele>139.6</ele><time>2026-04-19T14:21:07Z</time></trkpt><trkpt lat="48.32300583182187" lon="-3.9430092249299995"><ele>139.8</ele><time>2026-04-19T14:21:08Z</time></trkpt><trkpt lat="48.32298342937888" lon="-3.9428806027223926"><ele>140.0</ele><time>2026-04-19T14:21:10Z</time></trkpt><trkpt lat="48.322804239411845" lon="-3.9429610312774326"><ele>140.0</ele><time>2026-04-19T14:21:14Z</time></trkpt><trkpt lat="48.322758640034316" lon="-3.943044258838341"><ele>140.0</ele><time>2026-04-19T14:21:21Z</time></trkpt><trkpt lat="48.32268809517291" lon="-3.943122738232359"><ele>140.0</ele><time>2026-04-19T14:21:24Z</time></trkpt><trkpt lat="48.322587277940954" lon="-3.943207614107239"><ele>140.0</ele><time>2026-04-19T14:21:26Z</time></trkpt><trkpt lat="48.3225318626338" lon="-3.9432543089572625"><ele>140.0</ele><time>2026-04-19T14:21:27Z</time></trkpt><trkpt lat="48.32246880766543" lon="-3.9433035918013446"><ele>140.0</ele><time>2026-04-19T14:21:28Z</time></trkpt><trkpt lat="48.322351247731454" lon="-3.9433970703861165"><ele>138.8</ele><time>2026-04-19T14:21:30Z</time></trkpt><trkpt lat="48.32228970040476" lon="-3.9434418425687316"><ele>137.6</ele><time>2026-04-19T14:21:31Z</time></trkpt><trkpt lat="48.32221064512113" lon="-3.943470415971319"><ele>136.4</ele><time>2026-04-19T14:21:32Z</time></trkpt><trkpt lat="48.32210082789596" lon="-3.94351431977596"><ele>135.2</ele><time>2026-04-19T14:21:33Z</time></trkpt><trkpt lat="48.32199601716612" lon="-3.9435502338077786"><ele>134.0</ele><time>2026-04-19T14:21:34Z</time></trkpt><trkpt lat="48.321907967571455" lon="-3.9435977065391215"><ele>134.0</ele><time>2026-04-19T14:21:35Z</time></trkpt><trkpt lat="48.32180192660824" lon="-3.943625949818607"><ele>134.0</ele><time>2026-04-19T14:21:36Z</time></trkpt><trkpt lat="48.32167767002275" lon="-3.943686128887356"><ele>134.0</ele><time>2026-04-19T14:21:37Z</time></trkpt><trkpt lat="48.321578687559295" lon="-3.9437891012509487"><ele>134.0</ele><time>2026-04-19T14:21:38Z</time></trkpt><trkpt lat="48.321503137682136" lon="-3.9438429084899433"><ele>134.0</ele><time>2026-04-19T14:21:39Z</time></trkpt><trkpt lat="48.32141067854437" lon="-3.9438718766124423"><ele>134.25</ele><time>2026-04-19T14:21:40Z</time></trkpt><trkpt lat="48.32129338697797" lon="-3.943920312008798"><ele>134.5</ele><time>2026-04-19T14:21:41Z</time></trkpt><trkpt lat="48.32119887252735" lon="-3.9440533407102603"><ele>134.75</ele><time>2026-04-19T14:21:42Z</time></trkpt><trkpt lat="48.32111829684194" lon="-3.9442046123842753"><ele>135.0</ele><time>2026-04-19T14:21:43Z</time></trkpt><trkpt lat="48.32102210301719" lon="-3.9443715061300453"><ele>135.0</ele><time>2026-04-19T14:21:44Z</time></trkpt><trkpt lat="48.320959164970006" lon="-3.944472445859405"><ele>135.0</ele><time>2026-04-19T14:21:45Z</time></trkpt><trkpt lat="48.32085714791648" lon="-3.9445172903736547"><ele>135.0</ele><time>2026-04-19T14:21:46Z</time></trkpt><trkpt lat="48.32073297339627" lon="-3.9446001167337417"><ele>135.0</ele><time>2026-04-19T14:21:47Z</time></trkpt><trkpt lat="48.320624334767935" lon="-3.9447034340559632"><ele>134.8</ele><time>2026-04-19T14:21:48Z</time></trkpt><trkpt lat="48.32054717723431" lon="-3.9448173174061485"><ele>134.6</ele><time>2026-04-19T14:21:49Z</time></trkpt><trkpt lat="48.32048578443215" lon="-3.9449395051886587"><ele>134.4</ele><time>2026-04-19T14:21:50Z</time></trkpt><trkpt lat="48.3204219843769" lon="-3.945051957720981"><ele>134.2</ele><time>2026-04-19T14:21:51Z</time></trkpt><trkpt lat="48.32032846497484" lon="-3.9451810684854203"><ele>134.0</ele><time>2026-04-19T14:21:52Z</time></trkpt><trkpt lat="48.32023780307782" lon="-3.9453487366044033"><ele>134.0</ele><time>2026-04-19T14:21:53Z</time></trkpt><trkpt lat="48.320167401858086" lon="-3.9455392919307988"><ele>134.0</ele><time>2026-04-19T14:21:54Z</time></trkpt><trkpt lat="48.32009340524227" lon="-3.9457041644162643"><ele>134.0</ele><time>2026-04-19T14:21:55Z</time></trkpt><trkpt lat="48.31998636553293" lon="-3.945851683848665"><ele>134.0</ele><time>2026-04-19T14:21:56Z</time></trkpt><trkpt lat="48.31987868469049" lon="-3.946023941500156"><ele>133.2</ele><time>2026-04-19T14:21:57Z</time></trkpt><trkpt lat="48.31978631790022" lon="-3.9462121383705813"><ele>132.4</ele><time>2026-04-19T14:21:58Z</time></trkpt><trkpt lat="48.319718653196944" lon="-3.9463846598874985"><ele>131.6</ele><time>2026-04-19T14:21:59Z</time></trkpt><trkpt lat="48.31967231978818" lon="-3.946497544376357"><ele>130.8</ele><time>2026-04-19T14:22:00Z</time></trkpt><trkpt lat="48.319613391212485" lon="-3.946545098996603"><ele>130.0</ele><time>2026-04-19T14:22:01Z</time></trkpt><trkpt lat="48.31952795359805" lon="-3.9465845263758967"><ele>130.0</ele><time>2026-04-19T14:22:02Z</time></trkpt><trkpt lat="48.31940778911513" lon="-3.946601691098536"><ele>130.0</ele><time>2026-04-19T14:22:03Z</time></trkpt><trkpt lat="48.31928913353865" lon="-3.946636291588879"><ele>130.0</ele><time>2026-04-19T14:22:04Z</time></trkpt><trkpt lat="48.31919104437439" lon="-3.946715988510828"><ele>130.0</ele><time>2026-04-19T14:22:05Z</time></trkpt><trkpt lat="48.319076334882155" lon="-3.9467716250517406"><ele>127.75</ele><time>2026-04-19T14:22:06Z</time></trkpt><trkpt lat="48.318963853348045" lon="-3.9467950134103575"><ele>125.5</ele><time>2026-04-19T14:22:07Z</time></trkpt><trkpt lat="48.31883654787038" lon="-3.946793454284796"><ele>123.25</ele><time>2026-04-19T14:22:08Z</time></trkpt><trkpt lat="48.318713441176115" lon="-3.9468018881129106"><ele>121.0</ele><time>2026-04-19T14:22:09Z</time></trkpt><trkpt lat="48.3185988117908" lon="-3.9468439598519973"><ele>121.0</ele><time>2026-04-19T14:22:10Z</time></trkpt><trkpt lat="48.31848984321343" lon="-3.9468647752669037"><ele>121.0</ele><time>2026-04-19T14:22:11Z</time></trkpt><trkpt lat="48.318413665126016" lon="-3.9468805001610368"><ele>121.0</ele><time>2026-04-19T14:22:12Z</time></trkpt><trkpt lat="48.31832627851222" lon="-3.946968267045661"><ele>121.0</ele><time>2026-04-19T14:22:13Z</time></trkpt><trkpt lat="48.31823256007693" lon="-3.947060398456058"><ele>121.0</ele><time>2026-04-19T14:22:14Z</time></trkpt><trkpt lat="48.31812122033435" lon="-3.947144923116944"><ele>120.5</ele><time>2026-04-19T14:22:15Z</time></trkpt><trkpt lat="48.31799921454512" lon="-3.9471616017188427"><ele>120.0</ele><time>2026-04-19T14:22:16Z</time></trkpt><trkpt lat="48.31787670239404" lon="-3.9472360292800976"><ele>119.5</ele><time>2026-04-19T14:22:17Z</time></trkpt><trkpt lat="48.31776986232286" lon="-3.9472892205942114"><ele>119.0</ele><time>2026-04-19T14:22:18Z</time></trkpt><trkpt lat="48.31767228873767" lon="-3.9473138037065585"><ele>119.0</ele><time>2026-04-19T14:22:19Z</time></trkpt><trkpt lat="48.31758360129225" lon="-3.9473112393905043"><ele>119.0</ele><time>2026-04-19T14:22:20Z</time></trkpt><trkpt lat="48.31749742081853" lon="-3.9472950339746355"><ele>119.0</ele><time>2026-04-19T14:22:21Z</time></trkpt><trkpt lat="48.31740667472144" lon="-3.94725142819904"><ele>119.0</ele><time>2026-04-19T14:22:22Z</time></trkpt><trkpt lat="48.31729336239127" lon="-3.9471507895230675"><ele>119.0</ele><time>2026-04-19T14:22:23Z</time></trkpt><trkpt lat="48.31719362391035" lon="-3.9470509927050816"><ele>118.99999999999999</ele><time>2026-04-19T14:22:24Z</time></trkpt><trkpt lat="48.31711053268566" lon="-3.946969918667524"><ele>119.0</ele><time>2026-04-19T14:22:25Z</time></trkpt><trkpt lat="48.31702417075693" lon="-3.9469384908247878"><ele>119.0</ele><time>2026-04-19T14:22:26Z</time></trkpt><trkpt lat="48.31702860367181" lon="-3.9468412832211603"><ele>119.0</ele><time>2026-04-19T14:22:29Z</time></trkpt><trkpt lat="48.317095410195776" lon="-3.9468004722683196"><ele>118.99999999999999</ele><time>2026-04-19T14:22:30Z</time></trkpt><trkpt lat="48.31714651696106" lon="-3.9467286585718266"><ele>119.0</ele><time>2026-04-19T14:22:31Z</time></trkpt><trkpt lat="48.31719101826468" lon="-3.9466509346617613"><ele>118.99999999999999</ele><time>2026-04-19T14:22:32Z</time></trkpt><trkpt lat="48.31725310308463" lon="-3.9465321831895404"><ele>119.0</ele><time>2026-04-19T14:22:34Z</time></trkpt><trkpt lat="48.31729323444196" lon="-3.9464424821429036"><ele>119.0</ele><time>2026-04-19T14:22:37Z</time></trkpt><trkpt lat="48.31724785065701" lon="-3.9463566383139694"><ele>119.0</ele><time>2026-04-19T14:22:43Z</time></trkpt><trkpt lat="48.3172329262519" lon="-3.9462406628538016"><ele>118.99999999999999</ele><time>2026-04-19T14:22:45Z</time></trkpt><trkpt lat="48.317240662421575" lon="-3.946126346493708"><ele>119.0</ele><time>2026-04-19T14:22:47Z</time></trkpt><trkpt lat="48.31730859186596" lon="-3.9460739554867157"><ele>118.99999999999999</ele><time>2026-04-19T14:24:38Z</time></trkpt><trkpt lat="48.31723099080672" lon="-3.946189261643995"><ele>119.0</ele><time>2026-04-19T14:24:48Z</time></trkpt><trkpt lat="48.31726866909794" lon="-3.9462781978781996"><ele>119.0</ele><time>2026-04-19T14:24:52Z</time></trkpt><trkpt lat="48.31730743660441" lon="-3.946370636128811"><ele>119.0</ele><time>2026-04-19T14:24:55Z</time></trkpt><trkpt lat="48.317240114692304" lon="-3.9464834705449894"><ele>118.99999999999999</ele><time>2026-04-19T14:24:57Z</time></trkpt><trkpt lat="48.317196100825896" lon="-3.9465730903068206"><ele>119.0</ele><time>2026-04-19T14:24:58Z</time></trkpt><trkpt lat="48.317155198641544" lon="-3.946691257337848"><ele>118.33333333333333</ele><time>2026-04-19T14:25:00Z</time></trkpt><trkpt lat="48.317108163729316" lon="-3.9467933885875026"><ele>117.66666666666666</ele><time>2026-04-19T14:25:09Z</time></trkpt><trkpt lat="48.31703207251815" lon="-3.946866009455163"><ele>117.0</ele><time>2026-04-19T14:25:11Z</time></trkpt><trkpt lat="48.31697145615098" lon="-3.9469195187601716"><ele>116.33333333333334</ele><time>2026-04-19T14:25:13Z</time></trkpt><trkpt lat="48.31690684374777" lon="-3.946972570030145"><ele>115.66666666666667</ele><time>2026-04-19T14:25:14Z</time></trkpt><trkpt lat="48.31681888438138" lon="-3.9470590904434393"><ele>115.0</ele><time>2026-04-19T14:25:15Z</time></trkpt><trkpt lat="48.31673795928098" lon="-3.9471610029444784"><ele>115.00000000000001</ele><time>2026-04-19T14:25:16Z</time></trkpt><trkpt lat="48.31666669825231" lon="-3.9472354215581396"><ele>115.0</ele><time>2026-04-19T14:25:17Z</time></trkpt><trkpt lat="48.316607077911605" lon="-3.947312320248181"><ele>115.0</ele><time>2026-04-19T14:25:18Z</time></trkpt><trkpt lat="48.31654906519227" lon="-3.9473680917283005"><ele>115.0</ele><time>2026-04-19T14:25:19Z</time></trkpt><trkpt lat="48.316483281689145" lon="-3.947410687216472"><ele>115.00000000000001</ele><time>2026-04-19T14:25:20Z</time></trkpt><trkpt lat="48.31643222919233" lon="-3.9475064000147064"><ele>115.0</ele><time>2026-04-19T14:25:23Z</time></trkpt><trkpt lat="48.31636664422656" lon="-3.9476730856810542"><ele>115.83333333333334</ele><time>2026-04-19T14:25:25Z</time></trkpt><trkpt lat="48.316328709279404" lon="-3.947782436316749"><ele>116.66666666666667</ele><time>2026-04-19T14:25:26Z</time></trkpt><trkpt lat="48.31627441945547" lon="-3.947877771292348"><ele>117.5</ele><time>2026-04-19T14:25:27Z</time></trkpt><trkpt lat="48.316235614453575" lon="-3.9479582732674685"><ele>118.33333333333334</ele><time>2026-04-19T14:25:28Z</time></trkpt><trkpt lat="48.31619545276216" lon="-3.9480390828417224"><ele>119.16666666666667</ele><time>2026-04-19T14:25:29Z</time></trkpt><trkpt lat="48.31613645839343" lon="-3.9480893427642703"><ele>120.0</ele><time>2026-04-19T14:25:31Z</time></trkpt><trkpt lat="48.31601529508396" lon="-3.948057440548865"><ele>120.0</ele><time>2026-04-19T14:25:33Z</time></trkpt><trkpt lat="48.31593098977206" lon="-3.9480689703615073"><ele>120.0</ele><time>2026-04-19T14:25:34Z</time></trkpt><trkpt lat="48.31586361832871" lon="-3.9480721412622297"><ele>120.0</ele><time>2026-04-19T14:25:35Z</time></trkpt><trkpt lat="48.315780283634716" lon="-3.948021212934061"><ele>120.0</ele><time>2026-04-19T14:25:36Z</time></trkpt><trkpt lat="48.31567203020846" lon="-3.9479830432797787"><ele>120.0</ele><time>2026-04-19T14:25:37Z</time></trkpt><trkpt lat="48.31555658393255" lon="-3.947985281664864"><ele>120.0</ele><time>2026-04-19T14:25:38Z</time></trkpt><trkpt lat="48.31543741484818" lon="-3.947961823335294"><ele>120.0</ele><time>2026-04-19T14:25:39Z</time></trkpt><trkpt lat="48.31532439301898" lon="-3.9479272583288285"><ele>120.0</ele><time>2026-04-19T14:25:40Z</time></trkpt><trkpt lat="48.315208780195015" lon="-3.9479191823870172"><ele>120.0</ele><time>2026-04-19T14:25:41Z</time></trkpt><trkpt lat="48.31508082518638" lon="-3.9479129817403966"><ele>120.0</ele><time>2026-04-19T14:25:42Z</time></trkpt><trkpt lat="48.314951112363275" lon="-3.9479524021868335"><ele>120.0</ele><time>2026-04-19T14:25:43Z</time></trkpt><trkpt lat="48.31484127916986" lon="-3.9479640667340323"><ele>120.0</ele><time>2026-04-19T14:25:43.999Z</time></trkpt><trkpt lat="48.3147395695776" lon="-3.94795419688462"><ele>120.0</ele><time>2026-04-19T14:25:44.999Z</time></trkpt><trkpt lat="48.31464881926228" lon="-3.947964672913903"><ele>120.0</ele><time>2026-04-19T14:25:45.999Z</time></trkpt><trkpt lat="48.31457667400152" lon="-3.94796869272762"><ele>119.0</ele><time>2026-04-19T14:25:46.999Z</time></trkpt><trkpt lat="48.31449716625644" lon="-3.94797536682758"><ele>118.0</ele><time>2026-04-19T14:25:47.999Z</time></trkpt><trkpt lat="48.31442734341755" lon="-3.9479823135847356"><ele>117.0</ele><time>2026-04-19T14:25:48.999Z</time></trkpt><trkpt lat="48.314329146088745" lon="-3.9480114861382893"><ele>116.0</ele><time>2026-04-19T14:25:50.999Z</time></trkpt><trkpt lat="48.314224336301585" lon="-3.9480974165405067"><ele>115.0</ele><time>2026-04-19T14:25:52.999Z</time></trkpt><trkpt lat="48.314143774386395" lon="-3.948100703478659"><ele>115.0</ele><time>2026-04-19T14:25:53.999Z</time></trkpt><trkpt lat="48.31405710825716" lon="-3.9480792014439574"><ele>115.0</ele><time>2026-04-19T14:25:54.999Z</time></trkpt><trkpt lat="48.31397748651253" lon="-3.948089106327958"><ele>115.0</ele><time>2026-04-19T14:25:57Z</time></trkpt><trkpt lat="48.313887055008024" lon="-3.9480632340630293"><ele>115.0</ele><time>2026-04-19T14:26:01Z</time></trkpt><trkpt lat="48.31378178666471" lon="-3.9480555606369223"><ele>115.0</ele><time>2026-04-19T14:26:02Z</time></trkpt><trkpt lat="48.31368619569027" lon="-3.9480643936637696"><ele>113.8</ele><time>2026-04-19T14:26:03Z</time></trkpt><trkpt lat="48.31360239266792" lon="-3.9480722004475566"><ele>112.6</ele><time>2026-04-19T14:26:04Z</time></trkpt><trkpt lat="48.3135085049566" lon="-3.948057662435406"><ele>111.4</ele><time>2026-04-19T14:26:05Z</time></trkpt><trkpt lat="48.31338848829363" lon="-3.9480390761373334"><ele>110.2</ele><time>2026-04-19T14:26:06Z</time></trkpt><trkpt lat="48.31327130076943" lon="-3.948047781207013"><ele>109.0</ele><time>2026-04-19T14:26:07Z</time></trkpt><trkpt lat="48.31318614460615" lon="-3.9480678552163386"><ele>109.00000000000001</ele><time>2026-04-19T14:26:08Z</time></trkpt><trkpt lat="48.31312371831004" lon="-3.9480230841160586"><ele>109.0</ele><time>2026-04-19T14:26:10Z</time></trkpt><trkpt lat="48.31311829355103" lon="-3.947910900385187"><ele>109.0</ele><time>2026-04-19T14:26:12Z</time></trkpt><trkpt lat="48.31304139538351" lon="-3.94786904124681"><ele>109.0</ele><time>2026-04-19T14:26:16Z</time></trkpt><trkpt lat="48.31297218867112" lon="-3.9478871571841108"><ele>109.00000000000001</ele><time>2026-04-19T14:26:18Z</time></trkpt><trkpt lat="48.312907233752505" lon="-3.9477931414674647"><ele>109.0</ele><time>2026-04-19T14:26:22Z</time></trkpt><trkpt lat="48.31282248087929" lon="-3.947782438209082"><ele>110.00000000000001</ele><time>2026-04-19T14:26:25Z</time></trkpt><trkpt lat="48.31274290606864" lon="-3.9477888194841064"><ele>111.0</ele><time>2026-04-19T14:26:32Z</time></trkpt><trkpt lat="48.312679323103275" lon="-3.9477998070556746"><ele>112.0</ele><time>2026-04-19T14:27:31Z</time></trkpt><trkpt lat="48.3127502881577" lon="-3.9478189706837385"><ele>113.0</ele><time>2026-04-19T14:29:39Z</time></trkpt><trkpt lat="48.31279682498863" lon="-3.9479675882976806"><ele>114.00000000000001</ele><time>2026-04-19T14:31:32Z</time></trkpt><trkpt lat="48.312832874890844" lon="-3.9478150741180804"><ele>115.0</ele><time>2026-04-19T14:31:34Z</time></trkpt><trkpt lat="48.312914311506866" lon="-3.947835591534187"><ele>115.00000000000001</ele><time>2026-04-19T14:31:38Z</time></trkpt><trkpt lat="48.312977339271725" lon="-3.9478924990920836"><ele>115.0</ele><time>2026-04-19T14:31:42Z</time></trkpt><trkpt lat="48.31305455109953" lon="-3.9478724329025865"><ele>115.0</ele><time>2026-04-19T14:31:49Z</time></trkpt><trkpt lat="48.31311529084113" lon="-3.9479496444270823"><ele>115.0</ele><time>2026-04-19T14:31:52Z</time></trkpt><trkpt lat="48.313153232016674" lon="-3.9480560614539404"><ele>115.00000000000001</ele><time>2026-04-19T14:31:54Z</time></trkpt><trkpt lat="48.31322732218234" lon="-3.948080864849751"><ele>115.0</ele><time>2026-04-19T14:31:56Z</time></trkpt><trkpt lat="48.31331874715057" lon="-3.948083294780477"><ele>113.8</ele><time>2026-04-19T14:34:12Z</time></trkpt><trkpt lat="48.313434653952655" lon="-3.948082346773271"><ele>112.6</ele><time>2026-04-19T14:34:14Z</time></trkpt><trkpt lat="48.31350783426138" lon="-3.9480787774130714"><ele>111.4</ele><time>2026-04-19T14:34:14.999Z</time></trkpt><trkpt lat="48.313612956658716" lon="-3.9480883991980553"><ele>110.2</ele><time>2026-04-19T14:34:16.999Z</time></trkpt><trkpt lat="48.31369595533704" lon="-3.9481030813362405"><ele>109.0</ele><time>2026-04-19T14:34:18.999Z</time></trkpt><trkpt lat="48.31379422418237" lon="-3.9480761441258783"><ele>109.00000000000001</ele><time>2026-04-19T14:34:21.001Z</time></trkpt><trkpt lat="48.31386308786186" lon="-3.948079945431125"><ele>109.0</ele><time>2026-04-19T14:34:22.001Z</time></trkpt><trkpt lat="48.313932455029814" lon="-3.948087330645539"><ele>109.0</ele><time>2026-04-19T14:34:23.001Z</time></trkpt><trkpt lat="48.314005000874715" lon="-3.9480935319299975"><ele>109.0</ele><time>2026-04-19T14:34:24.001Z</time></trkpt><trkpt lat="48.3140898171549" lon="-3.9481066680200745"><ele>109.00000000000001</ele><time>2026-04-19T14:34:25Z</time></trkpt><trkpt lat="48.314161867480536" lon="-3.948091462408286"><ele>109.0</ele><time>2026-04-19T14:34:26Z</time></trkpt><trkpt lat="48.31427979762779" lon="-3.94807317096046"><ele>110.2</ele><time>2026-04-19T14:34:28Z</time></trkpt><trkpt lat="48.31438222038576" lon="-3.9480103657359398"><ele>111.4</ele><time>2026-04-19T14:34:30Z</time></trkpt><trkpt lat="48.314505799480486" lon="-3.9479613635999193"><ele>112.6</ele><time>2026-04-19T14:34:32Z</time></trkpt><trkpt lat="48.314597473865675" lon="-3.9479661381639866"><ele>113.8</ele><time>2026-04-19T14:34:33Z</time></trkpt><trkpt lat="48.314684383239516" lon="-3.947964939831415"><ele>115.0</ele><time>2026-04-19T14:34:34Z</time></trkpt><trkpt lat="48.314774792465606" lon="-3.9479463919380646"><ele>116.0</ele><time>2026-04-19T14:34:35Z</time></trkpt><trkpt lat="48.31487666833773" lon="-3.947937991548518"><ele>117.0</ele><time>2026-04-19T14:34:36Z</time></trkpt><trkpt lat="48.31498729604512" lon="-3.947931262737851"><ele>118.0</ele><time>2026-04-19T14:34:37Z</time></trkpt><trkpt lat="48.315093763843" lon="-3.9479319323378794"><ele>119.0</ele><time>2026-04-19T14:34:38Z</time></trkpt><trkpt lat="48.315187280197776" lon="-3.9479236516671006"><ele>120.0</ele><time>2026-04-19T14:34:39Z</time></trkpt><trkpt lat="48.31529718625363" lon="-3.9479183465516594"><ele>120.0</ele><time>2026-04-19T14:34:40Z</time></trkpt><trkpt lat="48.31538824498457" lon="-3.9479262484657367"><ele>120.0</ele><time>2026-04-19T14:34:41Z</time></trkpt><trkpt lat="48.31547371448505" lon="-3.947948835915226"><ele>120.0</ele><time>2026-04-19T14:34:42Z</time></trkpt><trkpt lat="48.31556062155802" lon="-3.9479677787734566"><ele>120.0</ele><time>2026-04-19T14:34:43Z</time></trkpt><trkpt lat="48.31565361115928" lon="-3.9479876123356847"><ele>120.0</ele><time>2026-04-19T14:34:44Z</time></trkpt><trkpt lat="48.31574513116223" lon="-3.947992963877841"><ele>120.0</ele><time>2026-04-19T14:34:45Z</time></trkpt><trkpt lat="48.3158223219874" lon="-3.9480161551746975"><ele>120.0</ele><time>2026-04-19T14:34:46Z</time></trkpt><trkpt lat="48.31589088044335" lon="-3.9480480656622645"><ele>120.0</ele><time>2026-04-19T14:34:47Z</time></trkpt><trkpt lat="48.31595296662719" lon="-3.9480727391969204"><ele>120.0</ele><time>2026-04-19T14:34:48Z</time></trkpt><trkpt lat="48.31606367127659" lon="-3.9480544035461143"><ele>120.0</ele><time>2026-04-19T14:34:50Z</time></trkpt><trkpt lat="48.31613194773857" lon="-3.948050350305002"><ele>120.0</ele><time>2026-04-19T14:34:51Z</time></trkpt><trkpt lat="48.31619945583182" lon="-3.94803649935343"><ele>120.0</ele><time>2026-04-19T14:34:53Z</time></trkpt><trkpt lat="48.31626978527794" lon="-3.947863703228512"><ele>120.0</ele><time>2026-04-19T14:34:55Z</time></trkpt><trkpt lat="48.31631886314704" lon="-3.9477557801389884"><ele>120.0</ele><time>2026-04-19T14:34:56Z</time></trkpt><trkpt lat="48.31636005881853" lon="-3.9476577637064425"><ele>120.0</ele><time>2026-04-19T14:34:57Z</time></trkpt><trkpt lat="48.316405595475125" lon="-3.947584029515002"><ele>120.0</ele><time>2026-04-19T14:34:58Z</time></trkpt><trkpt lat="48.316450102748526" lon="-3.947451932047536"><ele>119.0</ele><time>2026-04-19T14:35:01Z</time></trkpt><trkpt lat="48.316528645912406" lon="-3.9473546195073292"><ele>118.0</ele><time>2026-04-19T14:35:04Z</time></trkpt><trkpt lat="48.31663886804283" lon="-3.947261416780254"><ele>117.0</ele><time>2026-04-19T14:35:06Z</time></trkpt><trkpt lat="48.31670973460062" lon="-3.9471879654168824"><ele>116.0</ele><time>2026-04-19T14:35:07Z</time></trkpt><trkpt lat="48.31676733694144" lon="-3.9471038034794095"><ele>115.0</ele><time>2026-04-19T14:35:08Z</time></trkpt><trkpt lat="48.31682616956351" lon="-3.9470318497364323"><ele>115.0</ele><time>2026-04-19T14:35:09Z</time></trkpt><trkpt lat="48.316925072370715" lon="-3.9469577446270243"><ele>115.0</ele><time>2026-04-19T14:35:10Z</time></trkpt><trkpt lat="48.31699208047032" lon="-3.946909406831183"><ele>115.0</ele><time>2026-04-19T14:35:11Z</time></trkpt><trkpt lat="48.31706401648512" lon="-3.9468476190718182"><ele>115.0</ele><time>2026-04-19T14:35:12Z</time></trkpt><trkpt lat="48.31713064502756" lon="-3.9467745264226184"><ele>115.0</ele><time>2026-04-19T14:35:13Z</time></trkpt><trkpt lat="48.31721626526804" lon="-3.9466497455534224"><ele>115.66666666666667</ele><time>2026-04-19T14:35:15Z</time></trkpt><trkpt lat="48.31726239896584" lon="-3.946544069259851"><ele>116.33333333333334</ele><time>2026-04-19T14:35:17Z</time></trkpt><trkpt lat="48.31724329572766" lon="-3.9464401532942444"><ele>117.0</ele><time>2026-04-19T14:35:20Z</time></trkpt><trkpt lat="48.317207813094576" lon="-3.9463078462034074"><ele>117.66666666666666</ele><time>2026-04-19T14:35:23Z</time></trkpt><trkpt lat="48.317225883124244" lon="-3.9461983797254763"><ele>118.33333333333333</ele><time>2026-04-19T14:35:25Z</time></trkpt><trkpt lat="48.31720469474011" lon="-3.9461023241043707"><ele>119.0</ele><time>2026-04-19T14:35:27Z</time></trkpt><trkpt lat="48.31712648419339" lon="-3.946170358437066"><ele>118.99999999999999</ele><time>2026-04-19T14:35:29Z</time></trkpt><trkpt lat="48.3170601243644" lon="-3.9462362273706484"><ele>119.0</ele><time>2026-04-19T14:35:31Z</time></trkpt><trkpt lat="48.31698427126254" lon="-3.9462532818109914"><ele>119.0</ele><time>2026-04-19T14:35:32Z</time></trkpt><trkpt lat="48.316907888216406" lon="-3.946327682572979"><ele>119.0</ele><time>2026-04-19T14:35:34Z</time></trkpt><trkpt lat="48.31684165978039" lon="-3.9463656236291573"><ele>118.99999999999999</ele><time>2026-04-19T14:35:36Z</time></trkpt><trkpt lat="48.316735089241895" lon="-3.9464042636157854"><ele>119.0</ele><time>2026-04-19T14:35:38Z</time></trkpt><trkpt lat="48.31664366048513" lon="-3.9464342767720004"><ele>118.99999999999999</ele><time>2026-04-19T14:35:40Z</time></trkpt><trkpt lat="48.31656906401578" lon="-3.946541556473268"><ele>119.0</ele><time>2026-04-19T14:35:42Z</time></trkpt><trkpt lat="48.31650410810991" lon="-3.9466134798332244"><ele>119.0</ele><time>2026-04-19T14:35:44Z</time></trkpt><trkpt lat="48.316440428132886" lon="-3.9466032987546886"><ele>119.0</ele><time>2026-04-19T14:35:45Z</time></trkpt><trkpt lat="48.31634974475027" lon="-3.946597043466108"><ele>118.99999999999999</ele><time>2026-04-19T14:35:46Z</time></trkpt><trkpt lat="48.316262609171496" lon="-3.9465821526953606"><ele>119.0</ele><time>2026-04-19T14:35:47Z</time></trkpt><trkpt lat="48.316163807443395" lon="-3.946564614448598"><ele>119.0</ele><time>2026-04-19T14:35:48Z</time></trkpt><trkpt lat="48.3160931896492" lon="-3.946586889462552"><ele>119.0</ele><time>2026-04-19T14:35:49Z</time></trkpt><trkpt lat="48.315998363918595" lon="-3.9466302971000076"><ele>119.0</ele><time>2026-04-19T14:35:50Z</time></trkpt><trkpt lat="48.3159040233057" lon="-3.9466520888342473"><ele>119.0</ele><time>2026-04-19T14:35:51Z</time></trkpt><trkpt lat="48.31581245215122" lon="-3.9466676535334644"><ele>119.0</ele><time>2026-04-19T14:35:52Z</time></trkpt><trkpt lat="48.315716944531225" lon="-3.946684383449092"><ele>118.99999999999999</ele><time>2026-04-19T14:35:53Z</time></trkpt><trkpt lat="48.315645417639395" lon="-3.94670936317936"><ele>119.0</ele><time>2026-04-19T14:35:53.999Z</time></trkpt><trkpt lat="48.315554425005196" lon="-3.9467384458775223"><ele>119.0</ele><time>2026-04-19T14:35:54.999Z</time></trkpt><trkpt lat="48.31547940830402" lon="-3.946760536343469"><ele>119.0</ele><time>2026-04-19T14:35:55.999Z</time></trkpt><trkpt lat="48.31539563056009" lon="-3.9467861787495027"><ele>118.99999999999999</ele><time>2026-04-19T14:35:56.999Z</time></trkpt><trkpt lat="48.315322594070615" lon="-3.9467626561963525"><ele>119.0</ele><time>2026-04-19T14:35:57.999Z</time></trkpt><trkpt lat="48.31525385589556" lon="-3.9467370112157045"><ele>117.4</ele><time>2026-04-19T14:35:58.999Z</time></trkpt><trkpt lat="48.315173699610526" lon="-3.9467314634120427"><ele>115.80000000000001</ele><time>2026-04-19T14:35:59.999Z</time></trkpt><trkpt lat="48.31509109368169" lon="-3.9467276420885886"><ele>114.19999999999999</ele><time>2026-04-19T14:36:00.999Z</time></trkpt><trkpt lat="48.31499248138276" lon="-3.9467468147931615"><ele>112.6</ele><time>2026-04-19T14:36:01.999Z</time></trkpt><trkpt lat="48.31490129995" lon="-3.946743025106812"><ele>111.0</ele><time>2026-04-19T14:36:02.999Z</time></trkpt><trkpt lat="48.314770970296685" lon="-3.946740121317453"><ele>110.4</ele><time>2026-04-19T14:36:03.999Z</time></trkpt><trkpt lat="48.31466577498751" lon="-3.9467448683382624"><ele>109.8</ele><time>2026-04-19T14:36:04.999Z</time></trkpt><trkpt lat="48.314562600254916" lon="-3.9467421465341452"><ele>109.20000000000002</ele><time>2026-04-19T14:36:05.999Z</time></trkpt><trkpt lat="48.31447285755752" lon="-3.946744173299852"><ele>108.60000000000001</ele><time>2026-04-19T14:36:06.999Z</time></trkpt><trkpt lat="48.31437720791" lon="-3.9467710658678103"><ele>108.0</ele><time>2026-04-19T14:36:07.999Z</time></trkpt><trkpt lat="48.314293620126435" lon="-3.9468142355914053"><ele>108.0</ele><time>2026-04-19T14:36:08.999Z</time></trkpt><trkpt lat="48.31420014762703" lon="-3.9468637250296674"><ele>108.00000000000001</ele><time>2026-04-19T14:36:09.999Z</time></trkpt><trkpt lat="48.31410049879393" lon="-3.946905327129176"><ele>108.00000000000001</ele><time>2026-04-19T14:36:10.999Z</time></trkpt><trkpt lat="48.314025794709025" lon="-3.9469106627812036"><ele>108.0</ele><time>2026-04-19T14:36:11.999Z</time></trkpt><trkpt lat="48.31391864029752" lon="-3.946938130893044"><ele>108.0</ele><time>2026-04-19T14:36:12.999Z</time></trkpt><trkpt lat="48.31383149509413" lon="-3.9469736991432147"><ele>107.80000000000001</ele><time>2026-04-19T14:36:13.999Z</time></trkpt><trkpt lat="48.31376572055357" lon="-3.9469943347565235"><ele>107.60000000000001</ele><time>2026-04-19T14:36:14.999Z</time></trkpt><trkpt lat="48.31367338075555" lon="-3.9469690022623753"><ele>107.39999999999999</ele><time>2026-04-19T14:36:16.999Z</time></trkpt><trkpt lat="48.31356643289729" lon="-3.946975659728719"><ele>107.19999999999999</ele><time>2026-04-19T14:36:17.999Z</time></trkpt><trkpt lat="48.31345119276649" lon="-3.9469555722288563"><ele>107.0</ele><time>2026-04-19T14:36:18.999Z</time></trkpt><trkpt lat="48.31334585822418" lon="-3.94695021984705"><ele>107.0</ele><time>2026-04-19T14:36:19.999Z</time></trkpt><trkpt lat="48.313248698195295" lon="-3.946927575379729"><ele>106.99999999999999</ele><time>2026-04-19T14:36:20.999Z</time></trkpt><trkpt lat="48.313171159052416" lon="-3.946902390994904"><ele>106.99999999999999</ele><time>2026-04-19T14:36:21.999Z</time></trkpt><trkpt lat="48.31308538127495" lon="-3.9469265032254652"><ele>107.0</ele><time>2026-04-19T14:36:22.999Z</time></trkpt><trkpt lat="48.312957661919434" lon="-3.946981829764119"><ele>107.0</ele><time>2026-04-19T14:36:24.999Z</time></trkpt><trkpt lat="48.312868599539165" lon="-3.9469750049445884"><ele>107.49999999999999</ele><time>2026-04-19T14:36:27Z</time></trkpt><trkpt lat="48.31278886177104" lon="-3.9469140515123122"><ele>108.0</ele><time>2026-04-19T14:36:29Z</time></trkpt><trkpt lat="48.31273359311464" lon="-3.9468465156621457"><ele>108.5</ele><time>2026-04-19T14:36:31Z</time></trkpt><trkpt lat="48.31266919339442" lon="-3.946882357363764"><ele>109.0</ele><time>2026-04-19T14:36:34Z</time></trkpt><trkpt lat="48.31261752768638" lon="-3.946954798374578"><ele>109.49999999999999</ele><time>2026-04-19T14:36:40Z</time></trkpt><trkpt lat="48.31257153920615" lon="-3.947097642705038"><ele>110.0</ele><time>2026-04-19T14:36:43Z</time></trkpt><trkpt lat="48.31253961339592" lon="-3.947190583015067"><ele>109.99999999999999</ele><time>2026-04-19T14:36:44Z</time></trkpt><trkpt lat="48.3124686485019" lon="-3.94721493832026"><ele>110.0</ele><time>2026-04-19T14:36:46Z</time></trkpt><trkpt lat="48.312404699554236" lon="-3.947301312490584"><ele>110.0</ele><time>2026-04-19T14:36:49Z</time></trkpt><trkpt lat="48.31239863178026" lon="-3.947401117875247"><ele>110.0</ele><time>2026-04-19T14:36:51Z</time></trkpt><trkpt lat="48.31236998845495" lon="-3.947501332542573"><ele>109.99999999999999</ele><time>2026-04-19T14:36:53Z</time></trkpt><trkpt lat="48.3123066025025" lon="-3.9475689322636454"><ele>110.0</ele><time>2026-04-19T14:37:01Z</time></trkpt><trkpt lat="48.31220957901555" lon="-3.9475578802406868"><ele>109.49999999999999</ele><time>2026-04-19T14:37:03Z</time></trkpt><trkpt lat="48.31213239826353" lon="-3.9475387326550773"><ele>109.0</ele><time>2026-04-19T14:37:04Z</time></trkpt><trkpt lat="48.312055425899246" lon="-3.947540199590315"><ele>108.5</ele><time>2026-04-19T14:37:05Z</time></trkpt><trkpt lat="48.31195843048157" lon="-3.9475499896412094"><ele>108.0</ele><time>2026-04-19T14:37:06Z</time></trkpt><trkpt lat="48.311861972649965" lon="-3.947551169094053"><ele>107.49999999999999</ele><time>2026-04-19T14:37:07Z</time></trkpt><trkpt lat="48.311768453679115" lon="-3.9475877979524845"><ele>107.0</ele><time>2026-04-19T14:37:08Z</time></trkpt><trkpt lat="48.31167833891654" lon="-3.9476177196519933"><ele>106.66666666666666</ele><time>2026-04-19T14:37:09Z</time></trkpt><trkpt lat="48.31161457529496" lon="-3.9476249217980657"><ele>106.33333333333333</ele><time>2026-04-19T14:37:10Z</time></trkpt><trkpt lat="48.3115445518365" lon="-3.947632917979527"><ele>106.0</ele><time>2026-04-19T14:37:15Z</time></trkpt><trkpt lat="48.311471031357435" lon="-3.9476493950621205"><ele>105.66666666666666</ele><time>2026-04-19T14:37:16Z</time></trkpt><trkpt lat="48.311372269409624" lon="-3.9476489336387055"><ele>105.33333333333333</ele><time>2026-04-19T14:37:17Z</time></trkpt><trkpt lat="48.311277846947945" lon="-3.9476582882916347"><ele>105.0</ele><time>2026-04-19T14:37:18Z</time></trkpt><trkpt lat="48.31119473691614" lon="-3.947685464100109"><ele>105.0</ele><time>2026-04-19T14:37:19Z</time></trkpt><trkpt lat="48.31111232017521" lon="-3.947693232936161"><ele>105.0</ele><time>2026-04-19T14:37:20Z</time></trkpt><trkpt lat="48.311025017862235" lon="-3.9477025451557544"><ele>105.0</ele><time>2026-04-19T14:37:21Z</time></trkpt><trkpt lat="48.3109480301214" lon="-3.947735417221324"><ele>105.0</ele><time>2026-04-19T14:37:22Z</time></trkpt><trkpt lat="48.31087543242235" lon="-3.947796233101135"><ele>105.0</ele><time>2026-04-19T14:37:23Z</time></trkpt><trkpt lat="48.310780002787574" lon="-3.9478507731207975"><ele>105.0</ele><time>2026-04-19T14:37:24Z</time></trkpt><trkpt lat="48.31067752960394" lon="-3.947905256428559"><ele>105.0</ele><time>2026-04-19T14:37:25Z</time></trkpt><trkpt lat="48.310587523266676" lon="-3.9479797813365294"><ele>105.0</ele><time>2026-04-19T14:37:26Z</time></trkpt><trkpt lat="48.310501775690675" lon="-3.9480555240571817"><ele>105.0</ele><time>2026-04-19T14:37:27Z</time></trkpt><trkpt lat="48.31039810559336" lon="-3.9480827763398025"><ele>105.0</ele><time>2026-04-19T14:37:28Z</time></trkpt><trkpt lat="48.31028807616121" lon="-3.9481112856795972"><ele>105.0</ele><time>2026-04-19T14:37:29Z</time></trkpt><trkpt lat="48.31017155564896" lon="-3.948159035510146"><ele>103.5</ele><time>2026-04-19T14:37:30Z</time></trkpt><trkpt lat="48.310068167711904" lon="-3.948212691459907"><ele>102.0</ele><time>2026-04-19T14:37:31Z</time></trkpt><trkpt lat="48.30994533466952" lon="-3.948248976706619"><ele>100.5</ele><time>2026-04-19T14:37:32Z</time></trkpt><trkpt lat="48.309809117049646" lon="-3.948270725975412"><ele>99.0</ele><time>2026-04-19T14:37:33Z</time></trkpt><trkpt lat="48.3096826016082" lon="-3.9482865350352436"><ele>98.6</ele><time>2026-04-19T14:37:34Z</time></trkpt><trkpt lat="48.30957131530455" lon="-3.9483047708709167"><ele>98.2</ele><time>2026-04-19T14:37:35Z</time></trkpt><trkpt lat="48.309483809254694" lon="-3.948317984991742"><ele>97.8</ele><time>2026-04-19T14:37:36Z</time></trkpt><trkpt lat="48.30939635680611" lon="-3.9483165126586566"><ele>97.39999999999999</ele><time>2026-04-19T14:37:37Z</time></trkpt><trkpt lat="48.309300428218286" lon="-3.9483038375979165"><ele>97.0</ele><time>2026-04-19T14:37:38Z</time></trkpt><trkpt lat="48.30920645602649" lon="-3.948330526920905"><ele>97.0</ele><time>2026-04-19T14:37:39Z</time></trkpt><trkpt lat="48.30910136848857" lon="-3.948350266567706"><ele>97.0</ele><time>2026-04-19T14:37:39.999Z</time></trkpt><trkpt lat="48.30900605936819" lon="-3.948392354805658"><ele>97.0</ele><time>2026-04-19T14:37:40.999Z</time></trkpt><trkpt lat="48.30890676894189" lon="-3.9484846853752598"><ele>97.0</ele><time>2026-04-19T14:37:41.999Z</time></trkpt><trkpt lat="48.308803758690196" lon="-3.948597439092824"><ele>97.0</ele><time>2026-04-19T14:37:42.999Z</time></trkpt><trkpt lat="48.30869430125591" lon="-3.948706913166368"><ele>98.5</ele><time>2026-04-19T14:37:43.999Z</time></trkpt><trkpt lat="48.30858995090124" lon="-3.9488143443980785"><ele>100.0</ele><time>2026-04-19T14:37:44.999Z</time></trkpt><trkpt lat="48.308480407308764" lon="-3.948914964644541"><ele>101.5</ele><time>2026-04-19T14:37:45.999Z</time></trkpt><trkpt lat="48.308393922759585" lon="-3.9490397056049757"><ele>103.0</ele><time>2026-04-19T14:37:46.999Z</time></trkpt><trkpt lat="48.30830592136743" lon="-3.9491743142879265"><ele>104.80000000000001</ele><time>2026-04-19T14:37:47.999Z</time></trkpt><trkpt lat="48.308209719204505" lon="-3.949290417393751"><ele>106.6</ele><time>2026-04-19T14:37:48.999Z</time></trkpt><trkpt lat="48.308113493699764" lon="-3.949393505219958"><ele>108.39999999999999</ele><time>2026-04-19T14:37:49.999Z</time></trkpt><trkpt lat="48.308026207385346" lon="-3.9494833336185424"><ele>110.19999999999999</ele><time>2026-04-19T14:37:50.999Z</time></trkpt><trkpt lat="48.307954353995314" lon="-3.9495701664991496"><ele>112.0</ele><time>2026-04-19T14:37:51.999Z</time></trkpt><trkpt lat="48.30789574476251" lon="-3.949686095000139"><ele>112.00000000000001</ele><time>2026-04-19T14:37:52.999Z</time></trkpt><trkpt lat="48.30781217690594" lon="-3.949791312876821"><ele>112.0</ele><time>2026-04-19T14:37:53.999Z</time></trkpt><trkpt lat="48.30772536463781" lon="-3.949867393333738"><ele>112.0</ele><time>2026-04-19T14:37:54.999Z</time></trkpt><trkpt lat="48.307660628988614" lon="-3.9499378066347104"><ele>112.0</ele><time>2026-04-19T14:37:55.999Z</time></trkpt><trkpt lat="48.30760233465868" lon="-3.949982842746972"><ele>112.00000000000001</ele><time>2026-04-19T14:37:56.999Z</time></trkpt><trkpt lat="48.307533841558424" lon="-3.9500309553806043"><ele>112.0</ele><time>2026-04-19T14:37:58.999Z</time></trkpt><trkpt lat="48.30745914671149" lon="-3.950090506237966"><ele>113.50000000000001</ele><time>2026-04-19T14:38:00.999Z</time></trkpt><trkpt lat="48.307373849404975" lon="-3.9501612538252577"><ele>115.0</ele><time>2026-04-19T14:38:02.999Z</time></trkpt><trkpt lat="48.30727122293508" lon="-3.950259380069183"><ele>116.5</ele><time>2026-04-19T14:38:04.999Z</time></trkpt><trkpt lat="48.307221541864635" lon="-3.9503220554347465"><ele>118.0</ele><time>2026-04-19T14:38:05.999Z</time></trkpt><trkpt lat="48.30716024329296" lon="-3.9503863864674806"><ele>119.50000000000001</ele><time>2026-04-19T14:38:06.999Z</time></trkpt><trkpt lat="48.30710166367003" lon="-3.9504446591864433"><ele>121.0</ele><time>2026-04-19T14:38:07.999Z</time></trkpt><trkpt lat="48.30703183045376" lon="-3.950497276868886"><ele>121.16666666666667</ele><time>2026-04-19T14:38:08.999Z</time></trkpt><trkpt lat="48.306950860467694" lon="-3.9505466561002534"><ele>121.33333333333334</ele><time>2026-04-19T14:38:09.999Z</time></trkpt><trkpt lat="48.30689467566964" lon="-3.9506019329194153"><ele>121.5</ele><time>2026-04-19T14:38:10.999Z</time></trkpt><trkpt lat="48.30682124154516" lon="-3.9506916570638677"><ele>121.66666666666666</ele><time>2026-04-19T14:38:11.999Z</time></trkpt><trkpt lat="48.30674448859817" lon="-3.950797797693668"><ele>121.83333333333333</ele><time>2026-04-19T14:38:12.999Z</time></trkpt><trkpt lat="48.30668078212308" lon="-3.9509053865128614"><ele>122.0</ele><time>2026-04-19T14:38:13.999Z</time></trkpt><trkpt lat="48.306611460447506" lon="-3.9510085910860195"><ele>123.19999999999999</ele><time>2026-04-19T14:38:14.999Z</time></trkpt><trkpt lat="48.30655113333798" lon="-3.9511340566796185"><ele>124.39999999999999</ele><time>2026-04-19T14:38:15.999Z</time></trkpt><trkpt lat="48.30648156690103" lon="-3.951263065126576"><ele>125.60000000000001</ele><time>2026-04-19T14:38:16.999Z</time></trkpt><trkpt lat="48.306413722395774" lon="-3.951354197287085"><ele>126.80000000000001</ele><time>2026-04-19T14:38:17.999Z</time></trkpt><trkpt lat="48.30635228152004" lon="-3.9514591768531324"><ele>128.0</ele><time>2026-04-19T14:38:18.999Z</time></trkpt><trkpt lat="48.30628792801034" lon="-3.951532185250524"><ele>130.0</ele><time>2026-04-19T14:38:19.999Z</time></trkpt><trkpt lat="48.306188886289874" lon="-3.95160697782881"><ele>132.0</ele><time>2026-04-19T14:38:20.999Z</time></trkpt><trkpt lat="48.30611421107041" lon="-3.9516947232128383"><ele>134.0</ele><time>2026-04-19T14:38:21.999Z</time></trkpt><trkpt lat="48.30600873749606" lon="-3.9517639698561338"><ele>136.0</ele><time>2026-04-19T14:38:22.999Z</time></trkpt><trkpt lat="48.30593411146639" lon="-3.95186174145686"><ele>138.0</ele><time>2026-04-19T14:38:23.999Z</time></trkpt><trkpt lat="48.305862821190345" lon="-3.9519374816965818"><ele>138.5</ele><time>2026-04-19T14:38:24.999Z</time></trkpt><trkpt lat="48.30579611538746" lon="-3.952012639652713"><ele>139.0</ele><time>2026-04-19T14:38:25.999Z</time></trkpt><trkpt lat="48.305673779882184" lon="-3.952130815588018"><ele>139.5</ele><time>2026-04-19T14:38:26.999Z</time></trkpt><trkpt lat="48.30582489464547" lon="-3.9520463295263295"><ele>140.0</ele><time>2026-04-19T14:38:27.999Z</time></trkpt><trkpt lat="48.3057797708412" lon="-3.952115958175291"><ele>140.0</ele><time>2026-04-19T14:38:28.999Z</time></trkpt><trkpt lat="48.30572136520222" lon="-3.952223132194647"><ele>140.0</ele><time>2026-04-19T14:38:30.999Z</time></trkpt><trkpt lat="48.30563308399847" lon="-3.9523748382157007"><ele>140.0</ele><time>2026-04-19T14:38:33Z</time></trkpt><trkpt lat="48.30556818820356" lon="-3.952458294564974"><ele>140.0</ele><time>2026-04-19T14:38:34Z</time></trkpt><trkpt lat="48.30550922861422" lon="-3.9525577480578993"><ele>140.0</ele><time>2026-04-19T14:38:35Z</time></trkpt><trkpt lat="48.305436013202275" lon="-3.952664389005829"><ele>141.4</ele><time>2026-04-19T14:38:36Z</time></trkpt><trkpt lat="48.30538539256798" lon="-3.9527542160729263"><ele>142.8</ele><time>2026-04-19T14:38:37Z</time></trkpt><trkpt lat="48.305340278310794" lon="-3.952876496552704"><ele>144.2</ele><time>2026-04-19T14:38:38Z</time></trkpt><trkpt lat="48.305286691452494" lon="-3.953016505181263"><ele>145.6</ele><time>2026-04-19T14:38:39Z</time></trkpt><trkpt lat="48.30524414876786" lon="-3.953137983845555"><ele>147.0</ele><time>2026-04-19T14:38:40Z</time></trkpt><trkpt lat="48.3051928966945" lon="-3.9532787673373293"><ele>146.5</ele><time>2026-04-19T14:38:42Z</time></trkpt><trkpt lat="48.30510971204699" lon="-3.9533738474418203"><ele>146.0</ele><time>2026-04-19T14:38:44Z</time></trkpt><trkpt lat="48.305054305526355" lon="-3.9534291951516236"><ele>145.5</ele><time>2026-04-19T14:38:45Z</time></trkpt><trkpt lat="48.30498925349083" lon="-3.953465772167979"><ele>145.0</ele><time>2026-04-19T14:38:46Z</time></trkpt><trkpt lat="48.30491445066866" lon="-3.9534983143033093"><ele>144.5</ele><time>2026-04-19T14:38:47Z</time></trkpt><trkpt lat="48.30485457677254" lon="-3.9535310794590983"><ele>144.0</ele><time>2026-04-19T14:38:48Z</time></trkpt><trkpt lat="48.304783340578204" lon="-3.9535356345345694"><ele>143.66666666666666</ele><time>2026-04-19T14:38:50Z</time></trkpt><trkpt lat="48.304725451638554" lon="-3.9535887799188854"><ele>143.33333333333334</ele><time>2026-04-19T14:38:53Z</time></trkpt><trkpt lat="48.30464710330792" lon="-3.9536296449464396"><ele>143.0</ele><time>2026-04-19T14:38:56Z</time></trkpt><trkpt lat="48.30453985366758" lon="-3.953706106754416"><ele>142.66666666666669</ele><time>2026-04-19T14:38:58Z</time></trkpt><trkpt lat="48.304479477343385" lon="-3.953753097497761"><ele>142.33333333333334</ele><time>2026-04-19T14:38:59Z</time></trkpt><trkpt lat="48.304407032403574" lon="-3.9538123785245185"><ele>142.0</ele><time>2026-04-19T14:39:00Z</time></trkpt><trkpt lat="48.304330553226556" lon="-3.9538765490492573"><ele>142.0</ele><time>2026-04-19T14:39:01Z</time></trkpt><trkpt lat="48.30426422167235" lon="-3.953933653822574"><ele>142.0</ele><time>2026-04-19T14:39:02Z</time></trkpt><trkpt lat="48.30420544573754" lon="-3.9539878509857127"><ele>142.0</ele><time>2026-04-19T14:39:03Z</time></trkpt><trkpt lat="48.30414849690506" lon="-3.954044812902399"><ele>142.0</ele><time>2026-04-19T14:39:04Z</time></trkpt><trkpt lat="48.30409621347899" lon="-3.954106161690778"><ele>142.0</ele><time>2026-04-19T14:39:05Z</time></trkpt><trkpt lat="48.304044827827646" lon="-3.954182227485838"><ele>142.0</ele><time>2026-04-19T14:39:06Z</time></trkpt><trkpt lat="48.30398536027995" lon="-3.9542739011365495"><ele>142.0</ele><time>2026-04-19T14:39:07Z</time></trkpt><trkpt lat="48.30393083348597" lon="-3.954361874527281"><ele>140.83333333333334</ele><time>2026-04-19T14:39:08Z</time></trkpt><trkpt lat="48.303880016306714" lon="-3.9544456164790804"><ele>139.66666666666669</ele><time>2026-04-19T14:39:09Z</time></trkpt><trkpt lat="48.303817514611616" lon="-3.95454915768008"><ele>138.5</ele><time>2026-04-19T14:39:10Z</time></trkpt><trkpt lat="48.30376671668587" lon="-3.9546353285664058"><ele>137.33333333333334</ele><time>2026-04-19T14:39:11Z</time></trkpt><trkpt lat="48.303716468113144" lon="-3.954720567574648"><ele>136.16666666666666</ele><time>2026-04-19T14:39:12Z</time></trkpt><trkpt lat="48.30366468311415" lon="-3.9548036152240664"><ele>135.0</ele><time>2026-04-19T14:39:13Z</time></trkpt><trkpt lat="48.30360577415157" lon="-3.9548919712236397"><ele>135.0</ele><time>2026-04-19T14:39:14Z</time></trkpt><trkpt lat="48.303543163663505" lon="-3.9549761993999932"><ele>135.0</ele><time>2026-04-19T14:39:15Z</time></trkpt><trkpt lat="48.303483614948505" lon="-3.955046246676397"><ele>135.0</ele><time>2026-04-19T14:39:16Z</time></trkpt><trkpt lat="48.30341540847522" lon="-3.9551121379158327"><ele>135.0</ele><time>2026-04-19T14:39:17Z</time></trkpt><trkpt lat="48.30334592737331" lon="-3.955144876368133"><ele>135.0</ele><time>2026-04-19T14:39:18Z</time></trkpt><trkpt lat="48.30328801326781" lon="-3.9552141948743853"><ele>135.0</ele><time>2026-04-19T14:39:19Z</time></trkpt><trkpt lat="48.30321289652518" lon="-3.9553447258430916"><ele>134.8</ele><time>2026-04-19T14:39:21Z</time></trkpt><trkpt lat="48.30321928127558" lon="-3.955460490413198"><ele>134.6</ele><time>2026-04-19T14:39:24Z</time></trkpt><trkpt lat="48.30319809651106" lon="-3.9556011287423676"><ele>134.4</ele><time>2026-04-19T14:39:53.999Z</time></trkpt><trkpt lat="48.303116778222105" lon="-3.955646368207194"><ele>134.2</ele><time>2026-04-19T14:39:54.999Z</time></trkpt><trkpt lat="48.30302306617683" lon="-3.9557002634019525"><ele>134.0</ele><time>2026-04-19T14:39:55.999Z</time></trkpt><trkpt lat="48.30292928381782" lon="-3.95574402978217"><ele>134.0</ele><time>2026-04-19T14:39:56.999Z</time></trkpt><trkpt lat="48.30283863541038" lon="-3.9557934583988366"><ele>134.0</ele><time>2026-04-19T14:39:57.999Z</time></trkpt><trkpt lat="48.302754674848906" lon="-3.955846023182107"><ele>134.0</ele><time>2026-04-19T14:39:58.999Z</time></trkpt><trkpt lat="48.30267115244696" lon="-3.955887073503601"><ele>134.0</ele><time>2026-04-19T14:39:59.999Z</time></trkpt><trkpt lat="48.30260068942714" lon="-3.955929479708073"><ele>134.0</ele><time>2026-04-19T14:40:00.999Z</time></trkpt><trkpt lat="48.302535536286534" lon="-3.9559854626456885"><ele>134.0</ele><time>2026-04-19T14:40:01.999Z</time></trkpt><trkpt lat="48.30242564924411" lon="-3.9560231602478337"><ele>134.66666666666666</ele><time>2026-04-19T14:40:03.999Z</time></trkpt><trkpt lat="48.30264899123157" lon="-3.9563183234342687"><ele>135.33333333333334</ele><time>2026-04-19T14:40:08.999Z</time></trkpt><trkpt lat="48.30273242391732" lon="-3.9562760776751067"><ele>136.0</ele><time>2026-04-19T14:40:09.999Z</time></trkpt><trkpt lat="48.302820020977045" lon="-3.9562303868848288"><ele>136.0</ele><time>2026-04-19T14:40:10.999Z</time></trkpt><trkpt lat="48.3029158152508" lon="-3.956179174247182"><ele>136.0</ele><time>2026-04-19T14:40:11.999Z</time></trkpt><trkpt lat="48.30301298637574" lon="-3.9561150228758284"><ele>136.0</ele><time>2026-04-19T14:40:12.999Z</time></trkpt><trkpt lat="48.30310247722771" lon="-3.9560559421045243"><ele>136.0</ele><time>2026-04-19T14:40:13.999Z</time></trkpt><trkpt lat="48.30318609918166" lon="-3.956000735791979"><ele>136.0</ele><time>2026-04-19T14:40:14.999Z</time></trkpt><trkpt lat="48.3032587226061" lon="-3.955952790519091"><ele>135.0</ele><time>2026-04-19T14:40:15.999Z</time></trkpt><trkpt lat="48.30331866314247" lon="-3.9559132183637726"><ele>134.0</ele><time>2026-04-19T14:40:16.999Z</time></trkpt><trkpt lat="48.303224156070534" lon="-3.9553165490105844"><ele>134.0</ele><time>2026-04-19T14:40:19.999Z</time></trkpt><trkpt lat="48.30330616237446" lon="-3.9551927585345146"><ele>134.0</ele><time>2026-04-19T14:40:21.999Z</time></trkpt><trkpt lat="48.303356184116076" lon="-3.955130065659122"><ele>134.0</ele><time>2026-04-19T14:40:22.999Z</time></trkpt><trkpt lat="48.303417845722336" lon="-3.9550652657415704"><ele>134.0</ele><time>2026-04-19T14:40:23.999Z</time></trkpt><trkpt lat="48.30348196380649" lon="-3.954997165044137"><ele>134.0</ele><time>2026-04-19T14:40:24.999Z</time></trkpt><trkpt lat="48.303549882207456" lon="-3.95491634959728"><ele>134.0</ele><time>2026-04-19T14:40:25.999Z</time></trkpt><trkpt lat="48.303621040421994" lon="-3.9548206241815316"><ele>134.2</ele><time>2026-04-19T14:40:26.999Z</time></trkpt><trkpt lat="48.30368126159429" lon="-3.9547143343099136"><ele>134.4</ele><time>2026-04-19T14:40:27.999Z</time></trkpt><trkpt lat="48.303738734682774" lon="-3.954608468353712"><ele>134.6</ele><time>2026-04-19T14:40:28.999Z</time></trkpt><trkpt lat="48.30380917719383" lon="-3.9545031227267358"><ele>134.8</ele><time>2026-04-19T14:40:29.999Z</time></trkpt><trkpt lat="48.30387445936697" lon="-3.9544041514955084"><ele>135.0</ele><time>2026-04-19T14:40:30.999Z</time></trkpt><trkpt lat="48.30393318092733" lon="-3.954302967205557"><ele>135.5</ele><time>2026-04-19T14:40:31.999Z</time></trkpt><trkpt lat="48.30399272276703" lon="-3.95421620005596"><ele>136.0</ele><time>2026-04-19T14:40:32.999Z</time></trkpt><trkpt lat="48.3040462037514" lon="-3.9541372039550966"><ele>136.5</ele><time>2026-04-19T14:40:33.999Z</time></trkpt><trkpt lat="48.30415175038326" lon="-3.954012199949512"><ele>137.0</ele><time>2026-04-19T14:40:35.999Z</time></trkpt><trkpt lat="48.304209647628646" lon="-3.9539639268627704"><ele>137.5</ele><time>2026-04-19T14:40:36.999Z</time></trkpt><trkpt lat="48.304265662265394" lon="-3.9539001822106905"><ele>138.0</ele><time>2026-04-19T14:40:38Z</time></trkpt><trkpt lat="48.30432324337815" lon="-3.95383901454771"><ele>138.66666666666666</ele><time>2026-04-19T14:40:39Z</time></trkpt><trkpt lat="48.30438361319274" lon="-3.9537852351874587"><ele>139.33333333333334</ele><time>2026-04-19T14:40:40Z</time></trkpt><trkpt lat="48.304441947195365" lon="-3.9537348430908192"><ele>140.0</ele><time>2026-04-19T14:40:41Z</time></trkpt><trkpt lat="48.304535503020404" lon="-3.9536877402468282"><ele>140.66666666666669</ele><time>2026-04-19T14:40:43Z</time></trkpt><trkpt lat="48.30459766716603" lon="-3.95379449731213"><ele>141.33333333333334</ele><time>2026-04-19T14:40:46Z</time></trkpt><trkpt lat="48.30466491011427" lon="-3.9538008354028773"><ele>142.0</ele><time>2026-04-19T14:40:49Z</time></trkpt><trkpt lat="48.30469946866592" lon="-3.9539078291132834"><ele>142.0</ele><time>2026-04-19T14:47:38Z</time></trkpt><trkpt lat="48.304730137070734" lon="-3.9540124047953835"><ele>142.0</ele><time>2026-04-19T14:47:40Z</time></trkpt><trkpt lat="48.30476034209637" lon="-3.954130304268707"><ele>142.0</ele><time>2026-04-19T14:47:42Z</time></trkpt><trkpt lat="48.3047971113611" lon="-3.954217514335172"><ele>142.0</ele><time>2026-04-19T14:47:44Z</time></trkpt><trkpt lat="48.30484087778285" lon="-3.9543061280483203"><ele>142.0</ele><time>2026-04-19T14:47:47Z</time></trkpt><trkpt lat="48.30480290354758" lon="-3.954410584325453"><ele>142.0</ele><time>2026-04-19T14:48:06.999Z</time></trkpt><trkpt lat="48.30470750531193" lon="-3.9544960157259212"><ele>141.2</ele><time>2026-04-19T14:48:08.999Z</time></trkpt><trkpt lat="48.30457941573058" lon="-3.9545866701173793"><ele>140.39999999999998</ele><time>2026-04-19T14:48:10.999Z</time></trkpt><trkpt lat="48.304472940164445" lon="-3.954693780607007"><ele>139.60000000000002</ele><time>2026-04-19T14:48:12.999Z</time></trkpt><trkpt lat="48.30440756419617" lon="-3.9547502607182383"><ele>138.8</ele><time>2026-04-19T14:48:13.999Z</time></trkpt><trkpt lat="48.30433459173013" lon="-3.9547870200190824"><ele>138.0</ele><time>2026-04-19T14:48:14.999Z</time></trkpt><trkpt lat="48.30426598735823" lon="-3.954858376257788"><ele>138.0</ele><time>2026-04-19T14:48:15.999Z</time></trkpt><trkpt lat="48.30419144876528" lon="-3.9549145971315562"><ele>138.0</ele><time>2026-04-19T14:48:16.999Z</time></trkpt><trkpt lat="48.30412124791028" lon="-3.954974304225194"><ele>138.0</ele><time>2026-04-19T14:48:17.999Z</time></trkpt><trkpt lat="48.30405907258639" lon="-3.9550388174879294"><ele>138.0</ele><time>2026-04-19T14:48:18.999Z</time></trkpt><trkpt lat="48.3039909618474" lon="-3.9550805305663865"><ele>138.0</ele><time>2026-04-19T14:48:19.999Z</time></trkpt><trkpt lat="48.30392244146474" lon="-3.9551349732534242"><ele>138.0</ele><time>2026-04-19T14:48:20.999Z</time></trkpt><trkpt lat="48.303851495061224" lon="-3.955192704711671"><ele>137.33333333333334</ele><time>2026-04-19T14:48:21.999Z</time></trkpt><trkpt lat="48.303782552577374" lon="-3.9552406971833034"><ele>136.66666666666666</ele><time>2026-04-19T14:48:22.999Z</time></trkpt><trkpt lat="48.303721545725296" lon="-3.9552862519399437"><ele>136.0</ele><time>2026-04-19T14:48:23.999Z</time></trkpt><trkpt lat="48.30366036477628" lon="-3.955340703488402"><ele>135.33333333333331</ele><time>2026-04-19T14:48:24.999Z</time></trkpt><trkpt lat="48.303590043185075" lon="-3.9554053661904205"><ele>134.66666666666666</ele><time>2026-04-19T14:48:25.999Z</time></trkpt><trkpt lat="48.30351197414613" lon="-3.955464521308502"><ele>134.0</ele><time>2026-04-19T14:48:26.999Z</time></trkpt><trkpt lat="48.30343318728576" lon="-3.9555020655180444"><ele>134.0</ele><time>2026-04-19T14:48:27.999Z</time></trkpt><trkpt lat="48.30333374277682" lon="-3.9555455083895352"><ele>134.0</ele><time>2026-04-19T14:48:28.999Z</time></trkpt><trkpt lat="48.30324904753384" lon="-3.9555925741872846"><ele>134.0</ele><time>2026-04-19T14:48:29.999Z</time></trkpt><trkpt lat="48.30317269264007" lon="-3.955618115206181"><ele>134.0</ele><time>2026-04-19T14:48:30.999Z</time></trkpt><trkpt lat="48.30309871039914" lon="-3.9556487679030954"><ele>134.0</ele><time>2026-04-19T14:48:31.999Z</time></trkpt><trkpt lat="48.30303082840789" lon="-3.9557026884804127"><ele>134.0</ele><time>2026-04-19T14:48:32.999Z</time></trkpt><trkpt lat="48.302930450935314" lon="-3.9557350341390007"><ele>134.0</ele><time>2026-04-19T14:48:33.999Z</time></trkpt><trkpt lat="48.30287054454273" lon="-3.9557938622646964"><ele>134.0</ele><time>2026-04-19T14:48:34.999Z</time></trkpt><trkpt lat="48.30280381565173" lon="-3.955847590370787"><ele>134.0</ele><time>2026-04-19T14:48:36.999Z</time></trkpt><trkpt lat="48.30271396720229" lon="-3.955857128221357"><ele>134.0</ele><time>2026-04-19T14:48:53.999Z</time></trkpt><trkpt lat="48.30259803197583" lon="-3.955949404377776"><ele>134.0</ele><time>2026-04-19T14:48:55.999Z</time></trkpt><trkpt lat="48.30249778483149" lon="-3.9560072418308687"><ele>134.4</ele><time>2026-04-19T14:48:57.999Z</time></trkpt><trkpt lat="48.30241407315823" lon="-3.9560548015502524"><ele>134.8</ele><time>2026-04-19T14:48:59.999Z</time></trkpt><trkpt lat="48.302310185906904" lon="-3.956095501278805"><ele>135.2</ele><time>2026-04-19T14:49:02Z</time></trkpt><trkpt lat="48.30222204693787" lon="-3.9561137064942136"><ele>135.6</ele><time>2026-04-19T14:49:04Z</time></trkpt><trkpt lat="48.30216369130577" lon="-3.9561642942633184"><ele>136.0</ele><time>2026-04-19T14:49:05Z</time></trkpt><trkpt lat="48.302063883959995" lon="-3.9563003869520528"><ele>135.33333333333334</ele><time>2026-04-19T14:49:07Z</time></trkpt><trkpt lat="48.30200847727331" lon="-3.956369677220662"><ele>134.66666666666669</ele><time>2026-04-19T14:49:08Z</time></trkpt><trkpt lat="48.30190930595092" lon="-3.9564346214226984"><ele>134.0</ele><time>2026-04-19T14:49:10Z</time></trkpt><trkpt lat="48.30185221961967" lon="-3.9564954511679202"><ele>133.33333333333334</ele><time>2026-04-19T14:49:11Z</time></trkpt><trkpt lat="48.30176940434661" lon="-3.956515625341016"><ele>132.66666666666666</ele><time>2026-04-19T14:49:12Z</time></trkpt><trkpt lat="48.30169242806271" lon="-3.9565234279595267"><ele>132.0</ele><time>2026-04-19T14:49:13Z</time></trkpt><trkpt lat="48.301628979265466" lon="-3.9565301703150073"><ele>132.0</ele><time>2026-04-19T14:49:14Z</time></trkpt><trkpt lat="48.301535888809866" lon="-3.9565271993797353"><ele>132.0</ele><time>2026-04-19T14:49:15Z</time></trkpt><trkpt lat="48.301441208527514" lon="-3.956506786105212"><ele>132.0</ele><time>2026-04-19T14:49:17Z</time></trkpt><trkpt lat="48.30138923576775" lon="-3.956660683621496"><ele>132.0</ele><time>2026-04-19T14:49:20Z</time></trkpt><trkpt lat="48.301457398192056" lon="-3.9568424811714897"><ele>132.0</ele><time>2026-04-19T14:49:22Z</time></trkpt><trkpt lat="48.301519927588814" lon="-3.9570071693745534"><ele>130.66666666666666</ele><time>2026-04-19T14:49:24Z</time></trkpt><trkpt lat="48.30157452158146" lon="-3.9570841497748135"><ele>129.33333333333334</ele><time>2026-04-19T14:49:25Z</time></trkpt><trkpt lat="48.30162086527421" lon="-3.9571491183488816"><ele>128.0</ele><time>2026-04-19T14:49:26Z</time></trkpt><trkpt lat="48.301711296527685" lon="-3.957224496781818"><ele>126.66666666666667</ele><time>2026-04-19T14:49:28Z</time></trkpt><trkpt lat="48.301823303220914" lon="-3.957294868175006"><ele>125.33333333333334</ele><time>2026-04-19T14:49:30Z</time></trkpt><trkpt lat="48.30189677803169" lon="-3.957329299725268"><ele>124.0</ele><time>2026-04-19T14:49:31Z</time></trkpt><trkpt lat="48.30196282338902" lon="-3.957368150584281"><ele>119.75</ele><time>2026-04-19T14:49:32Z</time></trkpt><trkpt lat="48.301981952565114" lon="-3.9576728996794275"><ele>115.5</ele><time>2026-04-19T14:49:33Z</time></trkpt><trkpt lat="48.302048478865736" lon="-3.9577337687492964"><ele>111.25</ele><time>2026-04-19T14:49:34Z</time></trkpt><trkpt lat="48.30214756418182" lon="-3.9577882179327926"><ele>107.0</ele><time>2026-04-19T14:49:35Z</time></trkpt><trkpt lat="48.302242695497604" lon="-3.957828864789488"><ele>108.16666666666666</ele><time>2026-04-19T14:49:36Z</time></trkpt><trkpt lat="48.30230740916333" lon="-3.9578791521462313"><ele>109.33333333333333</ele><time>2026-04-19T14:49:37Z</time></trkpt><trkpt lat="48.30237330554461" lon="-3.9579338291569686"><ele>110.5</ele><time>2026-04-19T14:49:38Z</time></trkpt><trkpt lat="48.30244132682578" lon="-3.9579946332714044"><ele>111.66666666666666</ele><time>2026-04-19T14:49:39Z</time></trkpt><trkpt lat="48.3025154350163" lon="-3.9580516150637655"><ele>112.83333333333333</ele><time>2026-04-19T14:49:40Z</time></trkpt><trkpt lat="48.302562691488575" lon="-3.958126072871302"><ele>114.0</ele><time>2026-04-19T14:49:41Z</time></trkpt><trkpt lat="48.30264036209736" lon="-3.9581778593609456"><ele>114.0</ele><time>2026-04-19T14:49:43Z</time></trkpt><trkpt lat="48.30271144499488" lon="-3.95825384153732"><ele>114.0</ele><time>2026-04-19T14:49:47Z</time></trkpt><trkpt lat="48.30276522835316" lon="-3.9583118014860217"><ele>114.0</ele><time>2026-04-19T14:49:48Z</time></trkpt><trkpt lat="48.30283482684894" lon="-3.958336237837771"><ele>114.0</ele><time>2026-04-19T14:49:49Z</time></trkpt><trkpt lat="48.30295894341314" lon="-3.958390357930444"><ele>114.0</ele><time>2026-04-19T14:49:51Z</time></trkpt><trkpt lat="48.30302671647718" lon="-3.958406700849684"><ele>114.0</ele><time>2026-04-19T14:49:52Z</time></trkpt><trkpt lat="48.30313474058866" lon="-3.9584375991640464"><ele>111.6</ele><time>2026-04-19T14:49:54Z</time></trkpt><trkpt lat="48.30324744050019" lon="-3.958461959734914"><ele>109.2</ele><time>2026-04-19T14:49:56Z</time></trkpt><trkpt lat="48.30333822291157" lon="-3.958486417982957"><ele>106.8</ele><time>2026-04-19T14:49:57Z</time></trkpt><trkpt lat="48.30340692534755" lon="-3.9585213023307277"><ele>104.39999999999999</ele><time>2026-04-19T14:49:58Z</time></trkpt><trkpt lat="48.303480302464486" lon="-3.9585789624023815"><ele>102.0</ele><time>2026-04-19T14:50:00Z</time></trkpt><trkpt lat="48.30342713903431" lon="-3.9587145486646533"><ele>102.0</ele><time>2026-04-19T14:50:02Z</time></trkpt><trkpt lat="48.303383367036886" lon="-3.9588781582171806"><ele>102.0</ele><time>2026-04-19T14:50:04Z</time></trkpt><trkpt lat="48.30336325800825" lon="-3.9589853772697254"><ele>102.0</ele><time>2026-04-19T14:50:05Z</time></trkpt><trkpt lat="48.30333788623681" lon="-3.959134667106961"><ele>102.0</ele><time>2026-04-19T14:50:06Z</time></trkpt><trkpt lat="48.30332417835272" lon="-3.959296930271532"><ele>102.0</ele><time>2026-04-19T14:50:08Z</time></trkpt><trkpt lat="48.30333326777351" lon="-3.9594686992080854"><ele>101.39999999999999</ele><time>2026-04-19T14:50:10Z</time></trkpt><trkpt lat="48.30337690824526" lon="-3.959590345056113"><ele>100.8</ele><time>2026-04-19T14:50:11Z</time></trkpt><trkpt lat="48.303409069419025" lon="-3.9597032855160745"><ele>100.2</ele><time>2026-04-19T14:50:12Z</time></trkpt><trkpt lat="48.30345806949843" lon="-3.9598862194833613"><ele>99.6</ele><time>2026-04-19T14:50:14Z</time></trkpt><trkpt lat="48.303491278908076" lon="-3.9599718154129904"><ele>99.0</ele><time>2026-04-19T14:50:15Z</time></trkpt><trkpt lat="48.303516947060395" lon="-3.9600903418517968"><ele>99.0</ele><time>2026-04-19T14:50:16Z</time></trkpt><trkpt lat="48.30353112860957" lon="-3.9602170740130003"><ele>99.0</ele><time>2026-04-19T14:50:17Z</time></trkpt><trkpt lat="48.303541088963755" lon="-3.9603624709432212"><ele>99.0</ele><time>2026-04-19T14:50:17.999Z</time></trkpt><trkpt lat="48.303556790368276" lon="-3.9604935012738864"><ele>99.0</ele><time>2026-04-19T14:50:18.999Z</time></trkpt><trkpt lat="48.303590924831454" lon="-3.960634496337785"><ele>99.0</ele><time>2026-04-19T14:50:19.999Z</time></trkpt><trkpt lat="48.30360359200418" lon="-3.960768844692856"><ele>99.66666666666667</ele><time>2026-04-19T14:50:20.999Z</time></trkpt><trkpt lat="48.30362650979258" lon="-3.960878849637389"><ele>100.33333333333334</ele><time>2026-04-19T14:50:21.999Z</time></trkpt><trkpt lat="48.30364283270084" lon="-3.960986765229414"><ele>101.0</ele><time>2026-04-19T14:50:22.999Z</time></trkpt><trkpt lat="48.3036616804721" lon="-3.9611159894782517"><ele>101.66666666666667</ele><time>2026-04-19T14:50:23.999Z</time></trkpt><trkpt lat="48.303677446448766" lon="-3.961265462629175"><ele>102.33333333333334</ele><time>2026-04-19T14:50:24.999Z</time></trkpt><trkpt lat="48.30368697246753" lon="-3.961393781639315"><ele>103.0</ele><time>2026-04-19T14:50:25.999Z</time></trkpt><trkpt lat="48.303706038032416" lon="-3.961547534589169"><ele>103.00000000000001</ele><time>2026-04-19T14:50:26.999Z</time></trkpt><trkpt lat="48.30373577301802" lon="-3.961674055900971"><ele>103.0</ele><time>2026-04-19T14:50:27.999Z</time></trkpt><trkpt lat="48.30375943097178" lon="-3.9618183742344377"><ele>103.0</ele><time>2026-04-19T14:50:28.999Z</time></trkpt><trkpt lat="48.303780791506895" lon="-3.9619249058317014"><ele>103.0</ele><time>2026-04-19T14:50:29.999Z</time></trkpt><trkpt lat="48.30381363763409" lon="-3.9620922578409994"><ele>103.00000000000001</ele><time>2026-04-19T14:50:31.999Z</time></trkpt><trkpt lat="48.30383945948349" lon="-3.962188887082349"><ele>103.0</ele><time>2026-04-19T14:50:32.999Z</time></trkpt><trkpt lat="48.30386362145957" lon="-3.962283253902164"><ele>103.66666666666667</ele><time>2026-04-19T14:50:33.999Z</time></trkpt><trkpt lat="48.30388762302844" lon="-3.9624023204662815"><ele>104.33333333333334</ele><time>2026-04-19T14:50:34.999Z</time></trkpt><trkpt lat="48.30391414678167" lon="-3.96253145034938"><ele>105.0</ele><time>2026-04-19T14:50:35.999Z</time></trkpt><trkpt lat="48.30392878814366" lon="-3.96267249202498"><ele>105.66666666666666</ele><time>2026-04-19T14:50:36.999Z</time></trkpt><trkpt lat="48.3039518951242" lon="-3.9627610438558256"><ele>106.33333333333333</ele><time>2026-04-19T14:50:37.999Z</time></trkpt><trkpt lat="48.30395576666963" lon="-3.962886672684522"><ele>107.0</ele><time>2026-04-19T14:50:39.999Z</time></trkpt><trkpt lat="48.303894913938414" lon="-3.9629686463628016"><ele>108.0</ele><time>2026-04-19T14:50:40.999Z</time></trkpt><trkpt lat="48.30382858109399" lon="-3.9630690503165744"><ele>108.99999999999999</ele><time>2026-04-19T14:50:41.999Z</time></trkpt><trkpt lat="48.30376032910116" lon="-3.9631586267262366"><ele>109.99999999999999</ele><time>2026-04-19T14:50:42.999Z</time></trkpt><trkpt lat="48.30368528514787" lon="-3.9632785188109234"><ele>111.0</ele><time>2026-04-19T14:50:43.999Z</time></trkpt><trkpt lat="48.3036223560201" lon="-3.963365069827019"><ele>112.0</ele><time>2026-04-19T14:50:44.999Z</time></trkpt><trkpt lat="48.303542860184784" lon="-3.963447080619502"><ele>114.25</ele><time>2026-04-19T14:50:45.999Z</time></trkpt><trkpt lat="48.30343880799426" lon="-3.9635308151070507"><ele>116.5</ele><time>2026-04-19T14:50:46.999Z</time></trkpt><trkpt lat="48.303335025014135" lon="-3.9636361085597063"><ele>118.75</ele><time>2026-04-19T14:50:47.999Z</time></trkpt><trkpt lat="48.30324630076077" lon="-3.963760772702678"><ele>121.0</ele><time>2026-04-19T14:50:48.999Z</time></trkpt><trkpt lat="48.303167142675186" lon="-3.963882686903809"><ele>121.00000000000001</ele><time>2026-04-19T14:50:49.999Z</time></trkpt><trkpt lat="48.30309867444148" lon="-3.9639802423273354"><ele>121.0</ele><time>2026-04-19T14:50:50.999Z</time></trkpt><trkpt lat="48.30304971740839" lon="-3.9640786704024666"><ele>121.0</ele><time>2026-04-19T14:50:51.999Z</time></trkpt><trkpt lat="48.30303329597599" lon="-3.9641980666837835"><ele>121.0</ele><time>2026-04-19T14:50:52.999Z</time></trkpt><trkpt lat="48.303044656573675" lon="-3.964341232148493"><ele>121.00000000000001</ele><time>2026-04-19T14:50:53.999Z</time></trkpt><trkpt lat="48.30304857985144" lon="-3.9644802027765937"><ele>121.0</ele><time>2026-04-19T14:50:54.999Z</time></trkpt><trkpt lat="48.30305057246034" lon="-3.964637268305196"><ele>122.8</ele><time>2026-04-19T14:50:55.999Z</time></trkpt><trkpt lat="48.303057014238014" lon="-3.964772103681619"><ele>124.6</ele><time>2026-04-19T14:50:56.999Z</time></trkpt><trkpt lat="48.30305253011023" lon="-3.9649331401855195"><ele>126.4</ele><time>2026-04-19T14:50:57.999Z</time></trkpt><trkpt lat="48.303044419234205" lon="-3.965066913942909"><ele>128.2</ele><time>2026-04-19T14:50:58.999Z</time></trkpt><trkpt lat="48.30301999990624" lon="-3.965180136839358"><ele>130.0</ele><time>2026-04-19T14:50:59.999Z</time></trkpt><trkpt lat="48.302976173119255" lon="-3.965302215463604"><ele>130.4</ele><time>2026-04-19T14:51:00.999Z</time></trkpt><trkpt lat="48.302922239088176" lon="-3.9654352671659514"><ele>130.8</ele><time>2026-04-19T14:51:01.999Z</time></trkpt><trkpt lat="48.30287973350347" lon="-3.9655639587867926"><ele>131.2</ele><time>2026-04-19T14:51:02.999Z</time></trkpt><trkpt lat="48.3028363383079" lon="-3.965662834738004"><ele>131.6</ele><time>2026-04-19T14:51:03.999Z</time></trkpt><trkpt lat="48.30279035946315" lon="-3.9657585855855584"><ele>132.0</ele><time>2026-04-19T14:51:04.999Z</time></trkpt><trkpt lat="48.30279936738022" lon="-3.9659484064670147"><ele>132.0</ele><time>2026-04-19T14:51:05.999Z</time></trkpt><trkpt lat="48.30273958614261" lon="-3.9660483946906604"><ele>132.0</ele><time>2026-04-19T14:51:08Z</time></trkpt><trkpt lat="48.302685375566874" lon="-3.966138978309125"><ele>132.0</ele><time>2026-04-19T14:51:10Z</time></trkpt><trkpt lat="48.30259769695117" lon="-3.9662894580806687"><ele>132.0</ele><time>2026-04-19T14:51:12Z</time></trkpt><trkpt lat="48.3025499326688" lon="-3.9663723471141683"><ele>132.0</ele><time>2026-04-19T14:51:13Z</time></trkpt><trkpt lat="48.30249389321545" lon="-3.966457374005246"><ele>132.0</ele><time>2026-04-19T14:51:14Z</time></trkpt><trkpt lat="48.302454903452656" lon="-3.966537251357626"><ele>132.0</ele><time>2026-04-19T14:51:15Z</time></trkpt><trkpt lat="48.30248908761206" lon="-3.966706487321942"><ele>132.0</ele><time>2026-04-19T14:51:18Z</time></trkpt><trkpt lat="48.302604460388956" lon="-3.9667397229604857"><ele>132.0</ele><time>2026-04-19T14:51:20Z</time></trkpt><trkpt lat="48.30268151852983" lon="-3.966762498993955"><ele>132.0</ele><time>2026-04-19T14:51:21Z</time></trkpt><trkpt lat="48.3027727198429" lon="-3.9667723383906073"><ele>131.6</ele><time>2026-04-19T14:51:22Z</time></trkpt><trkpt lat="48.30287127077859" lon="-3.9668207908093356"><ele>131.2</ele><time>2026-04-19T14:51:23Z</time></trkpt><trkpt lat="48.302965675751636" lon="-3.9668472365254095"><ele>130.8</ele><time>2026-04-19T14:51:24Z</time></trkpt><trkpt lat="48.30306125925668" lon="-3.966886699293601"><ele>130.4</ele><time>2026-04-19T14:51:25Z</time></trkpt><trkpt lat="48.303175410358904" lon="-3.9668723662331615"><ele>130.0</ele><time>2026-04-19T14:51:26Z</time></trkpt><trkpt lat="48.30328517022491" lon="-3.9668924239797225"><ele>131.2</ele><time>2026-04-19T14:51:27Z</time></trkpt><trkpt lat="48.30339093692528" lon="-3.9668572038958105"><ele>132.4</ele><time>2026-04-19T14:51:28Z</time></trkpt><trkpt lat="48.30349014064956" lon="-3.9668328557989794"><ele>133.6</ele><time>2026-04-19T14:51:29Z</time></trkpt><trkpt lat="48.303586818157754" lon="-3.966788536474249"><ele>134.8</ele><time>2026-04-19T14:51:30Z</time></trkpt><trkpt lat="48.30367900413565" lon="-3.966754268818748"><ele>136.0</ele><time>2026-04-19T14:51:31Z</time></trkpt><trkpt lat="48.303765409384425" lon="-3.9666978351392372"><ele>136.0</ele><time>2026-04-19T14:51:32Z</time></trkpt><trkpt lat="48.303852243072726" lon="-3.9666400636463273"><ele>136.0</ele><time>2026-04-19T14:51:33Z</time></trkpt><trkpt lat="48.303931542927764" lon="-3.96658452554214"><ele>136.0</ele><time>2026-04-19T14:51:34Z</time></trkpt><trkpt lat="48.30401297742219" lon="-3.9665274081040742"><ele>136.0</ele><time>2026-04-19T14:51:35Z</time></trkpt><trkpt lat="48.30409135283954" lon="-3.9664706451992906"><ele>136.0</ele><time>2026-04-19T14:51:36Z</time></trkpt><trkpt lat="48.304170940412654" lon="-3.9664166935569463"><ele>136.0</ele><time>2026-04-19T14:51:37Z</time></trkpt><trkpt lat="48.30424952570956" lon="-3.9663638392212914"><ele>137.0</ele><time>2026-04-19T14:51:38Z</time></trkpt><trkpt lat="48.3043319285129" lon="-3.9663071892779205"><ele>138.0</ele><time>2026-04-19T14:51:39Z</time></trkpt><trkpt lat="48.30440246997077" lon="-3.9662584342292324"><ele>139.0</ele><time>2026-04-19T14:51:40Z</time></trkpt><trkpt lat="48.30446481198224" lon="-3.9662186517259044"><ele>140.0</ele><time>2026-04-19T14:51:41Z</time></trkpt><trkpt lat="48.3045379614578" lon="-3.966158603513076"><ele>141.0</ele><time>2026-04-19T14:51:43Z</time></trkpt><trkpt lat="48.30457945191532" lon="-3.9663388087451836"><ele>142.0</ele><time>2026-04-19T14:51:46Z</time></trkpt><trkpt lat="48.30459349397958" lon="-3.966445686348597"><ele>142.0</ele><time>2026-04-19T14:51:47Z</time></trkpt><trkpt lat="48.304548484018646" lon="-3.9662208977860662"><ele>142.0</ele><time>2026-04-19T14:51:48Z</time></trkpt><trkpt lat="48.30457815456704" lon="-3.966396202153865"><ele>142.0</ele><time>2026-04-19T14:51:54Z</time></trkpt><trkpt lat="48.30458875656989" lon="-3.966538210592829"><ele>142.0</ele><time>2026-04-19T14:51:55Z</time></trkpt><trkpt lat="48.304603764687386" lon="-3.9666933639881727"><ele>142.25</ele><time>2026-04-19T14:51:56Z</time></trkpt><trkpt lat="48.304622961149946" lon="-3.966887117371422"><ele>142.5</ele><time>2026-04-19T14:51:57Z</time></trkpt><trkpt lat="48.30465634318553" lon="-3.96710416580967"><ele>142.75</ele><time>2026-04-19T14:51:58Z</time></trkpt><trkpt lat="48.30468843600682" lon="-3.9673431526365444"><ele>143.0</ele><time>2026-04-19T14:51:59Z</time></trkpt><trkpt lat="48.30472944060888" lon="-3.9676095263900235"><ele>142.0</ele><time>2026-04-19T14:52:00Z</time></trkpt><trkpt lat="48.30475607182899" lon="-3.9678425995849347"><ele>141.0</ele><time>2026-04-19T14:52:01Z</time></trkpt><trkpt lat="48.304776192131975" lon="-3.9679943852906634"><ele>140.0</ele><time>2026-04-19T14:52:02Z</time></trkpt><trkpt lat="48.304794538328984" lon="-3.9681522333357853"><ele>139.0</ele><time>2026-04-19T14:52:03Z</time></trkpt><trkpt lat="48.30480415560634" lon="-3.9683370100862474"><ele>138.6</ele><time>2026-04-19T14:52:04Z</time></trkpt><trkpt lat="48.30481635578504" lon="-3.9685381999531066"><ele>138.2</ele><time>2026-04-19T14:52:05Z</time></trkpt><trkpt lat="48.304841899789245" lon="-3.968686619235777"><ele>137.79999999999998</ele><time>2026-04-19T14:52:06Z</time></trkpt><trkpt lat="48.30486065408535" lon="-3.968779304110935"><ele>137.4</ele><time>2026-04-19T14:52:07Z</time></trkpt><trkpt lat="48.304903435269466" lon="-3.968884386897453"><ele>137.0</ele><time>2026-04-19T14:52:10Z</time></trkpt><trkpt lat="48.30491764573638" lon="-3.969013443315993"><ele>137.0</ele><time>2026-04-19T14:52:13Z</time></trkpt><trkpt lat="48.30492410187929" lon="-3.9691486535374536"><ele>137.0</ele><time>2026-04-19T14:52:15Z</time></trkpt><trkpt lat="48.304938145139516" lon="-3.9692502453070695"><ele>137.0</ele><time>2026-04-19T14:52:16Z</time></trkpt><trkpt lat="48.304954106921066" lon="-3.96936092349518"><ele>137.0</ele><time>2026-04-19T14:52:17Z</time></trkpt><trkpt lat="48.3049977499091" lon="-3.969435902358683"><ele>137.0</ele><time>2026-04-19T14:52:18Z</time></trkpt><trkpt lat="48.305067986402214" lon="-3.9695122172696498"><ele>137.0</ele><time>2026-04-19T14:52:19Z</time></trkpt><trkpt lat="48.30515405805177" lon="-3.9695799489445425"><ele>137.16666666666666</ele><time>2026-04-19T14:52:20Z</time></trkpt><trkpt lat="48.30523080042478" lon="-3.969651766258154"><ele>137.33333333333331</ele><time>2026-04-19T14:52:21Z</time></trkpt><trkpt lat="48.3052998827268" lon="-3.969744829420315"><ele>137.5</ele><time>2026-04-19T14:52:22Z</time></trkpt><trkpt lat="48.30536270015131" lon="-3.9698359211645537"><ele>137.66666666666666</ele><time>2026-04-19T14:52:23Z</time></trkpt><trkpt lat="48.305413048010706" lon="-3.9699185683450704"><ele>137.83333333333334</ele><time>2026-04-19T14:52:24Z</time></trkpt><trkpt lat="48.30546721927693" lon="-3.9700191198392396"><ele>138.0</ele><time>2026-04-19T14:52:25Z</time></trkpt><trkpt lat="48.305488511359776" lon="-3.970111687007479"><ele>138.0</ele><time>2026-04-19T14:52:26Z</time></trkpt><trkpt lat="48.30553201247411" lon="-3.970314349025585"><ele>138.0</ele><time>2026-04-19T14:52:28Z</time></trkpt><trkpt lat="48.305546202598286" lon="-3.970444856378668"><ele>138.0</ele><time>2026-04-19T14:52:29Z</time></trkpt><trkpt lat="48.30554287440897" lon="-3.970552859142306"><ele>138.0</ele><time>2026-04-19T14:52:30Z</time></trkpt><trkpt lat="48.305582952012315" lon="-3.9706943540014934"><ele>138.0</ele><time>2026-04-19T14:52:32Z</time></trkpt><trkpt lat="48.30561687007348" lon="-3.970806311315311"><ele>135.0</ele><time>2026-04-19T14:52:34Z</time></trkpt><trkpt lat="48.30565561739992" lon="-3.970885520003479"><ele>132.0</ele><time>2026-04-19T14:52:36Z</time></trkpt><trkpt lat="48.305660638759555" lon="-3.9710211030819615"><ele>129.0</ele><time>2026-04-19T14:52:38Z</time></trkpt><trkpt lat="48.305684098876725" lon="-3.9711189736423527"><ele>126.0</ele><time>2026-04-19T14:52:39Z</time></trkpt><trkpt lat="48.305689217169515" lon="-3.971239094709728"><ele>123.0</ele><time>2026-04-19T14:52:40Z</time></trkpt><trkpt lat="48.30566784862899" lon="-3.9713896873723673"><ele>120.0</ele><time>2026-04-19T14:52:40.999Z</time></trkpt><trkpt lat="48.30567319804294" lon="-3.9715518216011647"><ele>118.8</ele><time>2026-04-19T14:52:41.999Z</time></trkpt><trkpt lat="48.30567960389087" lon="-3.9717156637091633"><ele>117.6</ele><time>2026-04-19T14:52:42.999Z</time></trkpt><trkpt lat="48.30568232540823" lon="-3.9718798767166588"><ele>116.4</ele><time>2026-04-19T14:52:43.999Z</time></trkpt><trkpt lat="48.30565526934175" lon="-3.9720245242279746"><ele>115.2</ele><time>2026-04-19T14:52:44.999Z</time></trkpt><trkpt lat="48.30562089750649" lon="-3.972178071691495"><ele>114.0</ele><time>2026-04-19T14:52:45.999Z</time></trkpt><trkpt lat="48.3055964344407" lon="-3.9723306156846143"><ele>114.0</ele><time>2026-04-19T14:52:46.999Z</time></trkpt><trkpt lat="48.3055999883399" lon="-3.972463285495906"><ele>114.0</ele><time>2026-04-19T14:52:47.999Z</time></trkpt><trkpt lat="48.30557508608427" lon="-3.9726055673280505"><ele>114.0</ele><time>2026-04-19T14:52:49.999Z</time></trkpt><trkpt lat="48.30555397804304" lon="-3.9727418430483694"><ele>114.0</ele><time>2026-04-19T14:52:51.999Z</time></trkpt><trkpt lat="48.30551177571486" lon="-3.9729397968366764"><ele>114.0</ele><time>2026-04-19T14:52:53.999Z</time></trkpt><trkpt lat="48.305505582672325" lon="-3.9730425609416375"><ele>115.6</ele><time>2026-04-19T14:52:54.999Z</time></trkpt><trkpt lat="48.305514312711594" lon="-3.9732164345238594"><ele>117.2</ele><time>2026-04-19T14:52:56.999Z</time></trkpt><trkpt lat="48.30547175717883" lon="-3.9733406960899678"><ele>118.79999999999998</ele><time>2026-04-19T14:52:57.999Z</time></trkpt><trkpt lat="48.30545373569271" lon="-3.973440742802415"><ele>120.39999999999999</ele><time>2026-04-19T14:52:58.999Z</time></trkpt><trkpt lat="48.30542345504941" lon="-3.9735463933176267"><ele>122.0</ele><time>2026-04-19T14:52:59.999Z</time></trkpt><trkpt lat="48.30541697344619" lon="-3.9737351502130642"><ele>121.99999999999999</ele><time>2026-04-19T14:53:01.999Z</time></trkpt><trkpt lat="48.30543612914282" lon="-3.9738514838687125"><ele>122.0</ele><time>2026-04-19T14:53:02.999Z</time></trkpt><trkpt lat="48.30543562400167" lon="-3.9739598224691415"><ele>122.0</ele><time>2026-04-19T14:53:03.999Z</time></trkpt><trkpt lat="48.30541248926139" lon="-3.9741359587524747"><ele>122.0</ele><time>2026-04-19T14:53:05.999Z</time></trkpt><trkpt lat="48.305380505197014" lon="-3.9742859334444933"><ele>121.99999999999999</ele><time>2026-04-19T14:53:07.999Z</time></trkpt><trkpt lat="48.305368686757404" lon="-3.9743887962031295"><ele>122.0</ele><time>2026-04-19T14:53:08.999Z</time></trkpt><trkpt lat="48.30535487412303" lon="-3.974519111108645"><ele>119.8</ele><time>2026-04-19T14:53:09.999Z</time></trkpt><trkpt lat="48.3053674495812" lon="-3.974678745460052"><ele>117.6</ele><time>2026-04-19T14:53:11.999Z</time></trkpt><trkpt lat="48.305331886004915" lon="-3.974828548033415"><ele>115.39999999999999</ele><time>2026-04-19T14:53:14Z</time></trkpt><trkpt lat="48.30530613456695" lon="-3.974919167044272"><ele>113.19999999999999</ele><time>2026-04-19T14:53:15Z</time></trkpt><trkpt lat="48.30529586465741" lon="-3.9751558708422636"><ele>111.0</ele><time>2026-04-19T14:53:17Z</time></trkpt><trkpt lat="48.30528051450612" lon="-3.9752994077900174"><ele>109.0</ele><time>2026-04-19T14:53:18Z</time></trkpt><trkpt lat="48.305278567027244" lon="-3.9754282435461956"><ele>107.0</ele><time>2026-04-19T14:53:19Z</time></trkpt><trkpt lat="48.30526646708826" lon="-3.975549262733501"><ele>105.0</ele><time>2026-04-19T14:53:20Z</time></trkpt><trkpt lat="48.30524632550512" lon="-3.9757096591316223"><ele>103.0</ele><time>2026-04-19T14:53:22Z</time></trkpt><trkpt lat="48.30527065121627" lon="-3.975918948987776"><ele>101.0</ele><time>2026-04-19T14:53:24Z</time></trkpt><trkpt lat="48.305278273561925" lon="-3.976048595575569"><ele>99.99999999999999</ele><time>2026-04-19T14:53:25Z</time></trkpt><trkpt lat="48.30527432745597" lon="-3.976155121521639"><ele>99.0</ele><time>2026-04-19T14:53:26Z</time></trkpt><trkpt lat="48.30527977751069" lon="-3.976339620315231"><ele>98.0</ele><time>2026-04-19T14:53:28Z</time></trkpt><trkpt lat="48.305271535804984" lon="-3.976484022430918"><ele>97.0</ele><time>2026-04-19T14:53:30Z</time></trkpt><trkpt lat="48.30526192618341" lon="-3.976578883884281"><ele>96.0</ele><time>2026-04-19T14:53:31Z</time></trkpt><trkpt lat="48.30527815508107" lon="-3.9767196868171695"><ele>95.0</ele><time>2026-04-19T14:53:33Z</time></trkpt><trkpt lat="48.3053075299423" lon="-3.976827361763384"><ele>95.0</ele><time>2026-04-19T14:53:36Z</time></trkpt><trkpt lat="48.30528109534608" lon="-3.9769172987502843"><ele>95.0</ele><time>2026-04-19T14:53:40Z</time></trkpt><trkpt lat="48.30531095228229" lon="-3.9770549341941743"><ele>95.0</ele><time>2026-04-19T14:54:09Z</time></trkpt><trkpt lat="48.305360910544785" lon="-3.977132552497769"><ele>95.0</ele><time>2026-04-19T14:54:10Z</time></trkpt><trkpt lat="48.305421330611274" lon="-3.9771917671111776"><ele>95.0</ele><time>2026-04-19T14:54:11Z</time></trkpt><trkpt lat="48.305488131209444" lon="-3.9772498224036323"><ele>95.0</ele><time>2026-04-19T14:54:12Z</time></trkpt><trkpt lat="48.30558355914949" lon="-3.9772994303164775"><ele>95.8</ele><time>2026-04-19T14:54:14Z</time></trkpt><trkpt lat="48.30565336149471" lon="-3.977329383102838"><ele>96.6</ele><time>2026-04-19T14:54:16Z</time></trkpt><trkpt lat="48.305743441797674" lon="-3.977444792654154"><ele>97.4</ele><time>2026-04-19T14:54:18Z</time></trkpt><trkpt lat="48.30578859546691" lon="-3.9775410370157096"><ele>98.2</ele><time>2026-04-19T14:54:19Z</time></trkpt><trkpt lat="48.305806613426" lon="-3.9777279323318924"><ele>99.0</ele><time>2026-04-19T14:54:21Z</time></trkpt><trkpt lat="48.30587158634363" lon="-3.9778184252022895"><ele>99.33333333333333</ele><time>2026-04-19T14:54:23Z</time></trkpt><trkpt lat="48.30594969964974" lon="-3.9778533481537894"><ele>99.66666666666666</ele><time>2026-04-19T14:54:25Z</time></trkpt><trkpt lat="48.305981079923534" lon="-3.9779515364210924"><ele>100.0</ele><time>2026-04-19T14:54:26Z</time></trkpt><trkpt lat="48.30604483279145" lon="-3.978074909893871"><ele>100.33333333333333</ele><time>2026-04-19T14:54:27Z</time></trkpt><trkpt lat="48.30609398976197" lon="-3.978156768111837"><ele>100.66666666666666</ele><time>2026-04-19T14:54:28Z</time></trkpt><trkpt lat="48.30614863658502" lon="-3.978292736140395"><ele>101.0</ele><time>2026-04-19T14:54:30Z</time></trkpt><trkpt lat="48.30622338875035" lon="-3.9783625225842614"><ele>102.75</ele><time>2026-04-19T14:54:32Z</time></trkpt><trkpt lat="48.306238773370545" lon="-3.97849757664951"><ele>104.5</ele><time>2026-04-19T14:54:36Z</time></trkpt><trkpt lat="48.306209111292816" lon="-3.978764853971284"><ele>106.25</ele><time>2026-04-19T14:54:38Z</time></trkpt><trkpt lat="48.306133300130355" lon="-3.9789147912527714"><ele>108.0</ele><time>2026-04-19T14:54:39Z</time></trkpt><trkpt lat="48.30605478882465" lon="-3.97910164209861"><ele>109.25</ele><time>2026-04-19T14:54:40Z</time></trkpt><trkpt lat="48.30597006796144" lon="-3.979311574536919"><ele>110.5</ele><time>2026-04-19T14:54:41Z</time></trkpt><trkpt lat="48.30593453079964" lon="-3.9794796474718543"><ele>111.75</ele><time>2026-04-19T14:54:42Z</time></trkpt><trkpt lat="48.305908525636" lon="-3.9796363340051784"><ele>113.0</ele><time>2026-04-19T14:54:43Z</time></trkpt><trkpt lat="48.30590710188352" lon="-3.9797589026772453"><ele>113.0</ele><time>2026-04-19T14:54:44Z</time></trkpt><trkpt lat="48.30593412114868" lon="-3.9799945564719756"><ele>113.0</ele><time>2026-04-19T14:54:45Z</time></trkpt><trkpt lat="48.30596488554418" lon="-3.980177935918311"><ele>113.0</ele><time>2026-04-19T14:54:46Z</time></trkpt><trkpt lat="48.30598001488211" lon="-3.9804064267001458"><ele>113.0</ele><time>2026-04-19T14:54:46.999Z</time></trkpt><trkpt lat="48.305981164996744" lon="-3.980627048658865"><ele>113.25</ele><time>2026-04-19T14:54:47.999Z</time></trkpt><trkpt lat="48.30599258323286" lon="-3.9807923045351625"><ele>113.5</ele><time>2026-04-19T14:54:48.999Z</time></trkpt><trkpt lat="48.306030289719004" lon="-3.981064837632341"><ele>113.75</ele><time>2026-04-19T14:54:50.999Z</time></trkpt><trkpt lat="48.30601918047398" lon="-3.981233900753616"><ele>114.0</ele><time>2026-04-19T14:54:51.999Z</time></trkpt><trkpt lat="48.30598862443707" lon="-3.981404227801299"><ele>113.5</ele><time>2026-04-19T14:54:52.999Z</time></trkpt><trkpt lat="48.30597362621523" lon="-3.9815930353347126"><ele>113.0</ele><time>2026-04-19T14:54:53.999Z</time></trkpt><trkpt lat="48.30592112449883" lon="-3.981785142699978"><ele>112.5</ele><time>2026-04-19T14:54:54.999Z</time></trkpt><trkpt lat="48.30589512516375" lon="-3.9819606096675852"><ele>112.0</ele><time>2026-04-19T14:54:55.999Z</time></trkpt><trkpt lat="48.305861559537895" lon="-3.982120445899546"><ele>111.5</ele><time>2026-04-19T14:54:56.999Z</time></trkpt><trkpt lat="48.30582568823796" lon="-3.9822396688008177"><ele>111.0</ele><time>2026-04-19T14:54:57.999Z</time></trkpt><trkpt lat="48.305834917453" lon="-3.982359956186151"><ele>110.5</ele><time>2026-04-19T14:55:00.999Z</time></trkpt><trkpt lat="48.30594554935425" lon="-3.9824256341301063"><ele>110.0</ele><time>2026-04-19T14:55:02.999Z</time></trkpt><trkpt lat="48.306079867253764" lon="-3.982585624287521"><ele>110.0</ele><time>2026-04-19T14:55:04.999Z</time></trkpt><trkpt lat="48.30616495435641" lon="-3.9826702853893003"><ele>110.0</ele><time>2026-04-19T14:55:05.999Z</time></trkpt><trkpt lat="48.30624338304048" lon="-3.982753625976272"><ele>110.0</ele><time>2026-04-19T14:55:06.999Z</time></trkpt><trkpt lat="48.30633910618407" lon="-3.982830294451954"><ele>110.0</ele><time>2026-04-19T14:55:07.999Z</time></trkpt><trkpt lat="48.30643428075206" lon="-3.9829043078301023"><ele>110.0</ele><time>2026-04-19T14:55:08.999Z</time></trkpt><trkpt lat="48.306518942177455" lon="-3.982912986528512"><ele>111.4</ele><time>2026-04-19T14:55:09.999Z</time></trkpt><trkpt lat="48.30660768313418" lon="-3.982917698534172"><ele>112.8</ele><time>2026-04-19T14:55:10.999Z</time></trkpt><trkpt lat="48.306689933462714" lon="-3.983092089808072"><ele>114.19999999999999</ele><time>2026-04-19T14:55:12.999Z</time></trkpt><trkpt lat="48.30674026487552" lon="-3.9831999290654734"><ele>115.6</ele><time>2026-04-19T14:55:13.999Z</time></trkpt><trkpt lat="48.30678402609074" lon="-3.983325015996005"><ele>117.0</ele><time>2026-04-19T14:55:14.999Z</time></trkpt><trkpt lat="48.306825109670065" lon="-3.983418116975844"><ele>118.19999999999999</ele><time>2026-04-19T14:55:15.999Z</time></trkpt><trkpt lat="48.30687168948499" lon="-3.9834878306673422"><ele>119.39999999999999</ele><time>2026-04-19T14:55:16.999Z</time></trkpt><trkpt lat="48.30689229275995" lon="-3.983592028241456"><ele>120.60000000000001</ele><time>2026-04-19T14:55:17.999Z</time></trkpt><trkpt lat="48.30703170453689" lon="-3.9835698763730116"><ele>121.80000000000001</ele><time>2026-04-19T14:55:18.999Z</time></trkpt><trkpt lat="48.307121337861176" lon="-3.983607136262825"><ele>123.0</ele><time>2026-04-19T14:55:20Z</time></trkpt><trkpt lat="48.30720155500357" lon="-3.983661204883719"><ele>122.66666666666667</ele><time>2026-04-19T14:55:21Z</time></trkpt><trkpt lat="48.307290319723926" lon="-3.983679131206919"><ele>122.33333333333334</ele><time>2026-04-19T14:55:22Z</time></trkpt><trkpt lat="48.307372545541796" lon="-3.9837261415901253"><ele>122.0</ele><time>2026-04-19T14:55:23Z</time></trkpt><trkpt lat="48.3074551255529" lon="-3.9837306180752803"><ele>121.66666666666667</ele><time>2026-04-19T14:55:24Z</time></trkpt><trkpt lat="48.30753442980083" lon="-3.983755342758135"><ele>121.33333333333334</ele><time>2026-04-19T14:55:25Z</time></trkpt><trkpt lat="48.30761487199439" lon="-3.9838019802082374"><ele>121.0</ele><time>2026-04-19T14:55:26Z</time></trkpt><trkpt lat="48.307696438629684" lon="-3.9838265770107815"><ele>121.0</ele><time>2026-04-19T14:55:27Z</time></trkpt><trkpt lat="48.30778557107818" lon="-3.983854967929781"><ele>121.0</ele><time>2026-04-19T14:55:28Z</time></trkpt><trkpt lat="48.30787845488336" lon="-3.9838809135999798"><ele>121.0</ele><time>2026-04-19T14:55:29Z</time></trkpt><trkpt lat="48.307969991432365" lon="-3.9839095831189115"><ele>121.0</ele><time>2026-04-19T14:55:30Z</time></trkpt><trkpt lat="48.30806362233571" lon="-3.9839424118398097"><ele>121.0</ele><time>2026-04-19T14:55:31Z</time></trkpt><trkpt lat="48.30815265609566" lon="-3.983977143625739"><ele>122.8</ele><time>2026-04-19T14:55:32Z</time></trkpt><trkpt lat="48.30823061472293" lon="-3.984007758614355"><ele>124.6</ele><time>2026-04-19T14:55:33Z</time></trkpt><trkpt lat="48.30831111777826" lon="-3.9839980417365153"><ele>126.4</ele><time>2026-04-19T14:55:34Z</time></trkpt><trkpt lat="48.308395195598244" lon="-3.9840068373353956"><ele>128.2</ele><time>2026-04-19T14:55:35Z</time></trkpt><trkpt lat="48.30849493980437" lon="-3.984020689419266"><ele>130.0</ele><time>2026-04-19T14:55:36Z</time></trkpt><trkpt lat="48.30861156886851" lon="-3.9840553246941606"><ele>130.0</ele><time>2026-04-19T14:55:37Z</time></trkpt><trkpt lat="48.308715990665206" lon="-3.984053341033257"><ele>130.0</ele><time>2026-04-19T14:55:38Z</time></trkpt><trkpt lat="48.30881834525825" lon="-3.9840948401239116"><ele>130.0</ele><time>2026-04-19T14:55:39Z</time></trkpt><trkpt lat="48.30888491783683" lon="-3.9841109073584464"><ele>130.0</ele><time>2026-04-19T14:55:40Z</time></trkpt><trkpt lat="48.3089668146933" lon="-3.984147866091579"><ele>130.0</ele><time>2026-04-19T14:55:42Z</time></trkpt><trkpt lat="48.30905816437621" lon="-3.9842050942803127"><ele>133.0</ele><time>2026-04-19T14:55:43Z</time></trkpt><trkpt lat="48.30914202744351" lon="-3.9842576323020635"><ele>136.0</ele><time>2026-04-19T14:55:44Z</time></trkpt><trkpt lat="48.30910866999937" lon="-3.9843663092846495"><ele>139.0</ele><time>2026-04-19T14:55:45Z</time></trkpt><trkpt lat="48.309245597154046" lon="-3.984322516024347"><ele>142.0</ele><time>2026-04-19T14:55:46Z</time></trkpt><trkpt lat="48.309196449428015" lon="-3.984465480949352"><ele>145.0</ele><time>2026-04-19T14:55:47Z</time></trkpt><trkpt lat="48.3094329678537" lon="-3.9844118501969485"><ele>145.33333333333334</ele><time>2026-04-19T14:55:49Z</time></trkpt><trkpt lat="48.30969346417666" lon="-3.984118459237457"><ele>145.66666666666666</ele><time>2026-04-19T14:55:51Z</time></trkpt><trkpt lat="48.309794819094876" lon="-3.984110172214998"><ele>146.0</ele><time>2026-04-19T14:55:52Z</time></trkpt><trkpt lat="48.309900438606334" lon="-3.9841322623297275"><ele>147.6</ele><time>2026-04-19T14:55:53Z</time></trkpt><trkpt lat="48.30998520206672" lon="-3.984139362887317"><ele>149.2</ele><time>2026-04-19T14:55:54Z</time></trkpt><trkpt lat="48.31006973781106" lon="-3.984164032537336"><ele>150.8</ele><time>2026-04-19T14:55:55Z</time></trkpt><trkpt lat="48.31016888065706" lon="-3.9841809198420806"><ele>152.4</ele><time>2026-04-19T14:55:56Z</time></trkpt><trkpt lat="48.310270053694765" lon="-3.984211890573579"><ele>154.0</ele><time>2026-04-19T14:55:57Z</time></trkpt><trkpt lat="48.31039364988539" lon="-3.984256434623887"><ele>154.4</ele><time>2026-04-19T14:55:58Z</time></trkpt><trkpt lat="48.31049190884494" lon="-3.984266061689958"><ele>154.8</ele><time>2026-04-19T14:55:59Z</time></trkpt><trkpt lat="48.31058426457529" lon="-3.9843105210343293"><ele>155.2</ele><time>2026-04-19T14:56:00Z</time></trkpt><trkpt lat="48.31064140464841" lon="-3.984363848572845"><ele>155.6</ele><time>2026-04-19T14:56:01Z</time></trkpt><trkpt lat="48.310783271247885" lon="-3.984408547654525"><ele>156.0</ele><time>2026-04-19T14:56:03Z</time></trkpt><trkpt lat="48.31089798579414" lon="-3.9844113245173443"><ele>157.2</ele><time>2026-04-19T14:56:04Z</time></trkpt><trkpt lat="48.31101035837876" lon="-3.984437743484418"><ele>158.39999999999998</ele><time>2026-04-19T14:56:05Z</time></trkpt><trkpt lat="48.311084872567186" lon="-3.984451993192868"><ele>159.6</ele><time>2026-04-19T14:56:06Z</time></trkpt><trkpt lat="48.31116860718269" lon="-3.984407209479021"><ele>160.79999999999998</ele><time>2026-04-19T14:56:08Z</time></trkpt><trkpt lat="48.311234494042395" lon="-3.9843010450993575"><ele>162.0</ele><time>2026-04-19T14:56:09Z</time></trkpt><trkpt lat="48.31131372880795" lon="-3.9841802373980904"><ele>161.4</ele><time>2026-04-19T14:56:10Z</time></trkpt><trkpt lat="48.31138043695082" lon="-3.9840967812606936"><ele>160.79999999999998</ele><time>2026-04-19T14:56:11Z</time></trkpt><trkpt lat="48.31147816776577" lon="-3.984024015254743"><ele>160.2</ele><time>2026-04-19T14:56:12Z</time></trkpt><trkpt lat="48.31159408543587" lon="-3.983944789140413"><ele>159.6</ele><time>2026-04-19T14:56:13Z</time></trkpt><trkpt lat="48.31170201187596" lon="-3.983867769438585"><ele>159.0</ele><time>2026-04-19T14:56:14Z</time></trkpt><trkpt lat="48.31178570283985" lon="-3.983820948650454"><ele>159.0</ele><time>2026-04-19T14:56:15Z</time></trkpt><trkpt lat="48.31186505879364" lon="-3.9837980810235294"><ele>159.0</ele><time>2026-04-19T14:56:16Z</time></trkpt><trkpt lat="48.311938091589354" lon="-3.983799660447582"><ele>159.0</ele><time>2026-04-19T14:56:17Z</time></trkpt><trkpt lat="48.312029318301555" lon="-3.9838063022165695"><ele>159.0</ele><time>2026-04-19T14:56:18Z</time></trkpt><trkpt lat="48.31214373710202" lon="-3.983816795436948"><ele>159.0</ele><time>2026-04-19T14:56:19Z</time></trkpt><trkpt lat="48.31224354239842" lon="-3.983815477560516"><ele>158.8</ele><time>2026-04-19T14:56:20Z</time></trkpt><trkpt lat="48.31234407930125" lon="-3.9838106235883304"><ele>158.60000000000002</ele><time>2026-04-19T14:56:21Z</time></trkpt><trkpt lat="48.312449960110165" lon="-3.983820690453668"><ele>158.4</ele><time>2026-04-19T14:56:22Z</time></trkpt><trkpt lat="48.31255842556305" lon="-3.983851295478385"><ele>158.20000000000002</ele><time>2026-04-19T14:56:23Z</time></trkpt><trkpt lat="48.31267754966037" lon="-3.983877962437797"><ele>158.0</ele><time>2026-04-19T14:56:24Z</time></trkpt><trkpt lat="48.312780488851054" lon="-3.9839062448069296"><ele>158.0</ele><time>2026-04-19T14:56:25Z</time></trkpt><trkpt lat="48.31287965479816" lon="-3.9839277972332447"><ele>158.0</ele><time>2026-04-19T14:56:26Z</time></trkpt><trkpt lat="48.312957821350246" lon="-3.9839464353817498"><ele>158.0</ele><time>2026-04-19T14:56:27Z</time></trkpt><trkpt lat="48.31303754611692" lon="-3.9839485190205206"><ele>158.0</ele><time>2026-04-19T14:56:28Z</time></trkpt><trkpt lat="48.313120642199976" lon="-3.983945929651305"><ele>158.0</ele><time>2026-04-19T14:56:29Z</time></trkpt><trkpt lat="48.313184019566336" lon="-3.983934118839973"><ele>158.0</ele><time>2026-04-19T14:56:30Z</time></trkpt><trkpt lat="48.31325578920638" lon="-3.983888788026937"><ele>157.75</ele><time>2026-04-19T14:56:31Z</time></trkpt><trkpt lat="48.3133724210661" lon="-3.983865621274944"><ele>157.5</ele><time>2026-04-19T14:56:32Z</time></trkpt><trkpt lat="48.31349259441468" lon="-3.9838574275816816"><ele>157.25</ele><time>2026-04-19T14:56:33Z</time></trkpt><trkpt lat="48.3136099536484" lon="-3.9838478125515344"><ele>157.0</ele><time>2026-04-19T14:56:34Z</time></trkpt><trkpt lat="48.313735328039236" lon="-3.98384695077834"><ele>157.0</ele><time>2026-04-19T14:56:35Z</time></trkpt><trkpt lat="48.31385117182864" lon="-3.9838453634477964"><ele>157.0</ele><time>2026-04-19T14:56:36Z</time></trkpt><trkpt lat="48.313946052530795" lon="-3.983850091490717"><ele>157.0</ele><time>2026-04-19T14:56:37Z</time></trkpt><trkpt lat="48.31405143932424" lon="-3.9838781017476093"><ele>157.0</ele><time>2026-04-19T14:56:38Z</time></trkpt><trkpt lat="48.31416970842188" lon="-3.9838945423585836"><ele>157.0</ele><time>2026-04-19T14:56:39Z</time></trkpt><trkpt lat="48.3142442628963" lon="-3.9838863370376614"><ele>156.79999999999998</ele><time>2026-04-19T14:56:40Z</time></trkpt><trkpt lat="48.31429807140135" lon="-3.983772347527571"><ele>156.6</ele><time>2026-04-19T14:56:42Z</time></trkpt><trkpt lat="48.31433303439915" lon="-3.983658241408093"><ele>156.39999999999998</ele><time>2026-04-19T14:56:43Z</time></trkpt><trkpt lat="48.31437677569669" lon="-3.9835329120523575"><ele>156.2</ele><time>2026-04-19T14:56:44Z</time></trkpt><trkpt lat="48.31442871062089" lon="-3.983388035959004"><ele>156.0</ele><time>2026-04-19T14:56:45Z</time></trkpt><trkpt lat="48.31446609413308" lon="-3.983264891475309"><ele>155.5</ele><time>2026-04-19T14:56:46Z</time></trkpt><trkpt lat="48.314487396209806" lon="-3.983172297080465"><ele>155.0</ele><time>2026-04-19T14:56:47Z</time></trkpt><trkpt lat="48.31452795973337" lon="-3.983094856609738"><ele>154.5</ele><time>2026-04-19T14:56:49Z</time></trkpt><trkpt lat="48.314588326669096" lon="-3.9831392776251295"><ele>154.0</ele><time>2026-04-19T14:57:41Z</time></trkpt><trkpt lat="48.31468625888454" lon="-3.9832965819972785"><ele>153.5</ele><time>2026-04-19T14:57:43Z</time></trkpt><trkpt lat="48.31475099709659" lon="-3.9834259991121117"><ele>153.0</ele><time>2026-04-19T14:57:44Z</time></trkpt><trkpt lat="48.31483495676915" lon="-3.983576523401433"><ele>153.0</ele><time>2026-04-19T14:57:45Z</time></trkpt><trkpt lat="48.31492897219145" lon="-3.9837345202630297"><ele>153.0</ele><time>2026-04-19T14:57:46Z</time></trkpt><trkpt lat="48.315029416500856" lon="-3.983923068289289"><ele>153.0</ele><time>2026-04-19T14:57:47Z</time></trkpt><trkpt lat="48.31513251302489" lon="-3.9841014788533715"><ele>154.66666666666666</ele><time>2026-04-19T14:57:48Z</time></trkpt><trkpt lat="48.315261145180166" lon="-3.9842562073988206"><ele>156.33333333333331</ele><time>2026-04-19T14:57:49Z</time></trkpt><trkpt lat="48.31538078422076" lon="-3.9844121159470527"><ele>158.0</ele><time>2026-04-19T14:57:50Z</time></trkpt><trkpt lat="48.31551007932208" lon="-3.984578953682931"><ele>156.66666666666666</ele><time>2026-04-19T14:57:51Z</time></trkpt><trkpt lat="48.31562679796114" lon="-3.984756322249354"><ele>155.33333333333334</ele><time>2026-04-19T14:57:52Z</time></trkpt><trkpt lat="48.31574916649558" lon="-3.984931018070882"><ele>154.0</ele><time>2026-04-19T14:57:53Z</time></trkpt><trkpt lat="48.31586402459116" lon="-3.985107743496231"><ele>154.0</ele><time>2026-04-19T14:57:54Z</time></trkpt><trkpt lat="48.31599542987546" lon="-3.9852667679440437"><ele>154.0</ele><time>2026-04-19T14:57:55Z</time></trkpt><trkpt lat="48.31610387089892" lon="-3.9854595082965423"><ele>154.0</ele><time>2026-04-19T14:57:56Z</time></trkpt><trkpt lat="48.31622138951459" lon="-3.9856327258243778"><ele>154.0</ele><time>2026-04-19T14:57:57Z</time></trkpt><trkpt lat="48.31634313951087" lon="-3.98577621506667"><ele>154.0</ele><time>2026-04-19T14:57:58Z</time></trkpt><trkpt lat="48.316454785301644" lon="-3.9859367998414044"><ele>154.0</ele><time>2026-04-19T14:57:59Z</time></trkpt><trkpt lat="48.316569843071946" lon="-3.98609996701154"><ele>153.33333333333334</ele><time>2026-04-19T14:58:00Z</time></trkpt><trkpt lat="48.316681084649815" lon="-3.9862754925489043"><ele>152.66666666666666</ele><time>2026-04-19T14:58:01Z</time></trkpt><trkpt lat="48.316804169369185" lon="-3.9864056325929758"><ele>152.0</ele><time>2026-04-19T14:58:02Z</time></trkpt><trkpt lat="48.316929445406" lon="-3.9865309513677474"><ele>152.0</ele><time>2026-04-19T14:58:03Z</time></trkpt><trkpt lat="48.31706785875101" lon="-3.9866600963692664"><ele>152.0</ele><time>2026-04-19T14:58:04Z</time></trkpt><trkpt lat="48.31721036905604" lon="-3.986777228572455"><ele>152.0</ele><time>2026-04-19T14:58:05Z</time></trkpt><trkpt lat="48.31734961135753" lon="-3.986873369629592"><ele>151.66666666666666</ele><time>2026-04-19T14:58:06Z</time></trkpt><trkpt lat="48.317487214283055" lon="-3.986967164430496"><ele>151.33333333333334</ele><time>2026-04-19T14:58:07Z</time></trkpt><trkpt lat="48.31762726678827" lon="-3.9870685004627227"><ele>151.0</ele><time>2026-04-19T14:58:08Z</time></trkpt><trkpt lat="48.31776379759095" lon="-3.987163894250105"><ele>151.0</ele><time>2026-04-19T14:58:09Z</time></trkpt><trkpt lat="48.31789973122088" lon="-3.9872551272151795"><ele>151.0</ele><time>2026-04-19T14:58:10Z</time></trkpt><trkpt lat="48.31799354235259" lon="-3.9873247022931273"><ele>151.0</ele><time>2026-04-19T14:58:11Z</time></trkpt><trkpt lat="48.318055298308174" lon="-3.987358911523587"><ele>151.0</ele><time>2026-04-19T14:58:12Z</time></trkpt><trkpt lat="48.31799974124948" lon="-3.9875193962295126"><ele>151.0</ele><time>2026-04-19T14:58:16Z</time></trkpt><trkpt lat="48.31792841098126" lon="-3.9876892254242615"><ele>150.6</ele><time>2026-04-19T14:58:18Z</time></trkpt><trkpt lat="48.3178806086282" lon="-3.987775333236601"><ele>150.2</ele><time>2026-04-19T14:58:19Z</time></trkpt><trkpt lat="48.31784972119141" lon="-3.9878623998006932"><ele>149.8</ele><time>2026-04-19T14:58:20Z</time></trkpt><trkpt lat="48.317826768423686" lon="-3.9879655350100207"><ele>149.4</ele><time>2026-04-19T14:58:23Z</time></trkpt><trkpt lat="48.31763346330949" lon="-3.9877938090055127"><ele>149.0</ele><time>2026-04-19T14:58:26Z</time></trkpt><trkpt lat="48.317534912005264" lon="-3.9877173638220764"><ele>149.0</ele><time>2026-04-19T14:58:28Z</time></trkpt><trkpt lat="48.31745906314797" lon="-3.9877787787559527"><ele>149.0</ele><time>2026-04-19T14:58:31Z</time></trkpt><trkpt lat="48.31733458741425" lon="-3.987875146583022"><ele>149.0</ele><time>2026-04-19T14:58:33Z</time></trkpt><trkpt lat="48.317278942339264" lon="-3.987990097932971"><ele>149.0</ele><time>2026-04-19T14:58:34Z</time></trkpt><trkpt lat="48.317225920140665" lon="-3.988126678754825"><ele>149.0</ele><time>2026-04-19T14:58:35Z</time></trkpt><trkpt lat="48.31718593098244" lon="-3.9883044270860357"><ele>148.2</ele><time>2026-04-19T14:58:36Z</time></trkpt><trkpt lat="48.317184438773054" lon="-3.9884123303542336"><ele>147.4</ele><time>2026-04-19T14:58:37Z</time></trkpt><trkpt lat="48.31716119558499" lon="-3.9885010059675894"><ele>146.6</ele><time>2026-04-19T14:58:38Z</time></trkpt><trkpt lat="48.31710666436619" lon="-3.9886601166120035"><ele>145.8</ele><time>2026-04-19T14:58:39Z</time></trkpt><trkpt lat="48.31701422772493" lon="-3.988825956233738"><ele>145.0</ele><time>2026-04-19T14:58:40Z</time></trkpt><trkpt lat="48.316928794381354" lon="-3.988967532768371"><ele>145.0</ele><time>2026-04-19T14:58:41Z</time></trkpt><trkpt lat="48.31685388953894" lon="-3.989071076081283"><ele>145.0</ele><time>2026-04-19T14:58:42Z</time></trkpt><trkpt lat="48.31680742029169" lon="-3.9891550096615798"><ele>145.0</ele><time>2026-04-19T14:58:43Z</time></trkpt><trkpt lat="48.31669150291383" lon="-3.9892524879338573"><ele>145.0</ele><time>2026-04-19T14:58:45Z</time></trkpt><trkpt lat="48.316595255828105" lon="-3.9893344457214694"><ele>145.0</ele><time>2026-04-19T14:58:46Z</time></trkpt><trkpt lat="48.31649354230971" lon="-3.989416814387021"><ele>144.5</ele><time>2026-04-19T14:58:47Z</time></trkpt><trkpt lat="48.31637399515189" lon="-3.989537521292301"><ele>144.0</ele><time>2026-04-19T14:58:48Z</time></trkpt><trkpt lat="48.31629135573595" lon="-3.9896544396387137"><ele>143.5</ele><time>2026-04-19T14:58:49Z</time></trkpt><trkpt lat="48.31621674538159" lon="-3.9897479564019487"><ele>143.0</ele><time>2026-04-19T14:58:50Z</time></trkpt><trkpt lat="48.31613908221318" lon="-3.9898499488978283"><ele>143.0</ele><time>2026-04-19T14:58:51Z</time></trkpt><trkpt lat="48.31607823864136" lon="-3.9899401771526644"><ele>143.0</ele><time>2026-04-19T14:58:52Z</time></trkpt><trkpt lat="48.31600926689769" lon="-3.990042247058704"><ele>143.0</ele><time>2026-04-19T14:58:53Z</time></trkpt><trkpt lat="48.315961393345894" lon="-3.990149759047582"><ele>143.0</ele><time>2026-04-19T14:58:55Z</time></trkpt><trkpt lat="48.31594390351398" lon="-3.9902516334179703"><ele>143.0</ele><time>2026-04-19T14:58:58Z</time></trkpt><trkpt lat="48.31594438334605" lon="-3.9903577214330617"><ele>143.0</ele><time>2026-04-19T14:59:00Z</time></trkpt><trkpt lat="48.315883102272224" lon="-3.9904028907012457"><ele>142.20000000000002</ele><time>2026-04-19T14:59:02Z</time></trkpt><trkpt lat="48.315795529446106" lon="-3.9904482865093103"><ele>141.4</ele><time>2026-04-19T14:59:03Z</time></trkpt><trkpt lat="48.31572543011222" lon="-3.9904989702108256"><ele>140.60000000000002</ele><time>2026-04-19T14:59:04Z</time></trkpt><trkpt lat="48.31567529605028" lon="-3.9906867077283312"><ele>139.8</ele><time>2026-04-19T14:59:06Z</time></trkpt><trkpt lat="48.31565642482732" lon="-3.9908407885451793"><ele>139.0</ele><time>2026-04-19T14:59:07Z</time></trkpt><trkpt lat="48.31563792352446" lon="-3.99099790427633"><ele>139.0</ele><time>2026-04-19T14:59:08Z</time></trkpt><trkpt lat="48.315625408414896" lon="-3.9910995048939077"><ele>139.0</ele><time>2026-04-19T14:59:10Z</time></trkpt><trkpt lat="48.31561531473249" lon="-3.991207940381772"><ele>139.0</ele><time>2026-04-19T14:59:23.999Z</time></trkpt><trkpt lat="48.3156149381082" lon="-3.9913253024062665"><ele>139.0</ele><time>2026-04-19T14:59:25.999Z</time></trkpt><trkpt lat="48.31561871403002" lon="-3.99146070216481"><ele>139.0</ele><time>2026-04-19T14:59:27.999Z</time></trkpt><trkpt lat="48.31565065171161" lon="-3.9915449393536075"><ele>139.0</ele><time>2026-04-19T14:59:30.999Z</time></trkpt><trkpt lat="48.31572533237664" lon="-3.9915039144213185"><ele>139.0</ele><time>2026-04-19T15:00:07Z</time></trkpt><trkpt lat="48.31580487403775" lon="-3.9914735093433764"><ele>139.0</ele><time>2026-04-19T15:00:11Z</time></trkpt><trkpt lat="48.3158754188171" lon="-3.99143718261796"><ele>139.0</ele><time>2026-04-19T15:00:14Z</time></trkpt><trkpt lat="48.31595873861344" lon="-3.99153256592264"><ele>139.0</ele><time>2026-04-19T15:00:17Z</time></trkpt><trkpt lat="48.31600019182809" lon="-3.9916249553851975"><ele>139.0</ele><time>2026-04-19T15:00:19Z</time></trkpt><trkpt lat="48.31605070488029" lon="-3.9917495761477872"><ele>139.0</ele><time>2026-04-19T15:00:21Z</time></trkpt><trkpt lat="48.31614655455642" lon="-3.991867019068812"><ele>138.5</ele><time>2026-04-19T15:00:23Z</time></trkpt><trkpt lat="48.31621527532173" lon="-3.9919668011400566"><ele>138.0</ele><time>2026-04-19T15:00:25Z</time></trkpt><trkpt lat="48.31626458658524" lon="-3.99203268251931"><ele>137.5</ele><time>2026-04-19T15:00:26Z</time></trkpt><trkpt lat="48.31631323566205" lon="-3.992098908867169"><ele>137.0</ele><time>2026-04-19T15:00:28Z</time></trkpt><trkpt lat="48.316327841016054" lon="-3.9922004615433524"><ele>136.5</ele><time>2026-04-19T15:00:35Z</time></trkpt><trkpt lat="48.3162808948943" lon="-3.9922728067085145"><ele>136.0</ele><time>2026-04-19T15:00:56Z</time></trkpt><trkpt lat="48.316204546751074" lon="-3.992374488425193"><ele>134.6</ele><time>2026-04-19T15:01:04Z</time></trkpt><trkpt lat="48.31620746380846" lon="-3.992540324198609"><ele>133.2</ele><time>2026-04-19T15:01:06Z</time></trkpt><trkpt lat="48.31625426072491" lon="-3.99261668393315"><ele>131.8</ele><time>2026-04-19T15:01:09Z</time></trkpt><trkpt lat="48.316274440493984" lon="-3.992741105496964"><ele>130.4</ele><time>2026-04-19T15:01:10.999Z</time></trkpt><trkpt lat="48.31624956275522" lon="-3.9928647063990717"><ele>129.0</ele><time>2026-04-19T15:01:11.999Z</time></trkpt><trkpt lat="48.31623717606676" lon="-3.9930160244526327"><ele>129.0</ele><time>2026-04-19T15:01:12.999Z</time></trkpt><trkpt lat="48.31624277847399" lon="-3.9931428032237095"><ele>129.0</ele><time>2026-04-19T15:01:13.999Z</time></trkpt><trkpt lat="48.31627354560988" lon="-3.9932580998533203"><ele>129.0</ele><time>2026-04-19T15:01:14.999Z</time></trkpt><trkpt lat="48.31629577186937" lon="-3.993352591000896"><ele>129.0</ele><time>2026-04-19T15:01:15.999Z</time></trkpt><trkpt lat="48.31629933023366" lon="-3.993473436878695"><ele>129.0</ele><time>2026-04-19T15:01:16.999Z</time></trkpt><trkpt lat="48.31626885813334" lon="-3.9935771557510344"><ele>129.0</ele><time>2026-04-19T15:01:17.999Z</time></trkpt><trkpt lat="48.31621710687289" lon="-3.9937433794458226"><ele>128.6</ele><time>2026-04-19T15:01:18.999Z</time></trkpt><trkpt lat="48.316193159265936" lon="-3.993886341248292"><ele>128.2</ele><time>2026-04-19T15:01:19.999Z</time></trkpt><trkpt lat="48.316181596602796" lon="-3.9940392249788093"><ele>127.79999999999998</ele><time>2026-04-19T15:01:20.999Z</time></trkpt><trkpt lat="48.31614230514864" lon="-3.994179849071211"><ele>127.39999999999999</ele><time>2026-04-19T15:01:22.999Z</time></trkpt><trkpt lat="48.316103764047575" lon="-3.994334901638365"><ele>127.0</ele><time>2026-04-19T15:01:23.999Z</time></trkpt><trkpt lat="48.31608595197989" lon="-3.994535054453722"><ele>125.6</ele><time>2026-04-19T15:01:24.999Z</time></trkpt><trkpt lat="48.31608649771164" lon="-3.994701682371289"><ele>124.19999999999999</ele><time>2026-04-19T15:01:25.999Z</time></trkpt><trkpt lat="48.31607722774481" lon="-3.9948199210112048"><ele>122.8</ele><time>2026-04-19T15:01:26.999Z</time></trkpt><trkpt lat="48.31602364859203" lon="-3.9949613644446202"><ele>121.4</ele><time>2026-04-19T15:01:28.999Z</time></trkpt><trkpt lat="48.31596973075958" lon="-3.9950518725863042"><ele>120.0</ele><time>2026-04-19T15:01:30.999Z</time></trkpt><trkpt lat="48.31589758292359" lon="-3.995105417447788"><ele>119.5</ele><time>2026-04-19T15:01:39Z</time></trkpt><trkpt lat="48.31584887918216" lon="-3.9951928642833634"><ele>119.0</ele><time>2026-04-19T15:01:43Z</time></trkpt><trkpt lat="48.315807519065714" lon="-3.995319642228834"><ele>118.5</ele><time>2026-04-19T15:01:51Z</time></trkpt><trkpt lat="48.31579535177293" lon="-3.995416030583345"><ele>118.0</ele><time>2026-04-19T15:01:53Z</time></trkpt><trkpt lat="48.31577562132714" lon="-3.9955431652585065"><ele>117.5</ele><time>2026-04-19T15:01:57Z</time></trkpt><trkpt lat="48.31573555748897" lon="-3.9956570869126273"><ele>117.0</ele><time>2026-04-19T15:01:59Z</time></trkpt><trkpt lat="48.31569161211709" lon="-3.9957670100686173"><ele>117.5</ele><time>2026-04-19T15:02:01Z</time></trkpt><trkpt lat="48.31564856000832" lon="-3.9958466393898577"><ele>118.0</ele><time>2026-04-19T15:02:03Z</time></trkpt><trkpt lat="48.315614052219246" lon="-3.9959298736728583"><ele>118.5</ele><time>2026-04-19T15:02:05Z</time></trkpt><trkpt lat="48.31554001923121" lon="-3.9959974762605097"><ele>119.0</ele><time>2026-04-19T15:02:08Z</time></trkpt><trkpt lat="48.315484993942206" lon="-3.9960891529938447"><ele>119.5</ele><time>2026-04-19T15:02:10Z</time></trkpt><trkpt lat="48.31549135016212" lon="-3.9962105169992586"><ele>120.0</ele><time>2026-04-19T15:02:12Z</time></trkpt><trkpt lat="48.315456910902" lon="-3.996338835762441"><ele>119.5</ele><time>2026-04-19T15:02:14Z</time></trkpt><trkpt lat="48.315362287925396" lon="-3.9964627592915525"><ele>119.0</ele><time>2026-04-19T15:02:16Z</time></trkpt><trkpt lat="48.31530666700219" lon="-3.99652633663173"><ele>118.5</ele><time>2026-04-19T15:02:17Z</time></trkpt><trkpt lat="48.31523017889811" lon="-3.9965933054988594"><ele>118.0</ele><time>2026-04-19T15:02:19Z</time></trkpt><trkpt lat="48.315172809977376" lon="-3.9966757750002633"><ele>117.5</ele><time>2026-04-19T15:02:21Z</time></trkpt><trkpt lat="48.31511894429888" lon="-3.996740736978625"><ele>117.0</ele><time>2026-04-19T15:02:22Z</time></trkpt><trkpt lat="48.3150558869684" lon="-3.9968024761698877"><ele>117.0</ele><time>2026-04-19T15:02:23Z</time></trkpt><trkpt lat="48.31499715494234" lon="-3.9968510490865157"><ele>117.0</ele><time>2026-04-19T15:02:24Z</time></trkpt><trkpt lat="48.314931928203364" lon="-3.996904828911914"><ele>117.0</ele><time>2026-04-19T15:02:25Z</time></trkpt><trkpt lat="48.314854597819014" lon="-3.9969817600085196"><ele>117.0</ele><time>2026-04-19T15:02:26Z</time></trkpt><trkpt lat="48.314766475029415" lon="-3.997054472883697"><ele>117.0</ele><time>2026-04-19T15:02:27Z</time></trkpt><trkpt lat="48.31468307705675" lon="-3.997113430906395"><ele>117.0</ele><time>2026-04-19T15:02:28Z</time></trkpt><trkpt lat="48.31461554888461" lon="-3.9971627946846593"><ele>114.33333333333333</ele><time>2026-04-19T15:02:29Z</time></trkpt><trkpt lat="48.31454214266874" lon="-3.9971942320060454"><ele>111.66666666666666</ele><time>2026-04-19T15:02:31Z</time></trkpt><trkpt lat="48.31451457327586" lon="-3.9972936143716153"><ele>109.0</ele><time>2026-04-19T15:02:32Z</time></trkpt><trkpt lat="48.3144675581973" lon="-3.9973644654579394"><ele>106.33333333333333</ele><time>2026-04-19T15:02:33Z</time></trkpt><trkpt lat="48.31438138216502" lon="-3.9974304394692246"><ele>103.66666666666666</ele><time>2026-04-19T15:02:34Z</time></trkpt><trkpt lat="48.31430599692877" lon="-3.9975192340566705"><ele>101.0</ele><time>2026-04-19T15:02:35Z</time></trkpt><trkpt lat="48.31422881423956" lon="-3.997600376595399"><ele>101.0</ele><time>2026-04-19T15:02:36Z</time></trkpt><trkpt lat="48.31416210454871" lon="-3.9976577218196954"><ele>101.0</ele><time>2026-04-19T15:02:37Z</time></trkpt><trkpt lat="48.3140637235641" lon="-3.9977137950870656"><ele>101.0</ele><time>2026-04-19T15:02:39Z</time></trkpt><trkpt lat="48.31396745160206" lon="-3.9978026925137824"><ele>101.0</ele><time>2026-04-19T15:02:41Z</time></trkpt><trkpt lat="48.31384635409693" lon="-3.997780381569638"><ele>101.0</ele><time>2026-04-19T15:02:43Z</time></trkpt><trkpt lat="48.31375763437904" lon="-3.9978238459322437"><ele>98.5</ele><time>2026-04-19T15:02:45Z</time></trkpt><trkpt lat="48.31366673785156" lon="-3.997935806318011"><ele>96.0</ele><time>2026-04-19T15:02:47Z</time></trkpt><trkpt lat="48.31360713261836" lon="-3.9980802135412006"><ele>93.5</ele><time>2026-04-19T15:02:49Z</time></trkpt><trkpt lat="48.31352902535015" lon="-3.9982435100327844"><ele>91.0</ele><time>2026-04-19T15:02:51Z</time></trkpt><trkpt lat="48.31352612084741" lon="-3.998413126203105"><ele>90.0</ele><time>2026-04-19T15:02:53Z</time></trkpt><trkpt lat="48.31348941324365" lon="-3.9985538872825166"><ele>89.0</ele><time>2026-04-19T15:02:55Z</time></trkpt><trkpt lat="48.313439078568955" lon="-3.99867245838142"><ele>88.0</ele><time>2026-04-19T15:02:57Z</time></trkpt><trkpt lat="48.31341587596693" lon="-3.998808675207288"><ele>87.0</ele><time>2026-04-19T15:02:59Z</time></trkpt><trkpt lat="48.31343486954244" lon="-3.9989287079432696"><ele>86.0</ele><time>2026-04-19T15:03:01Z</time></trkpt><trkpt lat="48.31344619567703" lon="-3.999029760540264"><ele>85.0</ele><time>2026-04-19T15:03:03Z</time></trkpt><trkpt lat="48.31336733310638" lon="-3.9991107519389626"><ele>85.0</ele><time>2026-04-19T15:03:19.999Z</time></trkpt><trkpt lat="48.3132587162536" lon="-3.9991089181519888"><ele>85.0</ele><time>2026-04-19T15:03:21.999Z</time></trkpt><trkpt lat="48.313202313229475" lon="-3.9990617898461713"><ele>85.0</ele><time>2026-04-19T15:03:22.999Z</time></trkpt><trkpt lat="48.313133876035664" lon="-3.9989935625757633"><ele>85.0</ele><time>2026-04-19T15:03:23.999Z</time></trkpt><trkpt lat="48.313039243010536" lon="-3.998911368986117"><ele>85.0</ele><time>2026-04-19T15:03:25.999Z</time></trkpt><trkpt lat="48.3129732494216" lon="-3.998911790099336"><ele>85.0</ele><time>2026-04-19T15:03:26.999Z</time></trkpt><trkpt lat="48.31288792847082" lon="-3.998922817710755"><ele>85.6</ele><time>2026-04-19T15:03:27.999Z</time></trkpt><trkpt lat="48.31280644369012" lon="-3.998953807778145"><ele>86.2</ele><time>2026-04-19T15:03:28.999Z</time></trkpt><trkpt lat="48.31273050431491" lon="-3.9989841783230937"><ele>86.80000000000001</ele><time>2026-04-19T15:03:29.999Z</time></trkpt><trkpt lat="48.3126332767679" lon="-3.9990300272721866"><ele>87.4</ele><time>2026-04-19T15:03:30.999Z</time></trkpt><trkpt lat="48.31252018677649" lon="-3.999057193584365"><ele>88.0</ele><time>2026-04-19T15:03:31.999Z</time></trkpt><trkpt lat="48.3124125928953" lon="-3.999095641509194"><ele>88.0</ele><time>2026-04-19T15:03:32.999Z</time></trkpt><trkpt lat="48.31229697910719" lon="-3.9991477135874516"><ele>88.0</ele><time>2026-04-19T15:03:33.999Z</time></trkpt><trkpt lat="48.31217258774691" lon="-3.9992172937313337"><ele>88.0</ele><time>2026-04-19T15:03:34.999Z</time></trkpt><trkpt lat="48.31204178515895" lon="-3.999263215516645"><ele>88.0</ele><time>2026-04-19T15:03:35.999Z</time></trkpt><trkpt lat="48.31193799591078" lon="-3.999283240834725"><ele>85.75</ele><time>2026-04-19T15:03:36.999Z</time></trkpt><trkpt lat="48.31184832377648" lon="-3.999320444704769"><ele>83.5</ele><time>2026-04-19T15:03:37.999Z</time></trkpt><trkpt lat="48.31173502152886" lon="-3.9994066223854197"><ele>81.25</ele><time>2026-04-19T15:03:38.999Z</time></trkpt><trkpt lat="48.311632844168955" lon="-3.9995201509918332"><ele>79.0</ele><time>2026-04-19T15:03:39.999Z</time></trkpt><trkpt lat="48.3115331256493" lon="-3.9995872371799366"><ele>79.0</ele><time>2026-04-19T15:03:40.999Z</time></trkpt><trkpt lat="48.31142975227046" lon="-3.9996223830796636"><ele>79.0</ele><time>2026-04-19T15:03:41.999Z</time></trkpt><trkpt lat="48.311348044151565" lon="-3.9996337773397284"><ele>79.0</ele><time>2026-04-19T15:03:42.999Z</time></trkpt><trkpt lat="48.31124396905494" lon="-3.9996194463227384"><ele>79.0</ele><time>2026-04-19T15:03:44Z</time></trkpt><trkpt lat="48.31115248846863" lon="-3.999615944185065"><ele>79.0</ele><time>2026-04-19T15:03:45Z</time></trkpt><trkpt lat="48.31107234242529" lon="-3.999606393422571"><ele>79.0</ele><time>2026-04-19T15:03:46Z</time></trkpt><trkpt lat="48.3109935131358" lon="-3.999555040921516"><ele>79.0</ele><time>2026-04-19T15:03:49Z</time></trkpt><trkpt lat="48.31087016508741" lon="-3.9995701419038787"><ele>79.0</ele><time>2026-04-19T15:03:51Z</time></trkpt><trkpt lat="48.31073815518412" lon="-3.999599409134465"><ele>79.0</ele><time>2026-04-19T15:03:53Z</time></trkpt><trkpt lat="48.310674041275604" lon="-3.999618543785707"><ele>79.0</ele><time>2026-04-19T15:03:54Z</time></trkpt><trkpt lat="48.31074734767993" lon="-3.999626656105403"><ele>79.0</ele><time>2026-04-19T15:04:21Z</time></trkpt><trkpt lat="48.310843318560444" lon="-3.99960225467947"><ele>79.0</ele><time>2026-04-19T15:04:22Z</time></trkpt><trkpt lat="48.31094346253936" lon="-3.9995850672982045"><ele>79.0</ele><time>2026-04-19T15:04:23Z</time></trkpt><trkpt lat="48.31103726336205" lon="-3.9995845812777437"><ele>79.0</ele><time>2026-04-19T15:04:24Z</time></trkpt><trkpt lat="48.311133978349964" lon="-3.9996142033766855"><ele>79.0</ele><time>2026-04-19T15:04:25Z</time></trkpt><trkpt lat="48.311254679941065" lon="-3.999637082200068"><ele>79.0</ele><time>2026-04-19T15:04:26Z</time></trkpt><trkpt lat="48.31138056538113" lon="-3.9996342444993953"><ele>79.0</ele><time>2026-04-19T15:04:27Z</time></trkpt><trkpt lat="48.31147774164834" lon="-3.9996035515694346"><ele>79.0</ele><time>2026-04-19T15:04:28Z</time></trkpt><trkpt lat="48.31157650226256" lon="-3.999559298109174"><ele>79.0</ele><time>2026-04-19T15:04:29Z</time></trkpt><trkpt lat="48.31167669909966" lon="-3.9994905424118774"><ele>79.0</ele><time>2026-04-19T15:04:30Z</time></trkpt><trkpt lat="48.3117917223079" lon="-3.9994124355178053"><ele>79.0</ele><time>2026-04-19T15:04:31Z</time></trkpt><trkpt lat="48.31190031187799" lon="-3.999293507364927"><ele>79.0</ele><time>2026-04-19T15:04:32Z</time></trkpt><trkpt lat="48.31200900084741" lon="-3.9992234187921207"><ele>79.0</ele><time>2026-04-19T15:04:33Z</time></trkpt><trkpt lat="48.31215166662051" lon="-3.9992307981363346"><ele>79.0</ele><time>2026-04-19T15:04:34Z</time></trkpt><trkpt lat="48.31228145121789" lon="-3.9991965638638987"><ele>81.25</ele><time>2026-04-19T15:04:35Z</time></trkpt><trkpt lat="48.31240968748249" lon="-3.9991437855934278"><ele>83.5</ele><time>2026-04-19T15:04:36Z</time></trkpt><trkpt lat="48.31251896414369" lon="-3.999111078225094"><ele>85.75</ele><time>2026-04-19T15:04:37Z</time></trkpt><trkpt lat="48.31262497840849" lon="-3.9990572111877327"><ele>88.0</ele><time>2026-04-19T15:04:38Z</time></trkpt><trkpt lat="48.31271570905044" lon="-3.9990187946349094"><ele>88.0</ele><time>2026-04-19T15:04:39Z</time></trkpt><trkpt lat="48.31281882542702" lon="-3.9989713958300848"><ele>88.0</ele><time>2026-04-19T15:04:40Z</time></trkpt><trkpt lat="48.31291742183911" lon="-3.9989499924974856"><ele>88.0</ele><time>2026-04-19T15:04:41Z</time></trkpt><trkpt lat="48.31302606827137" lon="-3.9989397804403124"><ele>88.0</ele><time>2026-04-19T15:04:42Z</time></trkpt><trkpt lat="48.31313331458859" lon="-3.9989600454778746"><ele>88.0</ele><time>2026-04-19T15:04:43Z</time></trkpt><trkpt lat="48.313197359212815" lon="-3.998971617415301"><ele>87.4</ele><time>2026-04-19T15:04:44Z</time></trkpt><trkpt lat="48.313288502347575" lon="-3.99912392960297"><ele>86.80000000000001</ele><time>2026-04-19T15:04:46Z</time></trkpt><trkpt lat="48.313354001026006" lon="-3.9991584623506267"><ele>86.2</ele><time>2026-04-19T15:04:47Z</time></trkpt><trkpt lat="48.3134161453082" lon="-3.9991303530499964"><ele>85.6</ele><time>2026-04-19T15:04:48Z</time></trkpt><trkpt lat="48.31349026481217" lon="-3.9990036802996225"><ele>85.0</ele><time>2026-04-19T15:04:50Z</time></trkpt><trkpt lat="48.3135290634866" lon="-3.998881842997452"><ele>85.0</ele><time>2026-04-19T15:04:52Z</time></trkpt><trkpt lat="48.31362835984172" lon="-3.9989323852431005"><ele>85.0</ele><time>2026-04-19T15:04:55Z</time></trkpt><trkpt lat="48.313678689561776" lon="-3.9990885566166177"><ele>85.0</ele><time>2026-04-19T15:04:57Z</time></trkpt><trkpt lat="48.313690243587885" lon="-3.999230621467952"><ele>85.0</ele><time>2026-04-19T15:04:58Z</time></trkpt><trkpt lat="48.31373151794821" lon="-3.999335133825936"><ele>85.0</ele><time>2026-04-19T15:04:59Z</time></trkpt><trkpt lat="48.31381031324005" lon="-3.9994145057405563"><ele>85.25</ele><time>2026-04-19T15:05:00Z</time></trkpt><trkpt lat="48.31389745701747" lon="-3.9995285544414068"><ele>85.5</ele><time>2026-04-19T15:05:01Z</time></trkpt><trkpt lat="48.313997373677665" lon="-3.999581324288473"><ele>85.75</ele><time>2026-04-19T15:05:02Z</time></trkpt><trkpt lat="48.314140817681114" lon="-3.999632242202551"><ele>86.0</ele><time>2026-04-19T15:05:03Z</time></trkpt><trkpt lat="48.314303119521774" lon="-3.9996889556778874"><ele>86.0</ele><time>2026-04-19T15:05:04Z</time></trkpt><trkpt lat="48.31442444267245" lon="-3.999771350595054"><ele>86.0</ele><time>2026-04-19T15:05:05Z</time></trkpt><trkpt lat="48.314534332605675" lon="-3.999871185888204"><ele>86.0</ele><time>2026-04-19T15:05:06Z</time></trkpt><trkpt lat="48.3146355444579" lon="-3.9999727353166987"><ele>86.0</ele><time>2026-04-19T15:05:07Z</time></trkpt><trkpt lat="48.31473881465901" lon="-4.000096458507725"><ele>88.25</ele><time>2026-04-19T15:05:08Z</time></trkpt><trkpt lat="48.314823655348384" lon="-4.000275668008177"><ele>90.5</ele><time>2026-04-19T15:05:09Z</time></trkpt><trkpt lat="48.31492126808477" lon="-4.000425413910636"><ele>92.75</ele><time>2026-04-19T15:05:09.999Z</time></trkpt><trkpt lat="48.31502834481263" lon="-4.000542273192632"><ele>95.0</ele><time>2026-04-19T15:05:10.999Z</time></trkpt><trkpt lat="48.3151400721119" lon="-4.000636730580534"><ele>95.0</ele><time>2026-04-19T15:05:11.999Z</time></trkpt><trkpt lat="48.315231381285024" lon="-4.00073122074756"><ele>95.0</ele><time>2026-04-19T15:05:12.999Z</time></trkpt><trkpt lat="48.315330072376355" lon="-4.000772265517013"><ele>95.0</ele><time>2026-04-19T15:05:13.999Z</time></trkpt><trkpt lat="48.31545702151842" lon="-4.000820151325333"><ele>95.0</ele><time>2026-04-19T15:05:14.999Z</time></trkpt><trkpt lat="48.31558843476275" lon="-4.000843419948833"><ele>93.2</ele><time>2026-04-19T15:05:15.999Z</time></trkpt><trkpt lat="48.31569875080443" lon="-4.0008762698493125"><ele>91.4</ele><time>2026-04-19T15:05:16.999Z</time></trkpt><trkpt lat="48.315794017861066" lon="-4.000889111754312"><ele>89.6</ele><time>2026-04-19T15:05:17.999Z</time></trkpt><trkpt lat="48.3158780317087" lon="-4.000887707620445"><ele>87.8</ele><time>2026-04-19T15:05:18.999Z</time></trkpt><trkpt lat="48.3159788998625" lon="-4.000975285708904"><ele>86.0</ele><time>2026-04-19T15:05:20.999Z</time></trkpt><trkpt lat="48.31602577957752" lon="-4.001054515890023"><ele>86.0</ele><time>2026-04-19T15:05:21.999Z</time></trkpt><trkpt lat="48.316075894463154" lon="-4.00111329221875"><ele>86.0</ele><time>2026-04-19T15:05:22.999Z</time></trkpt><trkpt lat="48.316155955883325" lon="-4.001220926039075"><ele>86.0</ele><time>2026-04-19T15:05:24.999Z</time></trkpt><trkpt lat="48.31628296857919" lon="-4.001324333211854"><ele>86.0</ele><time>2026-04-19T15:05:26.999Z</time></trkpt><trkpt lat="48.31636939737954" lon="-4.001381695411762"><ele>86.0</ele><time>2026-04-19T15:05:27.999Z</time></trkpt><trkpt lat="48.316453748743285" lon="-4.001456358892174"><ele>86.19999999999999</ele><time>2026-04-19T15:05:28.999Z</time></trkpt><trkpt lat="48.316551270513024" lon="-4.001547343260568"><ele>86.39999999999999</ele><time>2026-04-19T15:05:29.999Z</time></trkpt><trkpt lat="48.31664978950091" lon="-4.001616266799047"><ele>86.6</ele><time>2026-04-19T15:05:30.999Z</time></trkpt><trkpt lat="48.31672653367915" lon="-4.001675580844194"><ele>86.8</ele><time>2026-04-19T15:05:31.999Z</time></trkpt><trkpt lat="48.316791154921795" lon="-4.001760976359647"><ele>87.0</ele><time>2026-04-19T15:05:32.999Z</time></trkpt><trkpt lat="48.31683961359981" lon="-4.001839381859133"><ele>87.33333333333333</ele><time>2026-04-19T15:05:33.999Z</time></trkpt><trkpt lat="48.31688894204937" lon="-4.001936237843849"><ele>87.66666666666667</ele><time>2026-04-19T15:05:34.999Z</time></trkpt><trkpt lat="48.316931135602964" lon="-4.0020348191357495"><ele>88.0</ele><time>2026-04-19T15:05:35.999Z</time></trkpt><trkpt lat="48.317070081746046" lon="-4.002086430640537"><ele>88.33333333333334</ele><time>2026-04-19T15:05:37.999Z</time></trkpt><trkpt lat="48.31714524750357" lon="-4.002092755685316"><ele>88.66666666666667</ele><time>2026-04-19T15:05:38.999Z</time></trkpt><trkpt lat="48.317212101461" lon="-4.002112528509203"><ele>89.0</ele><time>2026-04-19T15:05:39.999Z</time></trkpt><trkpt lat="48.31730132646521" lon="-4.002124107511848"><ele>89.0</ele><time>2026-04-19T15:05:40.999Z</time></trkpt><trkpt lat="48.31741864521167" lon="-4.002167708336035"><ele>89.0</ele><time>2026-04-19T15:05:41.999Z</time></trkpt><trkpt lat="48.3175215237272" lon="-4.002178997319471"><ele>89.0</ele><time>2026-04-19T15:05:42.999Z</time></trkpt><trkpt lat="48.31764711128067" lon="-4.002188261610525"><ele>89.0</ele><time>2026-04-19T15:05:43.999Z</time></trkpt><trkpt lat="48.31777642531404" lon="-4.002195253066422"><ele>89.0</ele><time>2026-04-19T15:05:44.999Z</time></trkpt><trkpt lat="48.31789580968281" lon="-4.002204197883335"><ele>89.0</ele><time>2026-04-19T15:05:45.999Z</time></trkpt><trkpt lat="48.31800451564991" lon="-4.00220733226486"><ele>89.0</ele><time>2026-04-19T15:05:46.999Z</time></trkpt><trkpt lat="48.318076088854816" lon="-4.002204511866632"><ele>89.0</ele><time>2026-04-19T15:05:47.999Z</time></trkpt><trkpt lat="48.31816711468413" lon="-4.002139285109938"><ele>89.0</ele><time>2026-04-19T15:05:50Z</time></trkpt><trkpt lat="48.318309996570385" lon="-4.0020905310849875"><ele>89.80000000000001</ele><time>2026-04-19T15:05:52Z</time></trkpt><trkpt lat="48.318410330860395" lon="-4.0021360549242875"><ele>90.60000000000001</ele><time>2026-04-19T15:05:53Z</time></trkpt><trkpt lat="48.31849610097297" lon="-4.0021601737147074"><ele>91.4</ele><time>2026-04-19T15:05:54Z</time></trkpt><trkpt lat="48.31856610929226" lon="-4.002177670118576"><ele>92.2</ele><time>2026-04-19T15:05:55Z</time></trkpt><trkpt lat="48.318661442924615" lon="-4.002230620982025"><ele>93.0</ele><time>2026-04-19T15:05:56Z</time></trkpt><trkpt lat="48.31876415263794" lon="-4.002282001747143"><ele>93.0</ele><time>2026-04-19T15:05:57Z</time></trkpt><trkpt lat="48.31886526528831" lon="-4.002259486985987"><ele>93.0</ele><time>2026-04-19T15:05:58Z</time></trkpt><trkpt lat="48.31897967202266" lon="-4.0022599576280395"><ele>93.0</ele><time>2026-04-19T15:05:59Z</time></trkpt><trkpt lat="48.31908912171549" lon="-4.00226004744514"><ele>93.0</ele><time>2026-04-19T15:06:00Z</time></trkpt><trkpt lat="48.31916840603413" lon="-4.002269679286039"><ele>93.0</ele><time>2026-04-19T15:06:01Z</time></trkpt><trkpt lat="48.31926208348835" lon="-4.002300143140807"><ele>92.83333333333333</ele><time>2026-04-19T15:06:02Z</time></trkpt><trkpt lat="48.319341008551184" lon="-4.002349575766452"><ele>92.66666666666667</ele><time>2026-04-19T15:06:03Z</time></trkpt><trkpt lat="48.31940596234205" lon="-4.002409838177998"><ele>92.5</ele><time>2026-04-19T15:06:04Z</time></trkpt><trkpt lat="48.31945878977622" lon="-4.002476580964432"><ele>92.33333333333334</ele><time>2026-04-19T15:06:05Z</time></trkpt><trkpt lat="48.319492452124564" lon="-4.002602012398856"><ele>92.16666666666667</ele><time>2026-04-19T15:06:06Z</time></trkpt><trkpt lat="48.31952934584754" lon="-4.002712375410556"><ele>92.0</ele><time>2026-04-19T15:06:07Z</time></trkpt><trkpt lat="48.319593577708815" lon="-4.002741851979798"><ele>92.0</ele><time>2026-04-19T15:06:08Z</time></trkpt><trkpt lat="48.31966516806632" lon="-4.00274214873058"><ele>92.0</ele><time>2026-04-19T15:06:09Z</time></trkpt><trkpt lat="48.31976722354944" lon="-4.0027040799792"><ele>92.0</ele><time>2026-04-19T15:06:10Z</time></trkpt><trkpt lat="48.319883929746766" lon="-4.002649465049307"><ele>92.0</ele><time>2026-04-19T15:06:11Z</time></trkpt><trkpt lat="48.32000329264692" lon="-4.002573205656416"><ele>92.0</ele><time>2026-04-19T15:06:12Z</time></trkpt><trkpt lat="48.32011445200451" lon="-4.002521110909087"><ele>93.6</ele><time>2026-04-19T15:06:13Z</time></trkpt><trkpt lat="48.32021531447113" lon="-4.002504742313725"><ele>95.19999999999999</ele><time>2026-04-19T15:06:14Z</time></trkpt><trkpt lat="48.32029706399954" lon="-4.002463762881063"><ele>96.8</ele><time>2026-04-19T15:06:15Z</time></trkpt><trkpt lat="48.32039123827071" lon="-4.0024250147940394"><ele>98.4</ele><time>2026-04-19T15:06:17Z</time></trkpt><trkpt lat="48.32044195185113" lon="-4.002275126519427"><ele>100.0</ele><time>2026-04-19T15:06:19Z</time></trkpt><trkpt lat="48.32056810408603" lon="-4.002192411822142"><ele>102.2</ele><time>2026-04-19T15:06:21Z</time></trkpt><trkpt lat="48.32065581614365" lon="-4.002129724029389"><ele>104.4</ele><time>2026-04-19T15:06:22Z</time></trkpt><trkpt lat="48.32075975378827" lon="-4.002079880930098"><ele>106.6</ele><time>2026-04-19T15:06:23Z</time></trkpt><trkpt lat="48.320874172708805" lon="-4.002048176290046"><ele>108.8</ele><time>2026-04-19T15:06:24Z</time></trkpt><trkpt lat="48.32098965509393" lon="-4.002027487372302"><ele>111.0</ele><time>2026-04-19T15:06:25Z</time></trkpt><trkpt lat="48.32110638271901" lon="-4.002008774943652"><ele>111.0</ele><time>2026-04-19T15:06:26Z</time></trkpt><trkpt lat="48.32123047832492" lon="-4.0019826069594355"><ele>111.0</ele><time>2026-04-19T15:06:27Z</time></trkpt><trkpt lat="48.32134592953655" lon="-4.001955975538332"><ele>111.0</ele><time>2026-04-19T15:06:28Z</time></trkpt><trkpt lat="48.321438433148096" lon="-4.001934637492603"><ele>111.0</ele><time>2026-04-19T15:06:29Z</time></trkpt><trkpt lat="48.32151209830865" lon="-4.001917644972257"><ele>111.0</ele><time>2026-04-19T15:06:30Z</time></trkpt><trkpt lat="48.32161181281311" lon="-4.001905969899448"><ele>113.0</ele><time>2026-04-19T15:06:32Z</time></trkpt><trkpt lat="48.321689133690995" lon="-4.001876808222139"><ele>115.0</ele><time>2026-04-19T15:06:33Z</time></trkpt><trkpt lat="48.32177986163086" lon="-4.001855880270782"><ele>117.0</ele><time>2026-04-19T15:06:34Z</time></trkpt><trkpt lat="48.321878373534105" lon="-4.0018331568234915"><ele>119.0</ele><time>2026-04-19T15:06:35Z</time></trkpt><trkpt lat="48.322018586617475" lon="-4.0018610470149"><ele>121.0</ele><time>2026-04-19T15:06:36Z</time></trkpt><trkpt lat="48.32214497094938" lon="-4.001847274970696"><ele>122.6</ele><time>2026-04-19T15:06:37Z</time></trkpt><trkpt lat="48.32226367614216" lon="-4.001800476116098"><ele>124.19999999999999</ele><time>2026-04-19T15:06:38Z</time></trkpt><trkpt lat="48.32236567072076" lon="-4.001756464473867"><ele>125.80000000000001</ele><time>2026-04-19T15:06:39Z</time></trkpt><trkpt lat="48.3224694100366" lon="-4.001723175004763"><ele>127.4</ele><time>2026-04-19T15:06:40Z</time></trkpt><trkpt lat="48.32254029244443" lon="-4.0017047289537455"><ele>129.0</ele><time>2026-04-19T15:06:41Z</time></trkpt><trkpt lat="48.32263398119324" lon="-4.001716007576589"><ele>129.0</ele><time>2026-04-19T15:06:42Z</time></trkpt><trkpt lat="48.32275034583983" lon="-4.0017315777365035"><ele>129.0</ele><time>2026-04-19T15:06:43Z</time></trkpt><trkpt lat="48.322881419022224" lon="-4.001749714519065"><ele>129.0</ele><time>2026-04-19T15:06:44Z</time></trkpt><trkpt lat="48.32301101154985" lon="-4.001768817733903"><ele>129.0</ele><time>2026-04-19T15:06:45Z</time></trkpt><trkpt lat="48.32314157302484" lon="-4.001806411260166"><ele>131.25</ele><time>2026-04-19T15:06:46Z</time></trkpt><trkpt lat="48.323244697849994" lon="-4.001849586813548"><ele>133.5</ele><time>2026-04-19T15:06:47Z</time></trkpt><trkpt lat="48.32332724766978" lon="-4.001874967502949"><ele>135.75</ele><time>2026-04-19T15:06:48Z</time></trkpt><trkpt lat="48.32342534952225" lon="-4.001810513219299"><ele>138.0</ele><time>2026-04-19T15:06:50Z</time></trkpt><trkpt lat="48.32347412590842" lon="-4.001592330292428"><ele>138.0</ele><time>2026-04-19T15:06:52Z</time></trkpt><trkpt lat="48.32350866496287" lon="-4.001460977831235"><ele>138.0</ele><time>2026-04-19T15:06:53Z</time></trkpt><trkpt lat="48.32355047134921" lon="-4.001306033345001"><ele>138.0</ele><time>2026-04-19T15:06:54Z</time></trkpt><trkpt lat="48.323582464271006" lon="-4.001177601313404"><ele>138.0</ele><time>2026-04-19T15:06:55Z</time></trkpt><trkpt lat="48.323629356715685" lon="-4.001096663673895"><ele>138.0</ele><time>2026-04-19T15:06:56Z</time></trkpt><trkpt lat="48.32375359830912" lon="-4.001076752694163"><ele>138.0</ele><time>2026-04-19T15:06:58Z</time></trkpt><trkpt lat="48.3238636483267" lon="-4.001111607056801"><ele>138.0</ele><time>2026-04-19T15:06:59Z</time></trkpt><trkpt lat="48.32394704054788" lon="-4.001123418491454"><ele>138.0</ele><time>2026-04-19T15:07:00Z</time></trkpt><trkpt lat="48.3240425743167" lon="-4.0011440400499785"><ele>138.0</ele><time>2026-04-19T15:07:00.999Z</time></trkpt><trkpt lat="48.32416642109456" lon="-4.001172158638732"><ele>138.0</ele><time>2026-04-19T15:07:01.999Z</time></trkpt><trkpt lat="48.324274942980615" lon="-4.001187184890577"><ele>140.5</ele><time>2026-04-19T15:07:02.999Z</time></trkpt><trkpt lat="48.32437970355797" lon="-4.001199934685174"><ele>143.0</ele><time>2026-04-19T15:07:03.999Z</time></trkpt><trkpt lat="48.324494081395635" lon="-4.001194992595696"><ele>145.5</ele><time>2026-04-19T15:07:04.999Z</time></trkpt><trkpt lat="48.324631730025885" lon="-4.00118541729264"><ele>148.0</ele><time>2026-04-19T15:07:05.999Z</time></trkpt><trkpt lat="48.32477073386582" lon="-4.001199305651012"><ele>152.0</ele><time>2026-04-19T15:07:06.999Z</time></trkpt><trkpt lat="48.324913972479024" lon="-4.001213930796845"><ele>156.0</ele><time>2026-04-19T15:07:07.999Z</time></trkpt><trkpt lat="48.32504337424387" lon="-4.001210046288927"><ele>160.0</ele><time>2026-04-19T15:07:08.999Z</time></trkpt><trkpt lat="48.32518479348384" lon="-4.001229769032524"><ele>164.0</ele><time>2026-04-19T15:07:09.999Z</time></trkpt><trkpt lat="48.32530182773228" lon="-4.001239175467137"><ele>164.0</ele><time>2026-04-19T15:07:10.999Z</time></trkpt><trkpt lat="48.32536133898533" lon="-4.0012736153193975"><ele>164.0</ele><time>2026-04-19T15:07:11.999Z</time></trkpt><trkpt lat="48.325336794751635" lon="-4.001380632627563"><ele>164.0</ele><time>2026-04-19T15:07:13.999Z</time></trkpt><trkpt lat="48.32543593358169" lon="-4.001414383066363"><ele>164.0</ele><time>2026-04-19T15:07:15.999Z</time></trkpt><trkpt lat="48.32550921505369" lon="-4.001430017471708"><ele>164.0</ele><time>2026-04-19T15:07:17.999Z</time></trkpt><trkpt lat="48.325621051095204" lon="-4.001420702304402"><ele>164.0</ele><time>2026-04-19T15:07:20.999Z</time></trkpt><trkpt lat="48.32568754314846" lon="-4.001426184781087"><ele>166.6</ele><time>2026-04-19T15:07:21.999Z</time></trkpt><trkpt lat="48.325766652667305" lon="-4.001416066322522"><ele>169.2</ele><time>2026-04-19T15:07:23.999Z</time></trkpt><trkpt lat="48.32586342994491" lon="-4.001415081274982"><ele>171.79999999999998</ele><time>2026-04-19T15:07:25.999Z</time></trkpt><trkpt lat="48.32595658541828" lon="-4.001415095585479"><ele>174.39999999999998</ele><time>2026-04-19T15:07:26.999Z</time></trkpt><trkpt lat="48.32607539826725" lon="-4.001403427231802"><ele>177.0</ele><time>2026-04-19T15:07:27.999Z</time></trkpt><trkpt lat="48.32620154915463" lon="-4.001444326685929"><ele>177.0</ele><time>2026-04-19T15:07:28.999Z</time></trkpt><trkpt lat="48.326322003882865" lon="-4.001447765236654"><ele>177.0</ele><time>2026-04-19T15:07:29.999Z</time></trkpt><trkpt lat="48.32641335331128" lon="-4.001424157603725"><ele>177.0</ele><time>2026-04-19T15:07:30.999Z</time></trkpt><trkpt lat="48.326510058947356" lon="-4.0014102541334235"><ele>177.0</ele><time>2026-04-19T15:07:31.999Z</time></trkpt><trkpt lat="48.32659075129564" lon="-4.001382622090336"><ele>177.0</ele><time>2026-04-19T15:07:32.999Z</time></trkpt><trkpt lat="48.32667214319326" lon="-4.001340516405581"><ele>181.25</ele><time>2026-04-19T15:07:33.999Z</time></trkpt><trkpt lat="48.32682649383342" lon="-4.001370661058944"><ele>185.5</ele><time>2026-04-19T15:07:35.999Z</time></trkpt><trkpt lat="48.32693271257044" lon="-4.001373522238192"><ele>189.75</ele><time>2026-04-19T15:07:36.999Z</time></trkpt><trkpt lat="48.32701394439702" lon="-4.001358974414742"><ele>194.0</ele><time>2026-04-19T15:07:37.999Z</time></trkpt><trkpt lat="48.32713429278906" lon="-4.001388908303213"><ele>194.0</ele><time>2026-04-19T15:07:39.999Z</time></trkpt><trkpt lat="48.32721515956261" lon="-4.001362250047335"><ele>194.0</ele><time>2026-04-19T15:07:41.999Z</time></trkpt><trkpt lat="48.32727230468998" lon="-4.001247018816562"><ele>194.0</ele><time>2026-04-19T15:07:43.999Z</time></trkpt><trkpt lat="48.327329886328386" lon="-4.001167728798805"><ele>194.0</ele><time>2026-04-19T15:07:44.999Z</time></trkpt><trkpt lat="48.32740640775997" lon="-4.00107850166772"><ele>194.0</ele><time>2026-04-19T15:07:45.999Z</time></trkpt><trkpt lat="48.32750104928628" lon="-4.000976249274509"><ele>196.6</ele><time>2026-04-19T15:07:46.999Z</time></trkpt><trkpt lat="48.327585359835105" lon="-4.000867992769624"><ele>199.2</ele><time>2026-04-19T15:07:47.999Z</time></trkpt><trkpt lat="48.32765651818967" lon="-4.000785118954606"><ele>201.79999999999998</ele><time>2026-04-19T15:07:48.999Z</time></trkpt><trkpt lat="48.327738280772" lon="-4.000694450934567"><ele>204.39999999999998</ele><time>2026-04-19T15:07:49.999Z</time></trkpt><trkpt lat="48.327805251217576" lon="-4.0006402156846965"><ele>207.0</ele><time>2026-04-19T15:07:50.999Z</time></trkpt><trkpt lat="48.32787400046055" lon="-4.000597234512457"><ele>207.0</ele><time>2026-04-19T15:07:51.999Z</time></trkpt><trkpt lat="48.32793866814737" lon="-4.000523489755196"><ele>207.0</ele><time>2026-04-19T15:07:52.999Z</time></trkpt><trkpt lat="48.328002746485794" lon="-4.000430631358641"><ele>207.0</ele><time>2026-04-19T15:07:53.999Z</time></trkpt><trkpt lat="48.32808683844724" lon="-4.000284860137752"><ele>207.0</ele><time>2026-04-19T15:07:56Z</time></trkpt><trkpt lat="48.32814987014558" lon="-4.0002040531849286"><ele>207.0</ele><time>2026-04-19T15:07:57Z</time></trkpt><trkpt lat="48.328236823574606" lon="-4.000119500969472"><ele>209.16666666666666</ele><time>2026-04-19T15:07:58Z</time></trkpt><trkpt lat="48.3283252348171" lon="-4.000085260875028"><ele>211.33333333333331</ele><time>2026-04-19T15:07:59Z</time></trkpt><trkpt lat="48.32838812955708" lon="-4.000061564672194"><ele>213.5</ele><time>2026-04-19T15:08:00Z</time></trkpt><trkpt lat="48.32847370119334" lon="-4.000046853942792"><ele>215.66666666666666</ele><time>2026-04-19T15:08:02Z</time></trkpt><trkpt lat="48.328527554822465" lon="-4.000186254420852"><ele>217.83333333333331</ele><time>2026-04-19T15:08:36Z</time></trkpt><trkpt lat="48.328575908967316" lon="-4.00027833544809"><ele>220.0</ele><time>2026-04-19T15:08:37Z</time></trkpt><trkpt lat="48.32863633927662" lon="-4.0004011954702365"><ele>220.0</ele><time>2026-04-19T15:08:38Z</time></trkpt><trkpt lat="48.32869914697325" lon="-4.000528264254692"><ele>220.0</ele><time>2026-04-19T15:08:39Z</time></trkpt><trkpt lat="48.32877960057513" lon="-4.000713331282185"><ele>220.0</ele><time>2026-04-19T15:08:40Z</time></trkpt><trkpt lat="48.32885021895255" lon="-4.000929133571186"><ele>220.0</ele><time>2026-04-19T15:08:41Z</time></trkpt><trkpt lat="48.32891673138856" lon="-4.001157626471432"><ele>224.75</ele><time>2026-04-19T15:08:42Z</time></trkpt><trkpt lat="48.328982777492406" lon="-4.001362028013103"><ele>229.5</ele><time>2026-04-19T15:08:43Z</time></trkpt><trkpt lat="48.329045279385134" lon="-4.001540567057945"><ele>234.25</ele><time>2026-04-19T15:08:44Z</time></trkpt><trkpt lat="48.3291345686983" lon="-4.001726330883138"><ele>239.0</ele><time>2026-04-19T15:08:45Z</time></trkpt><trkpt lat="48.329231075348815" lon="-4.001888852026811"><ele>239.0</ele><time>2026-04-19T15:08:46Z</time></trkpt><trkpt lat="48.32935228571672" lon="-4.002078584782154"><ele>239.0</ele><time>2026-04-19T15:08:47Z</time></trkpt><trkpt lat="48.329474435836076" lon="-4.0022956265675464"><ele>239.0</ele><time>2026-04-19T15:08:48Z</time></trkpt><trkpt lat="48.32960195804367" lon="-4.002519226821253"><ele>239.2</ele><time>2026-04-19T15:08:49Z</time></trkpt><trkpt lat="48.32971605791829" lon="-4.0027448214641925"><ele>239.39999999999998</ele><time>2026-04-19T15:08:50Z</time></trkpt><trkpt lat="48.32976009743262" lon="-4.002844403347924"><ele>239.6</ele><time>2026-04-19T15:08:51Z</time></trkpt><trkpt lat="48.329807564448984" lon="-4.002912703699542"><ele>239.8</ele><time>2026-04-19T15:08:52Z</time></trkpt><trkpt lat="48.32987520471092" lon="-4.002903170688764"><ele>240.0</ele><time>2026-04-19T15:08:54Z</time></trkpt><trkpt lat="48.32997720469704" lon="-4.002943544292449"><ele>242.16666666666666</ele><time>2026-04-19T15:08:56Z</time></trkpt><trkpt lat="48.33004979112486" lon="-4.002973295593224"><ele>244.33333333333331</ele><time>2026-04-19T15:08:57Z</time></trkpt><trkpt lat="48.33011198976452" lon="-4.003001656757431"><ele>246.5</ele><time>2026-04-19T15:08:58Z</time></trkpt><trkpt lat="48.330210479172145" lon="-4.003046565690072"><ele>248.66666666666666</ele><time>2026-04-19T15:08:59Z</time></trkpt><trkpt lat="48.3303069534056" lon="-4.0030921204055065"><ele>250.83333333333331</ele><time>2026-04-19T15:09:00Z</time></trkpt><trkpt lat="48.33040422485878" lon="-4.003141087485318"><ele>253.0</ele><time>2026-04-19T15:09:01Z</time></trkpt><trkpt lat="48.33050900630541" lon="-4.003196391521666"><ele>254.75</ele><time>2026-04-19T15:09:02Z</time></trkpt><trkpt lat="48.33061407516024" lon="-4.003249804383136"><ele>256.5</ele><time>2026-04-19T15:09:03Z</time></trkpt><trkpt lat="48.33073149639384" lon="-4.00330031741684"><ele>258.25</ele><time>2026-04-19T15:09:04Z</time></trkpt><trkpt lat="48.33084524920232" lon="-4.003338520985612"><ele>260.0</ele><time>2026-04-19T15:09:05Z</time></trkpt><trkpt lat="48.33096163514796" lon="-4.003389261036886"><ele>260.0</ele><time>2026-04-19T15:09:06Z</time></trkpt><trkpt lat="48.33108145701948" lon="-4.003424527177162"><ele>260.0</ele><time>2026-04-19T15:09:07Z</time></trkpt><trkpt lat="48.33120125079918" lon="-4.0034584765110095"><ele>260.0</ele><time>2026-04-19T15:09:08Z</time></trkpt><trkpt lat="48.331311380306666" lon="-4.003532784294103"><ele>260.0</ele><time>2026-04-19T15:09:09Z</time></trkpt><trkpt lat="48.33142873813019" lon="-4.0036277055353535"><ele>259.25</ele><time>2026-04-19T15:09:10Z</time></trkpt><trkpt lat="48.33154489140418" lon="-4.0037401760224345"><ele>258.5</ele><time>2026-04-19T15:09:11Z</time></trkpt><trkpt lat="48.331658794604415" lon="-4.003848199286941"><ele>257.75</ele><time>2026-04-19T15:09:12Z</time></trkpt><trkpt lat="48.331772093789624" lon="-4.003948405807445"><ele>257.0</ele><time>2026-04-19T15:09:13Z</time></trkpt><trkpt lat="48.33189465310777" lon="-4.003999592655495"><ele>257.0</ele><time>2026-04-19T15:09:14Z</time></trkpt><trkpt lat="48.332024171219686" lon="-4.004053825018259"><ele>257.0</ele><time>2026-04-19T15:09:14.999Z</time></trkpt><trkpt lat="48.33215708403269" lon="-4.004053764658999"><ele>257.0</ele><time>2026-04-19T15:09:15.999Z</time></trkpt><trkpt lat="48.33230032466431" lon="-4.004049026751415"><ele>257.0</ele><time>2026-04-19T15:09:16.999Z</time></trkpt><trkpt lat="48.33243661606146" lon="-4.004051725504015"><ele>256.25</ele><time>2026-04-19T15:09:17.999Z</time></trkpt><trkpt lat="48.332568998108336" lon="-4.004051972018931"><ele>255.5</ele><time>2026-04-19T15:09:18.999Z</time></trkpt><trkpt lat="48.33271496643303" lon="-4.004053588810391"><ele>254.75</ele><time>2026-04-19T15:09:19.999Z</time></trkpt><trkpt lat="48.33285542845785" lon="-4.00405416765213"><ele>254.0</ele><time>2026-04-19T15:09:20.999Z</time></trkpt><trkpt lat="48.33299368542762" lon="-4.00404811551438"><ele>253.25</ele><time>2026-04-19T15:09:21.999Z</time></trkpt><trkpt lat="48.333152545729064" lon="-4.004055480369761"><ele>252.5</ele><time>2026-04-19T15:09:22.999Z</time></trkpt><trkpt lat="48.33329530677919" lon="-4.004078203508962"><ele>251.75</ele><time>2026-04-19T15:09:23.999Z</time></trkpt><trkpt lat="48.333433559331986" lon="-4.00411910047453"><ele>251.0</ele><time>2026-04-19T15:09:24.999Z</time></trkpt><trkpt lat="48.33357008419891" lon="-4.004162894554618"><ele>249.75</ele><time>2026-04-19T15:09:25.999Z</time></trkpt><trkpt lat="48.33370751116018" lon="-4.004206090044816"><ele>248.5</ele><time>2026-04-19T15:09:26.999Z</time></trkpt><trkpt lat="48.33384196978141" lon="-4.004251289167336"><ele>247.25</ele><time>2026-04-19T15:09:27.999Z</time></trkpt><trkpt lat="48.333963880903404" lon="-4.00429323959635"><ele>246.0</ele><time>2026-04-19T15:09:28.999Z</time></trkpt><trkpt lat="48.334089070745485" lon="-4.004311598555432"><ele>245.0</ele><time>2026-04-19T15:09:29.999Z</time></trkpt><trkpt lat="48.33420561928047" lon="-4.004327438482389"><ele>244.0</ele><time>2026-04-19T15:09:30.999Z</time></trkpt><trkpt lat="48.334331292472086" lon="-4.004320579456716"><ele>243.0</ele><time>2026-04-19T15:09:31.999Z</time></trkpt><trkpt lat="48.33447738052635" lon="-4.004296859585156"><ele>242.0</ele><time>2026-04-19T15:09:32.999Z</time></trkpt><trkpt lat="48.334627324905796" lon="-4.0042654170998295"><ele>239.66666666666669</ele><time>2026-04-19T15:09:33.999Z</time></trkpt><trkpt lat="48.3347896193698" lon="-4.004227858308284"><ele>237.33333333333331</ele><time>2026-04-19T15:09:34.999Z</time></trkpt><trkpt lat="48.334949464554406" lon="-4.004189124057358"><ele>235.0</ele><time>2026-04-19T15:09:35.999Z</time></trkpt><trkpt lat="48.33511633340335" lon="-4.004168059805676"><ele>235.33333333333331</ele><time>2026-04-19T15:09:36.999Z</time></trkpt><trkpt lat="48.33527338008961" lon="-4.004101590064549"><ele>235.66666666666669</ele><time>2026-04-19T15:09:37.999Z</time></trkpt><trkpt lat="48.33543528691934" lon="-4.004075839738847"><ele>236.0</ele><time>2026-04-19T15:09:38.999Z</time></trkpt><trkpt lat="48.33559349103427" lon="-4.004022298642722"><ele>236.0</ele><time>2026-04-19T15:09:39.999Z</time></trkpt><trkpt lat="48.33574926574345" lon="-4.003967624609921"><ele>236.0</ele><time>2026-04-19T15:09:40.999Z</time></trkpt><trkpt lat="48.335907742884324" lon="-4.003908823130515"><ele>236.0</ele><time>2026-04-19T15:09:41.999Z</time></trkpt><trkpt lat="48.33606188446492" lon="-4.003846286751929"><ele>236.0</ele><time>2026-04-19T15:09:42.999Z</time></trkpt><trkpt lat="48.33621736157868" lon="-4.003781604078665"><ele>236.0</ele><time>2026-04-19T15:09:43.999Z</time></trkpt><trkpt lat="48.336376783614405" lon="-4.003709692003127"><ele>236.0</ele><time>2026-04-19T15:09:44.999Z</time></trkpt><trkpt lat="48.33653297411274" lon="-4.00366682161644"><ele>233.33333333333334</ele><time>2026-04-19T15:09:45.999Z</time></trkpt><trkpt lat="48.336685723532895" lon="-4.003613384587166"><ele>230.66666666666669</ele><time>2026-04-19T15:09:46.999Z</time></trkpt><trkpt lat="48.33683688383012" lon="-4.003579023585468"><ele>228.0</ele><time>2026-04-19T15:09:47.999Z</time></trkpt><trkpt lat="48.336987504364664" lon="-4.00355211649354"><ele>228.0</ele><time>2026-04-19T15:09:48.999Z</time></trkpt><trkpt lat="48.3371424024214" lon="-4.003512966747945"><ele>228.0</ele><time>2026-04-19T15:09:49.999Z</time></trkpt><trkpt lat="48.337276896310705" lon="-4.003480297214603"><ele>228.0</ele><time>2026-04-19T15:09:50.999Z</time></trkpt><trkpt lat="48.33739588331996" lon="-4.003450098230912"><ele>228.0</ele><time>2026-04-19T15:09:51.999Z</time></trkpt><trkpt lat="48.3375040851878" lon="-4.003423114884508"><ele>226.8</ele><time>2026-04-19T15:09:52.999Z</time></trkpt><trkpt lat="48.33759400284889" lon="-4.003396752934145"><ele>225.60000000000002</ele><time>2026-04-19T15:09:53.999Z</time></trkpt><trkpt lat="48.3376755324728" lon="-4.003389538005908"><ele>224.39999999999998</ele><time>2026-04-19T15:09:54.999Z</time></trkpt><trkpt lat="48.33773676755054" lon="-4.003539159001287"><ele>223.2</ele><time>2026-04-19T15:09:57.999Z</time></trkpt><trkpt lat="48.337728536191165" lon="-4.0036707922161385"><ele>222.0</ele><time>2026-04-19T15:09:58.999Z</time></trkpt><trkpt lat="48.33770904296142" lon="-4.003809047620801"><ele>222.0</ele><time>2026-04-19T15:09:59.999Z</time></trkpt><trkpt lat="48.3376811141136" lon="-4.003984108260969"><ele>222.0</ele><time>2026-04-19T15:10:00.999Z</time></trkpt><trkpt lat="48.3376423982746" lon="-4.004148886280453"><ele>222.0</ele><time>2026-04-19T15:10:02Z</time></trkpt><trkpt lat="48.3376247594366" lon="-4.004299685668779"><ele>222.0</ele><time>2026-04-19T15:10:03Z</time></trkpt><trkpt lat="48.337594974530695" lon="-4.004454119053659"><ele>222.0</ele><time>2026-04-19T15:10:04Z</time></trkpt><trkpt lat="48.33756515852322" lon="-4.00462760129875"><ele>220.0</ele><time>2026-04-19T15:10:05Z</time></trkpt><trkpt lat="48.337545452225875" lon="-4.004801587419159"><ele>218.0</ele><time>2026-04-19T15:10:06Z</time></trkpt><trkpt lat="48.337531473637284" lon="-4.004974867048888"><ele>216.0</ele><time>2026-04-19T15:10:07Z</time></trkpt><trkpt lat="48.33750528366439" lon="-4.005153207726706"><ele>214.0</ele><time>2026-04-19T15:10:08Z</time></trkpt><trkpt lat="48.33746562329897" lon="-4.005329589155372"><ele>212.6</ele><time>2026-04-19T15:10:09Z</time></trkpt><trkpt lat="48.33744470937364" lon="-4.005485424134803"><ele>211.2</ele><time>2026-04-19T15:10:10Z</time></trkpt><trkpt lat="48.33741777632411" lon="-4.005643238558666"><ele>209.79999999999998</ele><time>2026-04-19T15:10:11Z</time></trkpt><trkpt lat="48.337398181699555" lon="-4.005796448212447"><ele>208.39999999999998</ele><time>2026-04-19T15:10:12Z</time></trkpt><trkpt lat="48.33737819851014" lon="-4.005940976183678"><ele>207.0</ele><time>2026-04-19T15:10:13Z</time></trkpt><trkpt lat="48.33736886765295" lon="-4.006063919023273"><ele>205.39999999999998</ele><time>2026-04-19T15:10:14Z</time></trkpt><trkpt lat="48.33738390706375" lon="-4.0061821503291934"><ele>203.79999999999998</ele><time>2026-04-19T15:10:15Z</time></trkpt><trkpt lat="48.337433503375195" lon="-4.0062838157751655"><ele>202.2</ele><time>2026-04-19T15:10:16Z</time></trkpt><trkpt lat="48.337502271859584" lon="-4.006378502330539"><ele>200.6</ele><time>2026-04-19T15:10:17Z</time></trkpt><trkpt lat="48.337582022548624" lon="-4.006443337231362"><ele>199.0</ele><time>2026-04-19T15:10:18Z</time></trkpt><trkpt lat="48.33769170457338" lon="-4.006454030145774"><ele>199.0</ele><time>2026-04-19T15:10:19Z</time></trkpt><trkpt lat="48.33780130002461" lon="-4.006506285159106"><ele>199.0</ele><time>2026-04-19T15:10:20Z</time></trkpt><trkpt lat="48.337918900362034" lon="-4.006526041671512"><ele>199.0</ele><time>2026-04-19T15:10:21Z</time></trkpt><trkpt lat="48.33803730252099" lon="-4.0065559832285835"><ele>199.0</ele><time>2026-04-19T15:10:22Z</time></trkpt><trkpt lat="48.33815428818005" lon="-4.006591606991654"><ele>198.6</ele><time>2026-04-19T15:10:23Z</time></trkpt><trkpt lat="48.3382632260818" lon="-4.0066246679905255"><ele>198.2</ele><time>2026-04-19T15:10:24Z</time></trkpt><trkpt lat="48.338357128671596" lon="-4.006653273972744"><ele>197.79999999999998</ele><time>2026-04-19T15:10:25Z</time></trkpt><trkpt lat="48.338447581591666" lon="-4.006683171754749"><ele>197.39999999999998</ele><time>2026-04-19T15:10:26Z</time></trkpt><trkpt lat="48.33852651033157" lon="-4.006689439600941"><ele>197.0</ele><time>2026-04-19T15:10:27Z</time></trkpt><trkpt lat="48.3386444344098" lon="-4.0066495830609705"><ele>197.00000000000003</ele><time>2026-04-19T15:10:29Z</time></trkpt><trkpt lat="48.33871936042434" lon="-4.006578909520671"><ele>197.0</ele><time>2026-04-19T15:10:30Z</time></trkpt><trkpt lat="48.33878752454653" lon="-4.006502570645659"><ele>197.0</ele><time>2026-04-19T15:10:31Z</time></trkpt><trkpt lat="48.338850987313506" lon="-4.006426967592334"><ele>197.0</ele><time>2026-04-19T15:10:32Z</time></trkpt><trkpt lat="48.338912748715565" lon="-4.006375026333382"><ele>197.00000000000003</ele><time>2026-04-19T15:10:33Z</time></trkpt><trkpt lat="48.3390089861229" lon="-4.006279412209748"><ele>197.0</ele><time>2026-04-19T15:10:35Z</time></trkpt><trkpt lat="48.33908250727073" lon="-4.006210540192977"><ele>197.0</ele><time>2026-04-19T15:10:37Z</time></trkpt><trkpt lat="48.339113974845795" lon="-4.0063989234675255"><ele>197.0</ele><time>2026-04-19T15:11:25Z</time></trkpt><trkpt lat="48.3390354654335" lon="-4.006398126211449"><ele>197.0</ele><time>2026-04-19T15:11:56.999Z</time></trkpt><trkpt lat="48.3389704844742" lon="-4.006382249521504"><ele>197.0</ele><time>2026-04-19T15:11:57.999Z</time></trkpt><trkpt lat="48.33885403948949" lon="-4.006403739999653"><ele>197.0</ele><time>2026-04-19T15:11:59.999Z</time></trkpt><trkpt lat="48.338834845069755" lon="-4.006501379011973"><ele>197.0</ele><time>2026-04-19T15:12:00.999Z</time></trkpt><trkpt lat="48.33873476815739" lon="-4.006600731158342"><ele>197.0</ele><time>2026-04-19T15:12:02.999Z</time></trkpt><trkpt lat="48.33863835961172" lon="-4.00670134980216"><ele>197.0</ele><time>2026-04-19T15:12:04.999Z</time></trkpt><trkpt lat="48.33858041395707" lon="-4.006783084740794"><ele>197.0</ele><time>2026-04-19T15:12:06.999Z</time></trkpt><trkpt lat="48.338576157765566" lon="-4.007133291220028"><ele>194.5</ele><time>2026-04-19T15:12:11Z</time></trkpt><trkpt lat="48.33850271353961" lon="-4.007219126883202"><ele>192.0</ele><time>2026-04-19T15:12:12Z</time></trkpt><trkpt lat="48.338621225596526" lon="-4.007296700517141"><ele>189.5</ele><time>2026-04-19T15:12:13Z</time></trkpt><trkpt lat="48.338790471404764" lon="-4.007110633684223"><ele>187.0</ele><time>2026-04-19T15:12:14Z</time></trkpt><trkpt lat="48.33869776491961" lon="-4.007542784637397"><ele>187.0</ele><time>2026-04-19T15:12:16Z</time></trkpt><trkpt lat="48.33879138179389" lon="-4.006958287706905"><ele>187.0</ele><time>2026-04-19T15:12:18Z</time></trkpt><trkpt lat="48.3386024764835" lon="-4.0068475623876365"><ele>180.0</ele><time>2026-04-19T15:12:19Z</time></trkpt><trkpt lat="48.33874172819897" lon="-4.0075207368194805"><ele>181.4</ele><time>2026-04-19T15:12:29Z</time></trkpt><trkpt lat="48.338730535416694" lon="-4.0074124991136415"><ele>182.8</ele><time>2026-04-19T15:12:39Z</time></trkpt><trkpt lat="48.33869781028715" lon="-4.00732171825095"><ele>184.2</ele><time>2026-04-19T15:12:40Z</time></trkpt><trkpt lat="48.338641785188784" lon="-4.00715029436528"><ele>185.6</ele><time>2026-04-19T15:12:42Z</time></trkpt><trkpt lat="48.33862558443557" lon="-4.007050891335675"><ele>187.0</ele><time>2026-04-19T15:12:43Z</time></trkpt><trkpt lat="48.33861897263309" lon="-4.006879323086517"><ele>187.0</ele><time>2026-04-19T15:12:45Z</time></trkpt><trkpt lat="48.33843433408097" lon="-4.0068969429378445"><ele>187.0</ele><time>2026-04-19T15:12:46Z</time></trkpt><trkpt lat="48.33852447824071" lon="-4.006796564214275"><ele>187.0</ele><time>2026-04-19T15:12:48Z</time></trkpt><trkpt lat="48.338463897203184" lon="-4.00676218196022"><ele>187.0</ele><time>2026-04-19T15:12:50Z</time></trkpt><trkpt lat="48.33839673877951" lon="-4.0067427909369355"><ele>187.0</ele><time>2026-04-19T15:12:52Z</time></trkpt><trkpt lat="48.33829853429468" lon="-4.006714437395382"><ele>187.0</ele><time>2026-04-19T15:13:06Z</time></trkpt><trkpt lat="48.33822108351801" lon="-4.006683839822102"><ele>187.0</ele><time>2026-04-19T15:13:08Z</time></trkpt><trkpt lat="48.33812496512928" lon="-4.006660281204923"><ele>187.0</ele><time>2026-04-19T15:13:10Z</time></trkpt><trkpt lat="48.33802647276633" lon="-4.0066361411632005"><ele>187.0</ele><time>2026-04-19T15:13:12Z</time></trkpt><trkpt lat="48.337960871826745" lon="-4.006659295690769"><ele>187.0</ele><time>2026-04-19T15:13:16Z</time></trkpt><trkpt lat="48.337908590472935" lon="-4.007068481977872"><ele>187.0</ele><time>2026-04-19T15:13:17Z</time></trkpt><trkpt lat="48.33793393683415" lon="-4.007171454347133"><ele>187.0</ele><time>2026-04-19T15:13:19Z</time></trkpt><trkpt lat="48.33793084587932" lon="-4.007062380426032"><ele>187.0</ele><time>2026-04-19T15:14:06.999Z</time></trkpt><trkpt lat="48.3380313310009" lon="-4.006995002946731"><ele>187.0</ele><time>2026-04-19T15:14:09.999Z</time></trkpt><trkpt lat="48.338101614757285" lon="-4.006974245476321"><ele>187.0</ele><time>2026-04-19T15:14:11.999Z</time></trkpt><trkpt lat="48.33812771374854" lon="-4.00710115885017"><ele>187.0</ele><time>2026-04-19T15:14:15Z</time></trkpt><trkpt lat="48.338123996868724" lon="-4.007290009455758"><ele>187.0</ele><time>2026-04-19T15:14:17Z</time></trkpt><trkpt lat="48.338122020648754" lon="-4.007472511226691"><ele>187.0</ele><time>2026-04-19T15:14:19Z</time></trkpt><trkpt lat="48.33811381560818" lon="-4.00762372823951"><ele>187.0</ele><time>2026-04-19T15:14:21Z</time></trkpt><trkpt lat="48.33809617765644" lon="-4.007784589685566"><ele>187.0</ele><time>2026-04-19T15:14:23Z</time></trkpt><trkpt lat="48.33806209966464" lon="-4.007936200942686"><ele>187.0</ele><time>2026-04-19T15:14:25Z</time></trkpt><trkpt lat="48.33802543841982" lon="-4.008063942372337"><ele>186.6</ele><time>2026-04-19T15:14:27Z</time></trkpt><trkpt lat="48.33797209760562" lon="-4.00822462286931"><ele>186.2</ele><time>2026-04-19T15:14:29Z</time></trkpt><trkpt lat="48.33791749312952" lon="-4.008383425423749"><ele>185.8</ele><time>2026-04-19T15:14:31Z</time></trkpt><trkpt lat="48.33786678449579" lon="-4.008491698654337"><ele>185.4</ele><time>2026-04-19T15:14:33Z</time></trkpt><trkpt lat="48.33782252905174" lon="-4.0085607009638915"><ele>185.0</ele><time>2026-04-19T15:14:34Z</time></trkpt><trkpt lat="48.337767772516926" lon="-4.008733588165178"><ele>182.83333333333331</ele><time>2026-04-19T15:14:36Z</time></trkpt><trkpt lat="48.33772136643288" lon="-4.008812095191336"><ele>180.66666666666666</ele><time>2026-04-19T15:14:37Z</time></trkpt><trkpt lat="48.33766539237914" lon="-4.008925057574335"><ele>178.5</ele><time>2026-04-19T15:14:39Z</time></trkpt><trkpt lat="48.337622640508016" lon="-4.009032609299364"><ele>176.33333333333334</ele><time>2026-04-19T15:14:40Z</time></trkpt><trkpt lat="48.33758462171542" lon="-4.009120322468236"><ele>174.16666666666669</ele><time>2026-04-19T15:14:41Z</time></trkpt><trkpt lat="48.337544239229324" lon="-4.0092184939699935"><ele>172.0</ele><time>2026-04-19T15:14:42Z</time></trkpt><trkpt lat="48.337498540534185" lon="-4.009302769484185"><ele>170.8</ele><time>2026-04-19T15:14:43Z</time></trkpt><trkpt lat="48.337437862058515" lon="-4.009444961140825"><ele>169.6</ele><time>2026-04-19T15:14:45Z</time></trkpt><trkpt lat="48.33738678549387" lon="-4.0095713368058075"><ele>168.4</ele><time>2026-04-19T15:14:47Z</time></trkpt><trkpt lat="48.33735498440196" lon="-4.009655671441896"><ele>167.20000000000002</ele><time>2026-04-19T15:14:48Z</time></trkpt><trkpt lat="48.33725098536893" lon="-4.009741412470978"><ele>166.0</ele><time>2026-04-19T15:14:50Z</time></trkpt><trkpt lat="48.33718581288321" lon="-4.009803576896532"><ele>166.0</ele><time>2026-04-19T15:14:51Z</time></trkpt><trkpt lat="48.33708431246582" lon="-4.009819610160586"><ele>166.0</ele><time>2026-04-19T15:14:53Z</time></trkpt><trkpt lat="48.33700936570275" lon="-4.009829708827775"><ele>166.0</ele><time>2026-04-19T15:14:55Z</time></trkpt><trkpt lat="48.336890434597215" lon="-4.009825827423455"><ele>166.0</ele><time>2026-04-19T15:14:57Z</time></trkpt><trkpt lat="48.33681298127439" lon="-4.009842759925609"><ele>166.0</ele><time>2026-04-19T15:14:58Z</time></trkpt><trkpt lat="48.33674096050527" lon="-4.009947605152251"><ele>163.16666666666669</ele><time>2026-04-19T15:15:00Z</time></trkpt><trkpt lat="48.3366868820458" lon="-4.010027150271029"><ele>160.33333333333334</ele><time>2026-04-19T15:15:02Z</time></trkpt><trkpt lat="48.33663385747042" lon="-4.010110563801717"><ele>157.5</ele><time>2026-04-19T15:15:06Z</time></trkpt><trkpt lat="48.33669006411176" lon="-4.01021270590202"><ele>154.66666666666666</ele><time>2026-04-19T15:15:09Z</time></trkpt><trkpt lat="48.3367396870854" lon="-4.010284792325388"><ele>151.83333333333331</ele><time>2026-04-19T15:15:10Z</time></trkpt><trkpt lat="48.33682149283365" lon="-4.010373045978602"><ele>149.0</ele><time>2026-04-19T15:15:12Z</time></trkpt><trkpt lat="48.336857757997535" lon="-4.010481230880424"><ele>149.0</ele><time>2026-04-19T15:15:14Z</time></trkpt><trkpt lat="48.33686935451188" lon="-4.010618468626067"><ele>149.0</ele><time>2026-04-19T15:15:16Z</time></trkpt><trkpt lat="48.33689973459904" lon="-4.010733439277794"><ele>149.0</ele><time>2026-04-19T15:15:18Z</time></trkpt><trkpt lat="48.33694573274423" lon="-4.010901193257147"><ele>149.0</ele><time>2026-04-19T15:15:20Z</time></trkpt><trkpt lat="48.33699499346121" lon="-4.011064081440987"><ele>149.0</ele><time>2026-04-19T15:15:22Z</time></trkpt><trkpt lat="48.33702802488067" lon="-4.011168606206173"><ele>146.66666666666666</ele><time>2026-04-19T15:15:23Z</time></trkpt><trkpt lat="48.337056607139104" lon="-4.011279510842459"><ele>144.33333333333331</ele><time>2026-04-19T15:15:24Z</time></trkpt><trkpt lat="48.337073077643595" lon="-4.011382136098694"><ele>142.0</ele><time>2026-04-19T15:15:25Z</time></trkpt><trkpt lat="48.33709463722784" lon="-4.011485720857909"><ele>139.66666666666666</ele><time>2026-04-19T15:15:26Z</time></trkpt><trkpt lat="48.33711234686703" lon="-4.011590351731086"><ele>137.33333333333334</ele><time>2026-04-19T15:15:27Z</time></trkpt><trkpt lat="48.33713129858972" lon="-4.011683644736782"><ele>135.0</ele><time>2026-04-19T15:15:28Z</time></trkpt><trkpt lat="48.33711449817001" lon="-4.0118496152718315"><ele>135.0</ele><time>2026-04-19T15:15:30Z</time></trkpt><trkpt lat="48.33709724252838" lon="-4.011948678345015"><ele>135.0</ele><time>2026-04-19T15:15:31Z</time></trkpt><trkpt lat="48.33709968301302" lon="-4.0121265053999045"><ele>135.0</ele><time>2026-04-19T15:15:33Z</time></trkpt><trkpt lat="48.33709725221878" lon="-4.0122686405118"><ele>135.0</ele><time>2026-04-19T15:15:35Z</time></trkpt><trkpt lat="48.337041077975684" lon="-4.012438590167481"><ele>135.0</ele><time>2026-04-19T15:15:37Z</time></trkpt><trkpt lat="48.33701273522176" lon="-4.012602747706326"><ele>137.0</ele><time>2026-04-19T15:15:38.999Z</time></trkpt><trkpt lat="48.33697354141107" lon="-4.012678722370874"><ele>139.0</ele><time>2026-04-19T15:15:40.999Z</time></trkpt><trkpt lat="48.336871895655825" lon="-4.012652371394316"><ele>141.0</ele><time>2026-04-19T15:15:42.999Z</time></trkpt><trkpt lat="48.33680388279624" lon="-4.012614947821223"><ele>143.0</ele><time>2026-04-19T15:15:43.999Z</time></trkpt><trkpt lat="48.33674297562696" lon="-4.012583818577682"><ele>145.0</ele><time>2026-04-19T15:15:44.999Z</time></trkpt><trkpt lat="48.3366623913878" lon="-4.012560511200457"><ele>147.0</ele><time>2026-04-19T15:15:45.999Z</time></trkpt><trkpt lat="48.33658214868131" lon="-4.012519491943433"><ele>145.5</ele><time>2026-04-19T15:15:46.999Z</time></trkpt><trkpt lat="48.33650205664171" lon="-4.012456216346143"><ele>144.0</ele><time>2026-04-19T15:15:47.999Z</time></trkpt><trkpt lat="48.336413635460026" lon="-4.012363128125815"><ele>142.5</ele><time>2026-04-19T15:15:48.999Z</time></trkpt><trkpt lat="48.33634751601096" lon="-4.012298616755663"><ele>141.0</ele><time>2026-04-19T15:15:49.999Z</time></trkpt><trkpt lat="48.336291187587456" lon="-4.012222092617595"><ele>139.5</ele><time>2026-04-19T15:15:50.999Z</time></trkpt><trkpt lat="48.33624906997142" lon="-4.012126001940297"><ele>138.0</ele><time>2026-04-19T15:15:51.999Z</time></trkpt><trkpt lat="48.33622335321769" lon="-4.012004260228462"><ele>138.0</ele><time>2026-04-19T15:15:52.999Z</time></trkpt><trkpt lat="48.33620150738587" lon="-4.011895559850183"><ele>138.0</ele><time>2026-04-19T15:15:53.999Z</time></trkpt><trkpt lat="48.336121272826105" lon="-4.011765796268811"><ele>138.0</ele><time>2026-04-19T15:15:55.999Z</time></trkpt><trkpt lat="48.336041505283006" lon="-4.011669624085958"><ele>138.0</ele><time>2026-04-19T15:15:56.999Z</time></trkpt><trkpt lat="48.33596167995321" lon="-4.011568843738865"><ele>138.0</ele><time>2026-04-19T15:15:57.999Z</time></trkpt><trkpt lat="48.33586602918245" lon="-4.011491755451094"><ele>137.66666666666666</ele><time>2026-04-19T15:15:59.999Z</time></trkpt><trkpt lat="48.33578680176602" lon="-4.011459222268678"><ele>137.33333333333334</ele><time>2026-04-19T15:16:02.999Z</time></trkpt><trkpt lat="48.33571077790124" lon="-4.011426287239348"><ele>137.0</ele><time>2026-04-19T15:16:05.999Z</time></trkpt><trkpt lat="48.33562825006882" lon="-4.011427861039482"><ele>136.66666666666669</ele><time>2026-04-19T15:16:23Z</time></trkpt><trkpt lat="48.33554081842548" lon="-4.011462229103275"><ele>136.33333333333334</ele><time>2026-04-19T15:16:26Z</time></trkpt><trkpt lat="48.335454860753565" lon="-4.011530916150776"><ele>136.0</ele><time>2026-04-19T15:16:28Z</time></trkpt><trkpt lat="48.33537791036648" lon="-4.011564218333997"><ele>136.0</ele><time>2026-04-19T15:16:30Z</time></trkpt><trkpt lat="48.33529855578988" lon="-4.0115719021140235"><ele>136.0</ele><time>2026-04-19T15:16:33Z</time></trkpt><trkpt lat="48.335209826034536" lon="-4.011612466129826"><ele>136.0</ele><time>2026-04-19T15:16:34Z</time></trkpt><trkpt lat="48.335140949699074" lon="-4.011567545935959"><ele>136.0</ele><time>2026-04-19T15:16:37Z</time></trkpt><trkpt lat="48.33508360592666" lon="-4.011621979181112"><ele>136.0</ele><time>2026-04-19T15:16:39Z</time></trkpt><trkpt lat="48.33497613582957" lon="-4.011696724229586"><ele>136.0</ele><time>2026-04-19T15:16:41Z</time></trkpt><trkpt lat="48.334915107940375" lon="-4.011742007184958"><ele>135.83333333333334</ele><time>2026-04-19T15:16:42Z</time></trkpt><trkpt lat="48.33484959155722" lon="-4.011729232153568"><ele>135.66666666666669</ele><time>2026-04-19T15:16:44Z</time></trkpt><trkpt lat="48.33480399284315" lon="-4.011811939997754"><ele>135.5</ele><time>2026-04-19T15:16:49Z</time></trkpt><trkpt lat="48.33476295610701" lon="-4.011934803690091"><ele>135.33333333333334</ele><time>2026-04-19T15:16:52Z</time></trkpt><trkpt lat="48.33470392672463" lon="-4.012034095498176"><ele>135.16666666666666</ele><time>2026-04-19T15:17:00Z</time></trkpt><trkpt lat="48.334622092509676" lon="-4.012076559178951"><ele>135.0</ele><time>2026-04-19T15:17:02Z</time></trkpt><trkpt lat="48.33454630027785" lon="-4.012189118606265"><ele>135.5</ele><time>2026-04-19T15:17:04Z</time></trkpt><trkpt lat="48.334477932385745" lon="-4.012261128738922"><ele>136.0</ele><time>2026-04-19T15:17:06Z</time></trkpt><trkpt lat="48.33437167070244" lon="-4.012359756862836"><ele>136.5</ele><time>2026-04-19T15:17:08Z</time></trkpt><trkpt lat="48.334308349192504" lon="-4.012385109208805"><ele>137.0</ele><time>2026-04-19T15:17:10Z</time></trkpt><trkpt lat="48.33426647350474" lon="-4.012461915834479"><ele>137.5</ele><time>2026-04-19T15:17:12Z</time></trkpt><trkpt lat="48.33421319089387" lon="-4.012524809423114"><ele>138.0</ele><time>2026-04-19T15:17:14Z</time></trkpt><trkpt lat="48.3341194020276" lon="-4.012539497909267"><ele>137.33333333333334</ele><time>2026-04-19T15:17:16Z</time></trkpt><trkpt lat="48.33404348905768" lon="-4.012586009870669"><ele>136.66666666666666</ele><time>2026-04-19T15:17:18Z</time></trkpt><trkpt lat="48.33403907587056" lon="-4.012742441723573"><ele>136.0</ele><time>2026-04-19T15:17:21Z</time></trkpt><trkpt lat="48.333980751164304" lon="-4.012831306368109"><ele>135.33333333333331</ele><time>2026-04-19T15:17:24Z</time></trkpt><trkpt lat="48.33393336435523" lon="-4.0129055044479545"><ele>134.66666666666666</ele><time>2026-04-19T15:17:27Z</time></trkpt><trkpt lat="48.33387846435396" lon="-4.0130034874194855"><ele>134.0</ele><time>2026-04-19T15:17:29Z</time></trkpt><trkpt lat="48.333827752700756" lon="-4.013090390012813"><ele>134.0</ele><time>2026-04-19T15:17:31Z</time></trkpt><trkpt lat="48.33375705339212" lon="-4.013171166677885"><ele>134.0</ele><time>2026-04-19T15:17:48Z</time></trkpt><trkpt lat="48.333693012469354" lon="-4.013228165252283"><ele>134.0</ele><time>2026-04-19T15:17:49.999Z</time></trkpt><trkpt lat="48.333634973918734" lon="-4.013283968078955"><ele>134.0</ele><time>2026-04-19T15:18:09.999Z</time></trkpt><trkpt lat="48.33367620880043" lon="-4.013386240597828"><ele>134.0</ele><time>2026-04-19T15:18:13.999Z</time></trkpt><trkpt lat="48.33372555563688" lon="-4.013446836392249"><ele>134.0</ele><time>2026-04-19T15:18:16.999Z</time></trkpt><trkpt lat="48.3337604324667" lon="-4.013526284775316"><ele>134.0</ele><time>2026-04-19T15:18:22.999Z</time></trkpt><trkpt lat="48.333681329194526" lon="-4.013562473378967"><ele>132.71428571428572</ele><time>2026-04-19T15:18:27Z</time></trkpt><trkpt lat="48.333620319086535" lon="-4.013608321641117"><ele>131.42857142857142</ele><time>2026-04-19T15:18:30Z</time></trkpt><trkpt lat="48.333571844198545" lon="-4.01369118153453"><ele>130.14285714285714</ele><time>2026-04-19T15:18:33Z</time></trkpt><trkpt lat="48.33351721120246" lon="-4.013779258141737"><ele>128.85714285714286</ele><time>2026-04-19T15:18:35Z</time></trkpt><trkpt lat="48.333479072930714" lon="-4.013868085070912"><ele>127.57142857142858</ele><time>2026-04-19T15:18:38Z</time></trkpt><trkpt lat="48.33341739743995" lon="-4.01391937353939"><ele>126.28571428571428</ele><time>2026-04-19T15:18:41Z</time></trkpt><trkpt lat="48.333348198024744" lon="-4.013976614899318"><ele>125.0</ele><time>2026-04-19T15:18:45Z</time></trkpt><trkpt lat="48.33332605836065" lon="-4.014068528283532"><ele>124.66666666666666</ele><time>2026-04-19T15:18:51Z</time></trkpt><trkpt lat="48.33328872928902" lon="-4.014162771862303"><ele>124.33333333333333</ele><time>2026-04-19T15:19:02Z</time></trkpt><trkpt lat="48.33325616647192" lon="-4.01429738860892"><ele>124.0</ele><time>2026-04-19T15:19:05Z</time></trkpt><trkpt lat="48.333176742117566" lon="-4.014383829145127"><ele>123.66666666666666</ele><time>2026-04-19T15:19:08Z</time></trkpt><trkpt lat="48.33311126184188" lon="-4.014422142537156"><ele>123.33333333333333</ele><time>2026-04-19T15:19:10Z</time></trkpt><trkpt lat="48.33303046626407" lon="-4.014456003467389"><ele>123.0</ele><time>2026-04-19T15:19:12Z</time></trkpt><trkpt lat="48.33298430484532" lon="-4.0145471108428445"><ele>123.00000000000001</ele><time>2026-04-19T15:19:14Z</time></trkpt><trkpt lat="48.33293696976283" lon="-4.014616638155369"><ele>123.0</ele><time>2026-04-19T15:19:17Z</time></trkpt><trkpt lat="48.332947422785494" lon="-4.014714903065001"><ele>123.00000000000001</ele><time>2026-04-19T15:19:49.999Z</time></trkpt><trkpt lat="48.33292437642634" lon="-4.0148330290471534"><ele>123.00000000000001</ele><time>2026-04-19T15:19:52.999Z</time></trkpt><trkpt lat="48.332854401819894" lon="-4.014899172270978"><ele>123.0</ele><time>2026-04-19T15:20:01.999Z</time></trkpt><trkpt lat="48.332789904750314" lon="-4.014968872958811"><ele>123.00000000000001</ele><time>2026-04-19T15:20:10.999Z</time></trkpt><trkpt lat="48.33275713708024" lon="-4.015062558528914"><ele>123.00000000000001</ele><time>2026-04-19T15:20:16.999Z</time></trkpt><trkpt lat="48.3327007587626" lon="-4.015144019548001"><ele>125.33333333333333</ele><time>2026-04-19T15:20:25.999Z</time></trkpt><trkpt lat="48.332627244632626" lon="-4.015175815576681"><ele>127.66666666666666</ele><time>2026-04-19T15:20:28.999Z</time></trkpt><trkpt lat="48.332535903102546" lon="-4.015190558210525"><ele>130.0</ele><time>2026-04-19T15:20:30.999Z</time></trkpt><trkpt lat="48.33245286915149" lon="-4.015260010476105"><ele>132.33333333333331</ele><time>2026-04-19T15:20:33Z</time></trkpt><trkpt lat="48.332413321673194" lon="-4.015346330750758"><ele>134.66666666666666</ele><time>2026-04-19T15:20:43Z</time></trkpt><trkpt lat="48.33239267891384" lon="-4.0154546064566325"><ele>137.0</ele><time>2026-04-19T15:20:52Z</time></trkpt><trkpt lat="48.33236531758562" lon="-4.015587530616552"><ele>137.0</ele><time>2026-04-19T15:20:59Z</time></trkpt><trkpt lat="48.33236936505104" lon="-4.015724892258558"><ele>137.0</ele><time>2026-04-19T15:21:01Z</time></trkpt><trkpt lat="48.33232505268559" lon="-4.0158447756085724"><ele>137.0</ele><time>2026-04-19T15:21:04Z</time></trkpt><trkpt lat="48.33226673954501" lon="-4.0158961161566715"><ele>137.0</ele><time>2026-04-19T15:37:22Z</time></trkpt><trkpt lat="48.33231175924256" lon="-4.015983726288538"><ele>137.0</ele><time>2026-04-19T15:37:48Z</time></trkpt><trkpt lat="48.3323734082904" lon="-4.016012794760211"><ele>137.0</ele><time>2026-04-19T15:37:50Z</time></trkpt><trkpt lat="48.33247483869831" lon="-4.016032554058904"><ele>142.33333333333331</ele><time>2026-04-19T15:39:39Z</time></trkpt><trkpt lat="48.33258428049984" lon="-4.016087876714801"><ele>147.66666666666666</ele><time>2026-04-19T15:39:41Z</time></trkpt><trkpt lat="48.33265047468993" lon="-4.016110875587809"><ele>153.0</ele><time>2026-04-19T15:39:42Z</time></trkpt><trkpt lat="48.33271894303357" lon="-4.0161638215723325"><ele>158.33333333333334</ele><time>2026-04-19T15:39:43Z</time></trkpt><trkpt lat="48.33280392428581" lon="-4.016218983851124"><ele>163.66666666666669</ele><time>2026-04-19T15:39:44Z</time></trkpt><trkpt lat="48.3328694054921" lon="-4.016257305515362"><ele>169.0</ele><time>2026-04-19T15:39:45Z</time></trkpt><trkpt lat="48.33293494620651" lon="-4.016286138835841"><ele>169.0</ele><time>2026-04-19T15:39:46Z</time></trkpt><trkpt lat="48.33300840685532" lon="-4.016331070300985"><ele>169.0</ele><time>2026-04-19T15:39:47Z</time></trkpt><trkpt lat="48.333075846747626" lon="-4.016370542793227"><ele>169.0</ele><time>2026-04-19T15:39:48Z</time></trkpt><trkpt lat="48.3331472313954" lon="-4.016405929021604"><ele>169.0</ele><time>2026-04-19T15:39:49Z</time></trkpt><trkpt lat="48.33322018229462" lon="-4.016445017752162"><ele>169.0</ele><time>2026-04-19T15:39:50Z</time></trkpt><trkpt lat="48.33328783560426" lon="-4.016481745875074"><ele>169.0</ele><time>2026-04-19T15:39:51Z</time></trkpt><trkpt lat="48.333355909623705" lon="-4.0165260149707045"><ele>170.83333333333334</ele><time>2026-04-19T15:39:52Z</time></trkpt><trkpt lat="48.333464791227044" lon="-4.016588999911147"><ele>172.66666666666669</ele><time>2026-04-19T15:39:54Z</time></trkpt><trkpt lat="48.33351546577291" lon="-4.0166628323965385"><ele>174.5</ele><time>2026-04-19T15:39:56Z</time></trkpt><trkpt lat="48.333442013553736" lon="-4.016727633693771"><ele>176.33333333333334</ele><time>2026-04-19T15:39:58Z</time></trkpt><trkpt lat="48.333385313559056" lon="-4.016772209852601"><ele>178.16666666666666</ele><time>2026-04-19T15:39:59Z</time></trkpt><trkpt lat="48.333290987652234" lon="-4.0168288137819355"><ele>180.0</ele><time>2026-04-19T15:40:01Z</time></trkpt><trkpt lat="48.333185646673805" lon="-4.016915672634344"><ele>180.16666666666666</ele><time>2026-04-19T15:40:03Z</time></trkpt><trkpt lat="48.3331312020524" lon="-4.016981053937382"><ele>180.33333333333334</ele><time>2026-04-19T15:40:08Z</time></trkpt><trkpt lat="48.333075759214" lon="-4.0170451318408285"><ele>180.5</ele><time>2026-04-19T15:40:10Z</time></trkpt><trkpt lat="48.33299600474442" lon="-4.017118644843177"><ele>180.66666666666669</ele><time>2026-04-19T15:40:12Z</time></trkpt><trkpt lat="48.33292357516787" lon="-4.017224917546259"><ele>180.83333333333334</ele><time>2026-04-19T15:40:14Z</time></trkpt><trkpt lat="48.33286198511276" lon="-4.017304388465944"><ele>181.0</ele><time>2026-04-19T15:40:16Z</time></trkpt><trkpt lat="48.332769886627915" lon="-4.017438034956731"><ele>181.20000000000002</ele><time>2026-04-19T15:40:18Z</time></trkpt><trkpt lat="48.33272278995849" lon="-4.017517761279894"><ele>181.4</ele><time>2026-04-19T15:40:19Z</time></trkpt><trkpt lat="48.332674363644706" lon="-4.0175837725518075"><ele>181.6</ele><time>2026-04-19T15:40:20.999Z</time></trkpt><trkpt lat="48.332802703625745" lon="-4.01778450732762"><ele>181.8</ele><time>2026-04-19T15:40:25.999Z</time></trkpt><trkpt lat="48.332857286867586" lon="-4.017849769059037"><ele>182.0</ele><time>2026-04-19T15:40:26.999Z</time></trkpt><trkpt lat="48.33294223374841" lon="-4.017948752799831"><ele>182.0</ele><time>2026-04-19T15:40:28.999Z</time></trkpt><trkpt lat="48.333014647369254" lon="-4.018050349358433"><ele>182.0</ele><time>2026-04-19T15:40:30.999Z</time></trkpt><trkpt lat="48.33303769406961" lon="-4.0181770986023215"><ele>182.0</ele><time>2026-04-19T15:40:31.999Z</time></trkpt><trkpt lat="48.33305885122791" lon="-4.018307662715341"><ele>182.0</ele><time>2026-04-19T15:40:32.999Z</time></trkpt><trkpt lat="48.33307501316237" lon="-4.0184370069373445"><ele>182.0</ele><time>2026-04-19T15:40:33.999Z</time></trkpt><trkpt lat="48.33308710784314" lon="-4.018563589241626"><ele>182.0</ele><time>2026-04-19T15:40:34.999Z</time></trkpt><trkpt lat="48.33311164689463" lon="-4.018687258569103"><ele>183.39999999999998</ele><time>2026-04-19T15:40:35.999Z</time></trkpt><trkpt lat="48.33311714787563" lon="-4.0188064533610035"><ele>184.79999999999998</ele><time>2026-04-19T15:40:36.999Z</time></trkpt><trkpt lat="48.33313689579903" lon="-4.01896024751166"><ele>186.2</ele><time>2026-04-19T15:40:37.999Z</time></trkpt><trkpt lat="48.33316016844576" lon="-4.019077827419478"><ele>187.6</ele><time>2026-04-19T15:40:38.999Z</time></trkpt><trkpt lat="48.3331838428033" lon="-4.019194183450708"><ele>189.0</ele><time>2026-04-19T15:40:39.999Z</time></trkpt><trkpt lat="48.3332257983213" lon="-4.019396054553735"><ele>189.0</ele><time>2026-04-19T15:40:41.999Z</time></trkpt><trkpt lat="48.33325368961846" lon="-4.019504849753611"><ele>189.0</ele><time>2026-04-19T15:40:42.999Z</time></trkpt><trkpt lat="48.33327492112319" lon="-4.0196160611293195"><ele>189.0</ele><time>2026-04-19T15:40:43.999Z</time></trkpt><trkpt lat="48.33328205831224" lon="-4.0197117410082495"><ele>189.0</ele><time>2026-04-19T15:40:44.999Z</time></trkpt><trkpt lat="48.333303535608046" lon="-4.0198258996583505"><ele>189.0</ele><time>2026-04-19T15:40:46.999Z</time></trkpt><trkpt lat="48.33333496633207" lon="-4.019953446748144"><ele>189.0</ele><time>2026-04-19T15:40:49.999Z</time></trkpt><trkpt lat="48.33331683402305" lon="-4.020054741394343"><ele>189.33333333333334</ele><time>2026-04-19T15:40:52.999Z</time></trkpt><trkpt lat="48.3333341239123" lon="-4.020199976261798"><ele>189.66666666666666</ele><time>2026-04-19T15:40:57.999Z</time></trkpt><trkpt lat="48.333328504625534" lon="-4.020325543329565"><ele>190.0</ele><time>2026-04-19T15:40:59.999Z</time></trkpt><trkpt lat="48.333350965985716" lon="-4.020439459173186"><ele>190.33333333333331</ele><time>2026-04-19T15:41:03.999Z</time></trkpt><trkpt lat="48.33333386055928" lon="-4.0205526866355425"><ele>190.66666666666666</ele><time>2026-04-19T15:41:06.999Z</time></trkpt><trkpt lat="48.33332361005166" lon="-4.020661777910305"><ele>191.0</ele><time>2026-04-19T15:41:09.999Z</time></trkpt><trkpt lat="48.3333162590765" lon="-4.020774963413329"><ele>190.66666666666666</ele><time>2026-04-19T15:41:12.999Z</time></trkpt><trkpt lat="48.333299217285465" lon="-4.020904813455332"><ele>190.33333333333331</ele><time>2026-04-19T15:41:14.999Z</time></trkpt><trkpt lat="48.333281767505994" lon="-4.021051682843765"><ele>190.0</ele><time>2026-04-19T15:41:16.999Z</time></trkpt><trkpt lat="48.333265014698426" lon="-4.021176758466728"><ele>189.66666666666666</ele><time>2026-04-19T15:41:18.999Z</time></trkpt><trkpt lat="48.33328392945876" lon="-4.021275851428511"><ele>189.33333333333334</ele><time>2026-04-19T15:41:20.999Z</time></trkpt><trkpt lat="48.33329482637056" lon="-4.021386260146313"><ele>189.0</ele><time>2026-04-19T15:41:22.999Z</time></trkpt><trkpt lat="48.33332931649578" lon="-4.021480303380171"><ele>189.0</ele><time>2026-04-19T15:41:24.999Z</time></trkpt><trkpt lat="48.33339580684889" lon="-4.021533543965711"><ele>189.0</ele><time>2026-04-19T15:41:28.999Z</time></trkpt><trkpt lat="48.33343007845405" lon="-4.021637762740398"><ele>189.0</ele><time>2026-04-19T15:41:39Z</time></trkpt><trkpt lat="48.33342157449271" lon="-4.021736087352672"><ele>189.0</ele><time>2026-04-19T15:41:41Z</time></trkpt><trkpt lat="48.33342694841451" lon="-4.021842350445833"><ele>189.0</ele><time>2026-04-19T15:41:43Z</time></trkpt><trkpt lat="48.333373999601626" lon="-4.021952670825131"><ele>189.0</ele><time>2026-04-19T15:41:47Z</time></trkpt><trkpt lat="48.333369071215735" lon="-4.022058294501755"><ele>188.0</ele><time>2026-04-19T15:41:50Z</time></trkpt><trkpt lat="48.33337612205237" lon="-4.022184916710365"><ele>187.0</ele><time>2026-04-19T15:41:52Z</time></trkpt><trkpt lat="48.333369155325585" lon="-4.022282209241318"><ele>186.0</ele><time>2026-04-19T15:41:54Z</time></trkpt><trkpt lat="48.33337469120737" lon="-4.0224046837166005"><ele>185.0</ele><time>2026-04-19T15:42:00Z</time></trkpt><trkpt lat="48.33346869427067" lon="-4.0225176218138845"><ele>184.0</ele><time>2026-04-19T15:42:02Z</time></trkpt><trkpt lat="48.33353769244403" lon="-4.022587257833235"><ele>183.0</ele><time>2026-04-19T15:42:03Z</time></trkpt><trkpt lat="48.33359477007208" lon="-4.022636530620655"><ele>182.83333333333334</ele><time>2026-04-19T15:42:04Z</time></trkpt><trkpt lat="48.333551177878874" lon="-4.022729631041206"><ele>182.66666666666666</ele><time>2026-04-19T15:42:07Z</time></trkpt><trkpt lat="48.333457863407176" lon="-4.022702815283836"><ele>182.5</ele><time>2026-04-19T15:42:09Z</time></trkpt><trkpt lat="48.333380347628996" lon="-4.022716468971422"><ele>182.33333333333331</ele><time>2026-04-19T15:42:10Z</time></trkpt><trkpt lat="48.333291238372176" lon="-4.0227282496374865"><ele>182.16666666666666</ele><time>2026-04-19T15:42:11Z</time></trkpt><trkpt lat="48.33318802808808" lon="-4.022730885807496"><ele>182.0</ele><time>2026-04-19T15:42:12Z</time></trkpt><trkpt lat="48.33308216366083" lon="-4.022736310079759"><ele>179.2</ele><time>2026-04-19T15:42:13Z</time></trkpt><trkpt lat="48.33300539838693" lon="-4.022705556281425"><ele>176.39999999999998</ele><time>2026-04-19T15:42:14Z</time></trkpt><trkpt lat="48.332911379105575" lon="-4.022692203314017"><ele>173.60000000000002</ele><time>2026-04-19T15:42:14.999Z</time></trkpt><trkpt lat="48.33282526714592" lon="-4.022732342296473"><ele>170.8</ele><time>2026-04-19T15:42:15.999Z</time></trkpt><trkpt lat="48.33271081655479" lon="-4.022847552173669"><ele>168.0</ele><time>2026-04-19T15:42:17.999Z</time></trkpt><trkpt lat="48.33266603271295" lon="-4.02295533710686"><ele>168.0</ele><time>2026-04-19T15:42:18.999Z</time></trkpt><trkpt lat="48.332622420409855" lon="-4.0230961438183055"><ele>168.0</ele><time>2026-04-19T15:42:19.999Z</time></trkpt><trkpt lat="48.332588315381045" lon="-4.023258564602627"><ele>168.0</ele><time>2026-04-19T15:42:20.999Z</time></trkpt><trkpt lat="48.332560124228515" lon="-4.023415656866163"><ele>168.0</ele><time>2026-04-19T15:42:21.999Z</time></trkpt><trkpt lat="48.33254960396699" lon="-4.023535686813576"><ele>168.0</ele><time>2026-04-19T15:42:22.999Z</time></trkpt><trkpt lat="48.3325478320074" lon="-4.023651883834128"><ele>168.83333333333334</ele><time>2026-04-19T15:42:23.999Z</time></trkpt><trkpt lat="48.332562037120915" lon="-4.023787404154361"><ele>169.66666666666666</ele><time>2026-04-19T15:42:24.999Z</time></trkpt><trkpt lat="48.332600286224725" lon="-4.023921295234906"><ele>170.5</ele><time>2026-04-19T15:42:25.999Z</time></trkpt><trkpt lat="48.33264006361102" lon="-4.024024876881825"><ele>171.33333333333331</ele><time>2026-04-19T15:42:26.999Z</time></trkpt><trkpt lat="48.332688438235635" lon="-4.024097027885804"><ele>172.16666666666666</ele><time>2026-04-19T15:42:27.999Z</time></trkpt><trkpt lat="48.33275615742997" lon="-4.0241410840875576"><ele>173.0</ele><time>2026-04-19T15:42:28.999Z</time></trkpt><trkpt lat="48.332847907545776" lon="-4.02416816216174"><ele>173.0</ele><time>2026-04-19T15:42:29.999Z</time></trkpt><trkpt lat="48.332952049297326" lon="-4.024186323184701"><ele>173.0</ele><time>2026-04-19T15:42:30.999Z</time></trkpt><trkpt lat="48.33307263950455" lon="-4.024205728030775"><ele>173.0</ele><time>2026-04-19T15:42:31.999Z</time></trkpt><trkpt lat="48.33320772160011" lon="-4.02425029580536"><ele>173.0</ele><time>2026-04-19T15:42:32.999Z</time></trkpt><trkpt lat="48.33334822758086" lon="-4.0242640205182045"><ele>175.4</ele><time>2026-04-19T15:42:33.999Z</time></trkpt><trkpt lat="48.3334604085871" lon="-4.024278087300229"><ele>177.8</ele><time>2026-04-19T15:42:34.999Z</time></trkpt><trkpt lat="48.333544479455725" lon="-4.024291382623997"><ele>180.2</ele><time>2026-04-19T15:42:35.999Z</time></trkpt><trkpt lat="48.33365119820129" lon="-4.0244285609161"><ele>182.6</ele><time>2026-04-19T15:42:37.999Z</time></trkpt><trkpt lat="48.33370494041768" lon="-4.024520379955102"><ele>185.0</ele><time>2026-04-19T15:42:38.999Z</time></trkpt><trkpt lat="48.33377359281246" lon="-4.024557512378542"><ele>186.66666666666666</ele><time>2026-04-19T15:42:39.999Z</time></trkpt><trkpt lat="48.3339013603552" lon="-4.024608651196392"><ele>188.33333333333331</ele><time>2026-04-19T15:42:41.999Z</time></trkpt><trkpt lat="48.333964473270015" lon="-4.024598090205339"><ele>190.0</ele><time>2026-04-19T15:42:42.999Z</time></trkpt><trkpt lat="48.33402675571686" lon="-4.02457729097037"><ele>191.66666666666666</ele><time>2026-04-19T15:42:44.999Z</time></trkpt><trkpt lat="48.33406367769615" lon="-4.024734067285762"><ele>193.33333333333334</ele><time>2026-04-19T15:42:46.999Z</time></trkpt><trkpt lat="48.33408831488642" lon="-4.024832223534602"><ele>195.0</ele><time>2026-04-19T15:42:47.999Z</time></trkpt><trkpt lat="48.334130879107434" lon="-4.024935749191896"><ele>194.0</ele><time>2026-04-19T15:42:48.999Z</time></trkpt><trkpt lat="48.334170533419375" lon="-4.0250309946167855"><ele>193.0</ele><time>2026-04-19T15:42:49.999Z</time></trkpt><trkpt lat="48.334207977657364" lon="-4.025143303394461"><ele>192.0</ele><time>2026-04-19T15:42:50.999Z</time></trkpt><trkpt lat="48.33424794223438" lon="-4.025267423735498"><ele>191.0</ele><time>2026-04-19T15:42:51.999Z</time></trkpt><trkpt lat="48.334285785838354" lon="-4.025385970856078"><ele>190.0</ele><time>2026-04-19T15:42:52.999Z</time></trkpt><trkpt lat="48.33433984439232" lon="-4.025492250522076"><ele>189.0</ele><time>2026-04-19T15:42:53.999Z</time></trkpt><trkpt lat="48.33440076006783" lon="-4.0255797075445665"><ele>189.0</ele><time>2026-04-19T15:42:54.999Z</time></trkpt><trkpt lat="48.33445185058769" lon="-4.025672100130748"><ele>189.0</ele><time>2026-04-19T15:42:55.999Z</time></trkpt><trkpt lat="48.33448321089547" lon="-4.025758862295286"><ele>189.0</ele><time>2026-04-19T15:42:56.999Z</time></trkpt><trkpt lat="48.33450135719902" lon="-4.025858041892728"><ele>189.0</ele><time>2026-04-19T15:42:57.999Z</time></trkpt><trkpt lat="48.33453076201017" lon="-4.025950137512703"><ele>189.0</ele><time>2026-04-19T15:42:58.999Z</time></trkpt><trkpt lat="48.33458119331279" lon="-4.026093637819057"><ele>189.0</ele><time>2026-04-19T15:43:00.999Z</time></trkpt><trkpt lat="48.33455885094999" lon="-4.0262148233205535"><ele>188.5</ele><time>2026-04-19T15:43:01.999Z</time></trkpt><trkpt lat="48.33453276773201" lon="-4.026319324339425"><ele>188.0</ele><time>2026-04-19T15:43:02.999Z</time></trkpt><trkpt lat="48.334513152233846" lon="-4.026422091809739"><ele>187.5</ele><time>2026-04-19T15:43:03.999Z</time></trkpt><trkpt lat="48.33448847960701" lon="-4.026523757955914"><ele>187.0</ele><time>2026-04-19T15:43:04.999Z</time></trkpt><trkpt lat="48.33445303285263" lon="-4.026669027998535"><ele>186.5</ele><time>2026-04-19T15:43:06.999Z</time></trkpt><trkpt lat="48.334422556936694" lon="-4.026778238308171"><ele>186.0</ele><time>2026-04-19T15:43:09.999Z</time></trkpt><trkpt lat="48.33439083006567" lon="-4.0268650116433"><ele>186.0</ele><time>2026-04-19T15:43:15.999Z</time></trkpt><trkpt lat="48.33435010349127" lon="-4.026951734003156"><ele>186.0</ele><time>2026-04-19T15:43:18.999Z</time></trkpt><trkpt lat="48.3342517535059" lon="-4.027030064690337"><ele>186.0</ele><time>2026-04-19T15:43:21.999Z</time></trkpt><trkpt lat="48.33418020877034" lon="-4.027078721358474"><ele>186.0</ele><time>2026-04-19T15:43:23.999Z</time></trkpt><trkpt lat="48.33410852988485" lon="-4.027045603306108"><ele>186.0</ele><time>2026-04-19T15:43:46Z</time></trkpt><trkpt lat="48.33401627350441" lon="-4.026996861568539"><ele>186.0</ele><time>2026-04-19T15:43:48Z</time></trkpt><trkpt lat="48.33394741832948" lon="-4.026990121935725"><ele>187.57142857142858</ele><time>2026-04-19T15:43:50Z</time></trkpt><trkpt lat="48.333887997672335" lon="-4.026938172677507"><ele>189.14285714285714</ele><time>2026-04-19T15:43:52Z</time></trkpt><trkpt lat="48.33379176772061" lon="-4.0269140859497075"><ele>190.71428571428572</ele><time>2026-04-19T15:43:56Z</time></trkpt><trkpt lat="48.33372925895447" lon="-4.026882048350205"><ele>192.28571428571428</ele><time>2026-04-19T15:43:58Z</time></trkpt><trkpt lat="48.33366527324309" lon="-4.026860222464644"><ele>193.85714285714286</ele><time>2026-04-19T15:44:01Z</time></trkpt><trkpt lat="48.333603917978365" lon="-4.02683003347939"><ele>195.42857142857144</ele><time>2026-04-19T15:44:04Z</time></trkpt><trkpt lat="48.333518494271125" lon="-4.026815361670892"><ele>197.0</ele><time>2026-04-19T15:44:07Z</time></trkpt><trkpt lat="48.33344293364421" lon="-4.026796559606428"><ele>197.0</ele><time>2026-04-19T15:44:09Z</time></trkpt></trkseg></trk></gpx>